[[{"header":{"parameterUnit":"m.s-1","parameterCategory":1,"la1":30.6,"la2":28.766,"lo1":-90.7593,"lo2":-88.6598,"dy":0.0162,"dx":0.0183,"nx":116,"ny":114,"refTime":"2023-08-08T06:00:00:Z","depth":0,"parameterNumber":2,"parameterNumberName":"U-component_of_WINDS"},"data":[0.0,0.0,0.0,0.0,0.0,0.0,0.0,0.0,0.0,0.0,0.0,0.0,0.0,0.0,0.0,0.0,0.0,0.0,0.0,0.0,0.0,0.0,0.0,0.0,0.0,0.0,0.0,0.0,0.0,0.0,0.0,0.0,0.0,0.0,0.0,0.0,0.0,0.0,0.0,0.0,0.0,0.0,0.0,0.0,0.0,0.0,0.0,0.0,0.0,0.0,0.0,0.0,0.0,0.0,0.0,0.0,0.0,0.0,0.0,0.0,0.0,0.0,0.0,0.0,0.0,0.0,0.0,0.0,0.0,0.0,0.0,0.0,0.0,0.0,0.0,0.0,0.0,0.0,0.0,0.0,0.0,0.0,0.0,0.0,0.0,0.0,0.0,0.0,0.0,0.0,0.0,0.0,0.0,0.0,0.0,0.0,0.0,0.0,0.0,0.0,0.0,0.0,0.0,0.0,0.0,0.0,0.0,0.0,0.0,0.0,0.0,0.0,0.0,0.0,0.0,0.0,0.0,0.0,0.0,0.0,0.0,0.0,0.0,0.0,0.0,0.0,0.0,0.0,0.0,0.0,0.0,0.0,0.0,0.0,0.0,0.0,0.0,0.0,0.0,0.0,0.0,0.0,0.0,0.0,0.0,0.0,0.0,0.0,0.0,0.0,0.0,0.0,0.0,0.0,0.0,0.0,0.0,0.0,0.0,0.0,0.0,0.0,0.0,0.0,0.0,0.0,0.0,0.0,0.0,0.0,0.0,0.0,0.0,0.0,0.0,0.0,0.0,0.0,0.0,0.0,0.0,0.0,0.0,0.0,0.0,0.0,0.0,0.0,0.0,0.0,0.0,0.0,0.0,0.0,0.0,0.0,0.0,0.0,0.0,0.0,0.0,0.0,0.0,0.0,0.0,0.0,0.0,0.0,0.0,0.0,0.0,0.0,0.0,0.0,0.0,0.0,0.0,0.0,0.0,0.0,0.0,0.0,0.0,0.0,0.0,0.0,0.0,0.0,0.0,0.0,0.0,0.0,0.0,0.0,0.0,0.0,0.0,0.0,0.0,0.0,0.0,0.0,0.0,0.0,0.0,0.0,0.0,0.0,0.0,0.0,0.0,0.0,0.0,0.0,0.0,0.0,0.0,0.0,0.0,0.0,0.0,0.0,0.0,0.0,0.0,0.0,0.0,0.0,0.0,0.0,0.0,0.0,0.0,0.0,0.0,0.0,0.0,0.0,0.0,0.0,0.0,0.0,0.0,0.0,0.0,0.0,0.0,0.0,0.0,0.0,0.0,0.0,0.0,0.0,0.0,0.0,0.0,0.0,0.0,0.0,0.0,0.0,0.0,0.0,0.0,0.0,0.0,0.0,0.0,0.0,0.0,0.0,0.0,0.0,0.0,0.0,0.0,0.0,0.0,0.0,0.0,0.0,0.0,0.0,0.0,0.0,0.0,0.0,0.0,0.0,0.0,0.0,0.0,0.0,0.0,0.0,0.0,0.0,0.0,0.0,0.0,0.0,0.0,0.0,0.0,0.0,0.0,0.0,0.0,0.0,0.0,0.0,0.0,0.0,0.0,0.0,0.0,0.0,0.0,0.0,0.0,0.0,0.0,0.0,0.0,0.0,0.0,0.0,0.0,0.0,0.0,0.0,0.0,0.0,0.0,0.0,0.0,0.0,0.0,0.0,0.0,0.0,0.0,0.0,0.0,0.0,0.0,0.0,0.0,0.0,0.0,0.0,0.0,0.0,0.0,0.0,0.0,0.0,0.0,0.0,0.0,0.0,0.0,0.0,0.0,0.0,0.0,0.0,0.0,0.0,0.0,0.0,0.0,0.0,0.0,0.0,0.0,0.0,0.0,0.0,0.0,0.0,0.0,0.0,0.0,0.0,0.0,0.0,0.0,0.0,0.0,0.0,0.0,0.0,0.0,0.0,0.0,0.0,0.0,0.0,0.0,0.0,0.0,0.0,0.0,0.0,0.0,0.0,0.0,0.0,0.0,0.0,0.0,0.0,0.0,0.0,0.0,0.0,0.0,0.0,0.0,0.0,0.0,0.0,0.0,0.0,0.0,0.0,0.0,0.0,0.0,0.0,0.0,0.0,0.0,0.0,0.0,0.0,0.0,0.0,0.0,0.0,0.0,0.0,0.0,0.0,0.0,0.0,0.0,0.0,0.0,0.0,0.0,0.0,0.0,0.0,0.0,0.0,0.0,0.0,0.0,0.0,0.0,0.0,0.0,0.0,0.0,0.0,0.0,0.0,0.0,0.0,0.0,0.0,0.0,0.0,0.0,0.0,0.0,0.0,0.0,0.0,0.0,0.0,0.0,0.0,0.0,0.0,0.0,0.0,0.0,0.0,0.0,0.0,0.0,0.0,0.0,0.0,0.0,0.0,0.0,0.0,0.0,0.0,0.0,0.0,0.0,0.0,0.0,0.0,0.0,0.0,0.0,0.0,0.0,0.0,0.0,0.0,0.0,0.0,0.0,0.0,0.0,0.0,0.0,0.0,0.0,0.0,0.0,0.0,0.0,0.0,0.0,0.0,0.0,0.0,0.0,0.0,0.0,0.0,0.0,0.0,0.0,0.0,0.0,0.0,0.0,0.0,0.0,0.0,0.0,0.0,0.0,0.0,0.0,0.0,0.0,0.0,0.0,0.0,0.0,0.0,0.0,0.0,0.0,0.0,0.0,0.0,0.0,0.0,0.0,0.0,0.0,0.0,0.0,0.0,0.0,0.0,0.0,0.0,0.0,0.0,0.0,0.0,0.0,0.0,0.0,0.0,0.0,0.0,0.0,0.0,0.0,0.0,0.0,0.0,0.0,0.0,0.0,0.0,0.0,0.0,0.0,0.0,0.0,0.0,0.0,0.0,0.0,0.0,0.0,0.0,0.0,0.0,0.0,0.0,0.0,0.0,0.0,0.0,0.0,0.0,0.0,0.0,0.0,0.0,0.0,0.0,0.0,0.0,0.0,0.0,0.0,0.0,0.0,0.0,0.0,0.0,0.0,0.0,0.0,0.0,0.0,0.0,0.0,0.0,0.0,0.0,0.0,0.0,0.0,0.0,0.0,0.0,0.0,0.0,0.0,0.0,0.0,0.0,0.0,0.0,0.0,0.0,0.0,0.0,0.0,0.0,0.0,0.0,0.0,0.0,0.0,0.0,0.0,0.0,0.0,0.0,0.0,0.0,0.0,0.0,0.0,0.0,0.0,0.0,0.0,0.0,0.0,0.0,0.0,0.0,0.0,0.0,0.0,0.0,0.0,0.0,0.0,0.0,0.0,0.0,0.0,0.0,0.0,0.0,0.0,0.0,0.0,0.0,0.0,0.0,0.0,0.0,0.0,0.0,0.0,0.0,0.0,0.0,0.0,0.0,0.0,0.0,0.0,0.0,0.0,0.0,0.0,0.0,0.0,0.0,0.0,0.0,0.0,0.0,0.0,0.0,0.0,0.0,0.0,0.0,0.0,0.0,0.0,0.0,0.0,0.0,0.0,0.0,0.0,0.0,0.0,0.0,0.0,0.0,0.0,0.0,0.0,0.0,0.0,0.0,0.0,0.0,0.0,0.0,0.0,0.0,0.0,0.0,0.0,0.0,0.0,0.0,0.0,0.0,0.0,0.0,0.0,0.0,0.0,0.0,0.0,0.0,0.0,0.0,0.0,0.0,0.0,0.0,0.0,0.0,0.0,0.0,0.0,0.0,0.0,0.0,0.0,0.0,0.0,0.0,0.0,0.0,0.0,0.0,0.0,0.0,0.0,0.0,0.0,0.0,0.0,0.0,0.0,0.0,0.0,0.0,0.0,0.0,0.0,0.0,0.0,0.0,0.0,0.0,0.0,0.0,0.0,0.0,0.0,0.0,0.0,0.0,0.0,0.0,0.0,0.0,0.0,0.0,0.0,0.0,0.0,0.0,0.0,0.0,0.0,0.0,0.0,0.0,0.0,0.0,0.0,0.0,0.0,0.0,0.0,0.0,0.0,0.0,0.0,0.0,0.0,0.0,0.0,0.0,0.0,0.0,0.0,0.0,0.0,0.0,0.0,0.0,0.0,0.0,0.0,0.0,0.0,0.0,0.0,0.0,0.0,0.0,0.0,0.0,0.0,0.0,0.0,0.0,0.0,0.0,0.0,0.0,0.0,0.0,0.0,0.0,0.0,0.0,0.0,0.0,0.0,0.0,0.0,0.0,0.0,0.0,0.0,0.0,0.0,0.0,0.0,0.0,0.0,0.0,0.0,0.0,0.0,0.0,0.0,0.0,0.0,0.0,0.0,0.0,0.0,0.0,0.0,0.0,0.0,0.0,0.0,0.0,0.0,0.0,0.0,0.0,0.0,0.0,0.0,0.0,0.0,0.0,0.0,0.0,0.0,0.0,0.0,0.0,0.0,0.0,0.0,0.0,0.0,0.0,0.0,0.0,0.0,0.0,0.0,0.0,0.0,0.0,0.0,0.0,0.0,0.0,0.0,0.0,0.0,0.0,0.0,0.0,0.0,0.0,0.0,0.0,0.0,0.0,0.0,0.0,0.0,0.0,0.0,0.0,0.0,0.0,0.0,0.0,0.0,0.0,0.0,0.0,0.0,0.0,0.0,0.0,0.0,0.0,0.0,0.0,0.0,0.0,0.0,0.0,0.0,0.0,0.0,0.0,0.0,0.0,0.0,0.0,0.0,0.0,0.0,0.0,0.0,0.0,0.0,0.0,0.0,0.0,0.0,0.0,0.0,0.0,0.0,0.0,0.0,0.0,0.0,0.0,0.0,0.0,0.0,0.0,0.0,0.0,0.0,0.0,0.0,0.0,0.0,0.0,0.0,0.0,0.0,0.0,0.0,0.0,0.0,0.0,0.0,0.0,0.0,0.0,0.0,0.0,0.0,0.0,0.0,0.0,0.0,0.0,0.0,0.0,0.0,0.0,0.0,0.0,0.0,0.0,0.0,0.0,0.0,0.0,0.0,0.0,0.0,0.0,0.0,0.0,0.0,0.0,0.0,0.0,0.0,0.0,0.0,0.0,0.0,0.0,0.0,0.0,0.0,0.0,0.0,0.0,0.0,0.0,0.0,0.0,0.0,0.0,0.0,0.0,0.0,0.0,0.0,0.0,0.0,0.0,0.0,0.0,0.0,0.0,0.0,0.0,0.0,0.0,0.0,0.0,0.0,0.0,0.0,0.0,0.0,0.0,0.0,0.0,0.0,0.0,0.0,0.0,0.0,0.0,0.0,0.0,0.0,0.0,0.0,0.0,0.0,0.0,0.0,0.0,0.0,0.0,0.0,0.0,0.0,0.0,0.0,0.0,0.0,0.0,0.0,0.0,0.0,0.0,0.0,0.0,0.0,0.0,0.0,0.0,0.0,0.0,0.0,0.0,0.0,0.0,0.0,0.0,0.0,0.0,0.0,0.0,0.0,0.0,0.0,0.0,0.0,0.0,0.0,0.0,0.0,0.0,0.0,0.0,0.0,0.0,0.0,0.0,0.0,0.0,0.0,0.0,0.0,0.0,0.0,0.0,0.0,0.0,0.0,0.0,0.0,0.0,0.0,0.0,0.0,0.0,0.0,0.0,0.0,0.0,0.0,0.0,0.0,0.0,0.0,0.0,0.0,0.0,0.0,0.0,0.0,0.0,0.0,0.0,0.0,0.0,0.0,0.0,0.0,0.0,0.0,0.0,0.0,0.0,0.0,0.0,0.0,0.0,0.0,0.0,0.0,0.0,0.0,0.0,0.0,0.0,0.0,0.0,0.0,0.0,0.0,0.0,0.0,0.0,0.0,0.0,0.0,0.0,0.0,0.0,0.0,0.0,0.0,0.0,0.0,0.0,0.0,0.0,0.0,0.0,0.0,0.0,0.0,0.0,0.0,0.0,0.0,0.0,0.0,0.0,0.0,0.0,0.0,0.0,0.0,0.0,0.0,0.0,0.0,0.0,0.0,0.0,0.0,0.0,0.0,0.0,0.0,0.0,0.0,0.0,0.0,0.0,0.0,0.0,0.0,0.0,0.0,0.0,0.0,0.0,0.0,0.0,0.0,0.0,0.0,0.0,0.0,0.0,0.0,0.0,0.0,0.0,0.0,0.0,0.0,0.0,0.0,0.0,0.0,0.0,0.0,0.0,0.1259,-0.0,0.0,0.0,0.0,0.0,0.0,0.0,0.0,0.0,0.0,0.0,0.0,0.0,0.0,0.0,0.0,0.0,0.0,0.0,0.0,0.0,0.0,0.0,0.0,0.0,0.0,0.0,0.0,0.0,0.0,0.0,0.0,0.0,0.0,0.0,0.0,0.0,0.0,0.0,0.0,0.0,0.0,0.0,0.0,0.0,0.0,0.0,0.0,0.0,0.0,0.0,0.0,0.0,0.0,0.0,0.0,0.0,0.0,0.0,0.0,0.0,0.0,0.0,0.0,0.0,0.0,0.0,0.0,0.0,0.0,0.0,0.0,0.0,0.0,0.0,0.0,0.0,0.0,0.0,0.0,0.0,0.0,0.0,0.0,0.0,0.0,0.0,0.0,0.0,0.0,0.0,0.0,0.0,0.0,0.0,0.0,0.0,0.0,0.0,0.0,0.0,0.0,0.0,0.0,0.0,0.0,0.0,0.0,0.0,0.0,0.0,0.0,0.0,0.0,0.0,0.1566,-0.0,0.0,0.0,0.0,0.0,0.0,0.0,0.0,0.0,0.0,0.0,0.0,0.0,0.0,0.0,0.0,0.0,0.0,0.0,0.0,0.0,0.0,0.0,0.0,0.0,0.0,0.0,0.0,0.0,0.0,0.0,0.0,0.0,0.0,0.0,0.0,0.0,0.0,0.0,0.0,0.0,0.0,0.0,0.0,0.0,0.0,0.0,0.0,0.0,0.0,0.0,0.0,0.0,0.0,0.0,0.0,0.0,0.0,0.0,0.0,0.0,0.0,0.0,0.0,0.0,0.0,0.0,0.0,0.0,0.0,0.0,0.0,0.0,0.0,0.0,0.0,0.0,0.0,0.0,0.0,0.0,0.0,0.0,0.0,0.0,0.0,0.0,0.0,0.0,0.0,0.0,0.0,0.0,0.0,0.0,0.0,0.0,0.0,0.0,0.0,0.0,0.0,0.0,0.0,0.0,0.0,0.0,0.0,0.0,0.221,0.221,0.221,0.2547,0.3699,0.5215,0.2225,0.0607,-0.0,-0.0,0.0,0.0,0.0,0.0,0.0,0.0,0.0,0.0,0.0,0.0,0.0,0.0,0.0,0.0,0.0,0.0,0.0,0.0,0.0,0.0,0.0,0.0,0.0,0.0,0.0,0.0,0.0,0.0,0.0,0.0,0.0,0.0,0.0,0.0,0.0,0.0,0.0,0.0,-0.0,-0.0,-0.0,-0.0,0.0,0.0,0.0,0.0,0.0,0.0,0.0,0.0,0.0,0.0,0.0,0.0,0.0,0.0,0.0,0.0,0.0,0.0,0.0,0.0,0.0,0.0,0.0,0.0,0.0,0.0,0.0,0.0,0.0,0.0,0.0,0.0,0.0,0.0,0.0,0.0,0.0,0.0,0.0,0.0,0.0,0.0,0.0,0.0,-0.0,-0.0,0.0,0.0,0.0,0.0,0.0,0.0,0.0,0.0,0.0,0.0,0.0,0.0,0.0,-0.0,-0.0,-0.0,0.0135,0.0337,0.0337,0.0337,0.0404,0.1955,0.3722,0.5373,0.4892,0.0,-0.0,-0.0,0.0,0.0,0.0,0.0,0.0,0.0,0.0,0.0,0.0,0.0,0.0,0.0,0.0,0.0,0.0,0.0,0.0,0.0,0.0,0.0,0.0,0.0,0.0,0.0,0.0,0.0,0.0,0.0,0.0,0.0,0.0,0.0,0.0,0.0,0.0,0.0,-0.0,-0.0,-0.0,-0.0,-0.0,-0.0,-0.0,-0.0,-0.0,-0.0,0.0,0.0,0.0,0.0,0.0,0.0,0.0,0.0,0.0,0.0,0.0,0.0,0.0,0.0,0.0,0.0,0.0,0.0,0.0,0.0,0.0,0.0,0.0,0.0,0.0,0.0,0.0,0.0,0.0,0.0,0.0,0.0,0.0,0.0,0.0,0.0,0.0,0.0,0.0,-0.0,-0.0,-0.0,-0.0,-0.0,0.0,0.0,0.0,0.0,0.0,0.0,0.0,0.0,0.0,-0.0,-0.0,-0.0,-0.0,-0.0,-0.0,-0.0,-0.0,-0.0,-0.0,0.0809,0.1619,0.2364,0.2364,0.1484,-0.0,-0.0,-0.0,-0.0,0.0,0.0,0.0,0.0,-0.0,-0.0,0.0,0.0,0.0,0.0,0.0,0.0,0.0,0.0,0.0,0.0,0.0,0.0,0.0,0.0,0.0,-0.2322,0.0,0.0,0.0,0.0,0.0,0.0,0.0,0.0,0.0,0.0,0.0,0.0,-0.0,-0.0,-0.0,-0.0,-0.0,-0.0,-0.0,-0.0,-0.0,-0.0,-0.0,0.0,0.0,0.0,0.0,0.0,0.0,0.0,0.0,0.0,0.0,0.0,0.0,0.0,0.0,0.0,0.0,0.0,0.0,0.0,0.0,0.0,0.0,0.0,0.0,0.0,0.0,0.0,0.0,0.0,0.0,0.0,0.0,0.0,0.0,0.0,0.0,0.0,0.0,-0.0,-0.0,-0.0,-0.0,-0.0,0.0,0.0,0.0,0.0,0.0,0.0,-0.0,-0.0,-0.0,-0.0,-0.0,-0.0,-0.0,-0.0,-0.0,-0.0,-0.0,-0.0,-0.0,-0.0,-0.0,-0.0,-0.0,-0.0,-0.0,-0.0,-0.0,-0.0,-0.0,-0.0,-0.0,-0.0,-0.0,-0.0,0.0,0.0,0.0,0.0,0.0,0.0,0.0,0.0,0.0,0.0,0.0,0.0,0.0,0.0,-0.3578,-0.3534,-0.3509,-0.3488,0.0,0.0,0.0,0.0,0.0,0.0,0.0,0.0,0.0,-0.0,-0.0,-0.0,-0.0,-0.0,-0.0,-0.0,-0.0,-0.0,-0.0,-0.0,-0.0,-0.0,0.0,0.0,0.0,0.0,0.0,0.0,0.0,0.0,0.0,0.0,0.0,0.0,0.0,0.0,0.0,0.0,0.0,0.0,0.0,0.0,0.0,0.0,0.0,0.0,0.0,0.0,0.0,0.0,0.0,0.0,0.0,0.0,0.0,0.0,0.0,0.0,0.0,0.0,0.0,-0.0,-0.0,0.0,0.0,0.0,0.0,-0.0,-0.0,-0.0,-0.0,-0.0,-0.0,-0.0,-0.0,-0.0,-0.0,-0.0,-0.0,-0.0,-0.0,-0.0,-0.0,-0.0,-0.0,-0.0,-0.0,-0.0,-0.0,-0.0,-0.0,-0.0,-0.0,-0.0,-0.0,-0.0,-0.0,-0.0,0.0,0.0,0.0,0.0,0.0,0.0,0.0,0.0,0.0,0.0,0.0,0.0,0.0,-0.3581,-0.3581,-0.3581,-0.3588,-0.3423,-0.3036,0.0,0.0,0.0,0.0,0.0,0.0,0.0,-0.0568,-0.1762,-0.06,-0.0,-0.0,-0.0,-0.1267,-0.3504,-0.3504,-0.2825,-0.1677,-0.0471,-0.0,-0.0,-0.0,-0.0,0.0,0.0,0.0,0.0,0.0,0.0,0.0,0.0,0.0,0.0,0.0,0.0,0.0,0.0,0.0,0.0,0.0,0.0,0.0,0.0,0.0,0.0,0.0,0.0,0.0,0.0,0.0,0.0,0.0,0.0,0.0,0.0,0.0,0.0,0.0,0.0,0.0,-0.0,-0.0,0.0,-0.0,-0.0,-0.0,-0.0,-0.0,-0.0,-0.0,-0.0,-0.0,-0.0,-0.0,-0.0,-0.0,-0.0,-0.0,-0.0,-0.0,-0.0,-0.0,-0.0,-0.0,-0.0,-0.0,-0.0,-0.0,-0.0,-0.0,-0.0,-0.0,-0.0,-0.0,-0.0,-0.0,-0.0,0.0,0.0,0.0,0.0,0.0,0.0,0.0,0.0,0.0,0.0,0.0,-0.3581,-0.3581,-0.3581,-0.3581,-0.3581,-0.3581,-0.3478,-0.3136,0.0,0.0,0.0,0.0,0.0,0.0,-0.255,-0.2196,-0.3589,-0.2408,-0.1525,-0.0913,-0.0266,-0.1951,-0.5413,-0.542,-0.473,-0.35,-0.236,-0.1482,-0.0941,-0.0941,-0.0538,-0.0,0.0,0.0,0.0,0.0,0.0,0.0,0.0,0.0,0.0,0.0,0.0,0.0,0.0,0.0,0.0,0.0,0.0,0.0,0.0,0.0,0.0,0.0,0.0,0.0,0.0,0.0,0.0,0.0,0.0,0.0,0.0,0.0,0.0,0.0,-0.0,-0.0,-0.0,-0.0,-0.0,-0.0,-0.0,-0.0,-0.0,-0.0,-0.0,-0.0,-0.0,-0.0,-0.0,-0.0,-0.0,-0.0,-0.0,-0.0,-0.0,-0.0,-0.0,-0.0,-0.0,-0.0,-0.0,-0.0,-0.0,-0.0,-0.0,-0.0831,-0.2005,-0.0543,-0.0,-0.0135,-0.1349,-0.182,-0.1751,0.0,0.0,0.0,0.0,0.0,0.0,0.0,0.0,0.0,0.0,-0.3388,-0.3581,-0.3581,-0.3581,-0.3581,-0.3581,-0.3581,-0.3664,-0.3913,-0.4268,0.0,0.0,0.0,0.0,-0.4455,-0.4484,-0.4756,-0.5413,-0.5389,-0.4531,-0.2744,-0.1004,-0.2012,-0.5209,-0.5369,-0.5376,-0.5309,-0.5309,-0.4325,-0.2744,-0.2744,-0.174,-0.0134,0.0,0.0,0.0,0.0,0.0,0.0,0.0,0.0,0.0,0.0,0.0,0.0,0.0,0.0,0.0,0.0,0.0,0.0,0.0,0.0,0.0,0.0,0.0,0.0,0.0,0.0,0.0,0.0,0.0,0.0,0.0,0.0,0.0,-0.0539,-0.0,-0.0,-0.0,-0.0,-0.0,-0.0,-0.0,-0.0,-0.0,-0.0,-0.0,-0.0,-0.0,-0.0,-0.0,-0.0,-0.0,-0.0,-0.0,-0.0,-0.0,-0.0,-0.0,-0.0,-0.0,-0.0073,-0.0219,-0.0219,-0.0146,-0.0073,-0.0073,-0.2479,-0.5771,-0.1793,-0.0135,-0.054,-0.4004,-0.5366,-0.5135,0.0,0.0,0.0,0.0,0.0,0.0,0.0,0.0,0.0,0.0,-0.3388,-0.3581,-0.3581,-0.3581,-0.3581,-0.3581,-0.3581,-0.3707,-0.3956,0.0,0.0,0.0,0.0,0.0,-0.4487,-0.3932,-0.4118,-0.506,-0.5308,-0.5133,-0.4643,-0.4121,-0.3032,-0.1609,-0.4252,-0.466,-0.3429,-0.3429,-0.342,-0.3411,-0.4306,-0.4375,-0.3761,0.0,0.0,0.0,0.0,0.0,0.0,0.0,0.0,0.0,0.0,0.0,0.0,0.0,0.0,0.0,0.0,0.0,0.0,0.0,0.0,0.0,0.0,0.0,0.0,0.0,0.0,0.0,0.0,0.0,0.0,0.0,-0.5423,-0.4113,-0.0537,-0.0,-0.0,-0.0,-0.0,-0.0,-0.0,-0.0,-0.0,-0.0,-0.0,-0.0,-0.0,-0.0,-0.0,-0.0,-0.0,-0.0,-0.0,-0.0,-0.0,-0.0,-0.0,-0.0,-0.0,-0.0,-0.1676,-0.4535,-0.4535,-0.3719,-0.2252,-0.2252,-0.2907,-0.4003,-0.439,-0.3528,-0.2073,-0.3046,-0.4246,-0.5329,0.0,0.0,0.0,0.0,0.0,0.0,0.0,0.0,0.0,0.0,-0.3388,-0.3581,-0.3581,-0.3581,-0.3581,-0.3581,-0.3636,-0.3768,-0.4005,0.0,0.0,0.0,0.0,-0.4473,-0.448,-0.4097,-0.4231,-0.487,-0.5233,-0.4982,-0.43,-0.5071,-0.4252,-0.2345,-0.3696,-0.3694,-0.2678,-0.2678,-0.3347,-0.4422,-0.5116,-0.5393,-0.5252,-0.4228,-0.3823,-0.3692,-0.2614,-0.1808,-0.1138,-0.1141,0.0,0.0,0.0,0.0,0.0,0.0,0.0,0.0,0.0,0.0,0.0,0.0,0.0,0.0,0.0,0.0,0.0,0.0,0.0,0.0,0.0,0.0,0.0,0.0,-0.542,-0.4657,-0.2551,-0.0939,-0.0,-0.0,-0.0,-0.0,-0.0,-0.0,-0.0,-0.0,-0.0,-0.0,-0.0,-0.0,-0.0,-0.0,-0.0,-0.0,-0.0,-0.0,-0.0,-0.0,-0.0,-0.0894,-0.2636,-0.2636,-0.3464,-0.4975,-0.5897,-0.5582,-0.4433,-0.4433,-0.443,-0.4572,0.0,0.0,0.0,0.0,-0.4717,-0.5645,0.0,0.0,0.0,0.0,0.0,0.0,0.0,0.0,0.0,0.0,0.0,-0.3581,-0.3581,-0.3581,-0.3581,-0.3581,-0.371,-0.3866,0.0,0.0,0.0,-0.4477,-0.4522,-0.4522,-0.4477,-0.4716,-0.4816,-0.489,-0.5049,-0.437,-0.3013,-0.4643,-0.5396,-0.5326,-0.3689,-0.3013,-0.3013,-0.3013,-0.3956,-0.5379,-0.5379,-0.5379,-0.5376,-0.5376,-0.5382,-0.5393,-0.5393,-0.4367,-0.3013,-0.3013,0.0,0.0,0.0,0.0,0.0,0.0,0.0,0.0,0.0,0.0,0.0,0.0,0.0,0.0,0.0,0.0,0.0,0.0,0.0,0.0,0.0,0.0,0.0,0.0,-0.4931,-0.5135,-0.5346,-0.2627,-0.0472,-0.0067,-0.0337,-0.0472,-0.0067,-0.0,-0.0,-0.0,-0.0,-0.0206,-0.0704,-0.0705,0.0,0.0,0.0,-0.0,-0.0,-0.0441,-0.0744,-0.0763,-0.0534,-0.2397,-0.5972,-0.6215,-0.5314,-0.3622,-0.5535,-0.6342,-0.6339,-0.6322,-0.6298,-0.6328,-0.6286,-0.6248,-0.6244,-0.6053,-0.5967,-0.5964,0.0,0.0,0.0,0.0,0.0,0.0,0.0,0.0,0.0,-0.3082,-0.3388,-0.3581,-0.3581,-0.3581,-0.3581,-0.3581,-0.3767,-0.4021,0.0,0.0,-0.4519,-0.4522,-0.4519,-0.4519,-0.4522,-0.4765,-0.4867,-0.4816,-0.3719,-0.3758,-0.4916,-0.5269,-0.5403,-0.5396,-0.5052,-0.4849,-0.4849,-0.4849,-0.5113,-0.5379,-0.5379,-0.5372,-0.5432,-0.5432,-0.5432,-0.5369,-0.5379,-0.5176,-0.4903,-0.4909,-0.4849,-0.4846,-0.4439,0.0,0.0,0.0,0.0,0.0,0.0,0.0,0.0,0.0,0.0,0.0,0.0,0.0,0.0,0.0,0.0,0.0,0.0,0.0,0.0,-0.1138,-0.2278,-0.3761,-0.5205,-0.4797,-0.3303,-0.0337,-0.2559,-0.3234,-0.027,-0.0,-0.0,-0.0,-0.0,-0.148,-0.4867,-0.5093,-0.352,-0.0075,-0.0,-0.0,-0.0,-0.3413,-0.5274,-0.5722,-0.3844,0.0,-0.4144,-0.5823,-0.6404,-0.6128,-0.6552,-0.6634,-0.6614,-0.6488,-0.6369,-0.6247,-0.6143,-0.6074,-0.6057,-0.5926,-0.5806,-0.5806,0.0,0.0,0.0,0.0,0.0,0.0,0.0,0.0,0.0,0.0,-0.332,-0.3493,-0.3571,-0.3581,-0.3581,-0.3581,-0.3832,0.0,0.0,-0.4481,-0.4519,-0.4519,-0.4519,-0.4519,-0.4519,-0.4762,-0.4925,-0.4938,-0.3714,-0.3482,-0.4097,-0.4982,-0.5393,-0.5386,-0.5379,-0.5379,-0.5379,-0.5379,-0.5376,-0.5369,-0.5369,-0.5432,-0.5428,-0.5428,-0.5428,-0.5428,-0.5369,-0.5369,-0.5372,-0.5376,-0.5379,-0.5379,-0.5386,-0.477,-0.4023,0.0,0.0,0.0,0.0,0.0,0.0,0.0,0.0,0.0,0.0,0.0,0.0,0.0,0.0,-0.3011,-0.3897,0.0,-0.3754,-0.2817,-0.2679,-0.3015,-0.3899,-0.4855,-0.4378,-0.1678,-0.2956,-0.372,-0.2949,-0.2054,-0.1522,-0.1568,-0.1571,-0.2456,-0.4607,-0.5747,-0.5352,-0.3228,-0.2254,-0.1809,-0.1833,-0.3879,-0.5575,-0.6901,-0.5882,-0.5317,-0.5199,-0.6306,-0.6729,-0.6712,-0.6712,-0.6705,-0.6695,-0.6617,-0.6542,-0.6474,-0.6396,-0.6274,-0.6135,-0.6061,-0.603,-0.603,0.0,0.0,0.0,0.0,0.0,0.0,0.0,0.0,0.0,0.0,0.0,-0.3366,-0.3561,-0.3581,-0.3592,0.0,0.0,0.0,0.0,-0.4423,-0.4433,-0.4515,-0.4519,-0.4519,-0.4519,-0.4731,-0.4958,-0.5125,-0.4344,-0.3727,-0.3282,-0.47,-0.5376,-0.5376,-0.5432,-0.5428,-0.5428,-0.5428,-0.5428,-0.5428,-0.5428,-0.5428,-0.5428,-0.5428,-0.5428,-0.5428,-0.5428,-0.5428,-0.5428,-0.5428,-0.5428,-0.5428,-0.5372,-0.5376,-0.5376,-0.5386,-0.5389,0.0,0.0,0.0,0.0,0.0,0.0,0.0,0.0,-0.5369,-0.5376,-0.5379,-0.5372,-0.496,-0.3482,-0.4428,-0.5382,-0.5389,-0.4161,-0.3213,-0.3213,-0.4523,-0.4882,-0.3444,-0.3307,-0.3966,-0.5654,-0.4515,-0.3701,-0.373,-0.3737,-0.3704,-0.372,-0.5369,-0.6374,-0.6332,-0.4924,-0.4241,-0.4245,-0.4238,-0.505,-0.679,-0.6961,-0.6965,-0.6888,-0.6888,-0.6797,-0.6787,-0.6787,-0.677,-0.6746,-0.6746,-0.6725,-0.6702,-0.6702,-0.6556,-0.6346,-0.6346,-0.6346,-0.6346,0.0,0.0,0.0,0.0,0.0,0.0,0.0,0.0,0.0,0.0,0.0,0.0,0.0,0.0,0.0,0.0,0.0,0.0,-0.42,-0.4217,-0.4328,-0.4512,-0.4519,-0.4519,-0.4519,-0.4629,-0.4852,-0.5125,-0.5161,-0.5178,-0.5106,-0.5309,-0.5372,-0.5428,-0.5428,-0.5428,-0.5428,-0.5428,-0.5428,-0.5428,-0.5428,-0.5428,-0.5428,-0.5428,-0.5428,-0.5428,-0.5428,-0.5428,-0.5428,-0.5428,-0.5428,-0.5428,-0.5428,-0.5428,-0.5428,-0.5432,0.0,-0.5432,-0.5432,-0.5432,-0.5428,-0.5428,-0.5428,-0.5432,0.0,-0.5428,-0.5432,-0.5376,-0.5376,-0.5309,-0.5106,-0.5243,-0.5379,-0.5379,-0.5243,-0.5106,-0.5106,-0.5426,-0.5579,-0.5287,-0.5293,-0.5504,-0.5738,-0.5734,-0.5722,-0.5966,-0.5979,-0.5957,-0.5931,-0.6304,-0.6548,-0.6565,-0.6368,-0.645,-0.6725,-0.6552,-0.6619,-0.7015,-0.7001,-0.6973,-0.7092,-0.7092,-0.7092,-0.7092,-0.7092,-0.7017,-0.6902,-0.6902,-0.6824,-0.6702,-0.6702,-0.6681,-0.6651,-0.6651,-0.6651,-0.6651,0.0,0.0,0.0,0.0,0.0,0.0,0.0,0.0,0.0,0.0,0.0,0.0,0.0,0.0,0.0,0.0,0.0,0.0,-0.405,-0.4147,-0.422,-0.4334,-0.4419,-0.4519,-0.4519,-0.4613,-0.4783,-0.4855,-0.5088,-0.5236,-0.5237,-0.5325,-0.5432,-0.5428,-0.5428,-0.5428,-0.5428,-0.5428,-0.5428,-0.5428,-0.5428,-0.5428,-0.5428,-0.5428,-0.5428,-0.5428,-0.5428,-0.5428,0.0,0.0,-0.5428,-0.5428,-0.5428,-0.5428,-0.5428,-0.5428,-0.5428,0.0,-0.5428,-0.5428,-0.5428,-0.5428,-0.5428,-0.5428,-0.5428,-0.5428,-0.5428,-0.5369,-0.5369,-0.5369,-0.5369,-0.5369,-0.5369,-0.5369,-0.5443,-0.5501,-0.5501,-0.563,-0.5752,-0.5837,-0.585,-0.5881,-0.5949,-0.5949,-0.6084,-0.6252,-0.6266,-0.6325,-0.6383,-0.6534,-0.661,-0.6617,-0.6763,-0.6848,-0.6943,-0.7015,-0.6997,-0.7061,-0.7054,-0.7082,-0.7139,-0.7139,-0.7139,-0.7139,-0.7139,-0.7105,-0.7051,-0.7051,-0.7014,-0.6956,-0.6956,-0.6956,-0.6936,-0.6763,-0.6702,-0.6702,0.0,0.0,0.0,0.0,0.0,0.0,0.0,0.0,0.0,0.0,0.0,0.0,0.0,0.0,0.0,0.0,0.0,0.0,0.0,-0.405,-0.4153,-0.4194,-0.4385,0.0,-0.4519,-0.4572,-0.465,-0.4691,-0.4904,-0.505,-0.5131,-0.5247,-0.5321,-0.5428,-0.5428,-0.5428,-0.5428,-0.5428,-0.5428,-0.5428,-0.5428,-0.5428,-0.5428,-0.5428,-0.5428,-0.5428,-0.5428,-0.5428,0.0,0.0,-0.5428,-0.5428,-0.5428,-0.5428,-0.5428,-0.5428,-0.5428,-0.5428,-0.5428,-0.5428,-0.5428,-0.5428,-0.5428,-0.5428,-0.5428,-0.5428,-0.5428,-0.5428,-0.5428,-0.5428,-0.5428,-0.5428,-0.5442,-0.5416,-0.5518,-0.5603,-0.5644,-0.5772,-0.5905,-0.6017,-0.6067,-0.6095,-0.6095,-0.6095,-0.6139,-0.6251,-0.6298,-0.6366,-0.6468,-0.6552,-0.6651,-0.6759,-0.6909,-0.6987,-0.6987,-0.7088,-0.7139,-0.7139,-0.7139,-0.7139,-0.7139,-0.7139,-0.7139,-0.7139,-0.7139,-0.7139,-0.7139,-0.7139,-0.7139,-0.7139,-0.7139,-0.7139,-0.7112,-0.6902,-0.682,-0.682,0.0,0.0,0.0,0.0,0.0,0.0,0.0,0.0,0.0,0.0,0.0,0.0,0.0,0.0,0.0,0.0,0.0,0.0,0.0,-0.3941,-0.4043,-0.4187,-0.4385,-0.4519,-0.4519,-0.4522,-0.4597,-0.4691,-0.4701,-0.485,-0.5131,-0.5135,-0.5216,-0.5428,-0.5428,-0.5428,-0.5428,-0.5428,-0.5428,-0.5428,-0.5428,-0.5428,-0.5428,-0.5428,-0.5428,-0.5428,-0.5428,0.0,0.0,0.0,-0.5428,-0.5428,-0.5428,-0.5428,0.0,-0.5428,-0.5428,-0.5428,-0.5428,-0.5428,-0.5428,-0.5428,-0.5428,-0.5428,-0.5428,-0.5428,-0.5428,-0.5428,-0.5428,-0.5428,-0.5428,-0.5428,-0.541,-0.5559,-0.5586,-0.5637,-0.5776,-0.5925,-0.6023,-0.603,-0.6162,-0.6254,-0.6254,-0.6254,-0.6254,-0.6338,-0.6386,-0.6468,-0.6471,-0.6753,-0.6915,-0.6922,-0.7058,-0.7132,-0.7132,-0.7139,-0.7139,-0.7139,-0.7139,-0.7139,-0.7139,-0.7139,-0.7139,-0.7139,-0.7139,-0.7139,-0.7139,-0.7139,-0.7139,-0.7139,-0.7139,-0.7139,-0.7139,-0.7129,-0.7126,-0.7126,0.0,0.0,0.0,0.0,0.0,0.0,0.0,0.0,0.0,0.0,0.0,0.0,0.0,0.0,0.0,0.0,0.0,0.0,0.0,-0.3788,-0.3938,-0.404,-0.4239,-0.4365,-0.4515,-0.4519,-0.4543,-0.4538,-0.4643,-0.4741,-0.484,-0.4942,-0.507,-0.5209,-0.5209,-0.5267,-0.5428,-0.5428,-0.5428,-0.5428,-0.5428,-0.5428,-0.5428,-0.5428,-0.5428,-0.5428,0.0,0.0,0.0,-0.5428,-0.5428,-0.5428,-0.5428,-0.5428,-0.5428,-0.5428,-0.5428,-0.5428,-0.5428,-0.5428,-0.5428,-0.5428,-0.5428,-0.5428,-0.5428,-0.5428,-0.5428,-0.5428,-0.5443,-0.5511,-0.5511,-0.5511,-0.5559,-0.5705,-0.5732,-0.5783,-0.5932,-0.6084,-0.6183,-0.6183,-0.623,-0.6338,-0.6338,-0.6338,-0.6298,-0.6393,-0.6444,-0.6559,-0.6763,-0.6871,-0.697,-0.7065,-0.7115,-0.7139,-0.7139,-0.7139,-0.7139,-0.7139,-0.7139,-0.7139,-0.7139,-0.7139,-0.7139,-0.7139,-0.7139,-0.7139,-0.7139,-0.7139,-0.7139,-0.7139,-0.7139,-0.7139,-0.7139,-0.7139,-0.7139,-0.7139,0.0,0.0,0.0,0.0,0.0,0.0,0.0,0.0,0.0,0.0,0.0,0.0,0.0,0.0,0.0,0.0,0.0,0.0,0.0,0.0,-0.3836,-0.3934,-0.4086,-0.4237,-0.4385,-0.4491,-0.4519,-0.4519,-0.4562,-0.4636,-0.4694,-0.4792,-0.4914,-0.5057,-0.5108,-0.5186,-0.5284,-0.5338,-0.5428,-0.5428,-0.5428,-0.5428,-0.5428,-0.5428,-0.5428,0.0,0.0,0.0,0.0,-0.5428,-0.5428,-0.5428,-0.5428,-0.5428,-0.5428,-0.5428,-0.5428,-0.5428,-0.5428,-0.5428,-0.5428,-0.5428,-0.5428,-0.5428,-0.5428,-0.5428,-0.5428,-0.5428,-0.5484,-0.5589,-0.5589,-0.5589,-0.5654,-0.585,-0.5837,-0.5874,-0.6084,-0.62,-0.6338,-0.6338,-0.6338,-0.6338,-0.6338,-0.6305,-0.6373,-0.6464,-0.6522,-0.6664,-0.6915,-0.6976,-0.7048,-0.7136,-0.7139,-0.7139,-0.7139,-0.7139,-0.7139,-0.7139,-0.7139,-0.7139,-0.7139,-0.7139,-0.7139,-0.7139,-0.7139,-0.7139,-0.7139,-0.7139,-0.7312,-0.7753,-0.7753,-0.8013,-0.8356,-0.8356,-0.8356,-0.8273,0.0,0.0,0.0,0.0,0.0,0.0,0.0,0.0,0.0,0.0,0.0,0.0,0.0,0.0,0.0,0.0,0.0,0.0,0.0,0.0,0.0,-0.3792,-0.407,-0.418,-0.4197,-0.4382,-0.4512,-0.4519,-0.4519,-0.4591,-0.4677,-0.4677,-0.4762,-0.4914,-0.5047,-0.5111,-0.5131,-0.5284,-0.5415,-0.5418,-0.5425,-0.5428,-0.5428,-0.5428,0.0,0.0,0.0,0.0,0.0,-0.5428,-0.5428,-0.5428,-0.5428,-0.5428,-0.5428,-0.5428,-0.5428,-0.5428,-0.5428,-0.5428,-0.5428,-0.5428,-0.5428,-0.5428,-0.5428,-0.5428,-0.5428,-0.5428,-0.5491,-0.5599,-0.5599,-0.5599,-0.5698,-0.5993,-0.5908,-0.5908,-0.6217,-0.6338,-0.6338,-0.6338,-0.6338,-0.6338,-0.6338,-0.639,-0.6474,-0.6481,-0.6624,-0.678,-0.6932,-0.7068,-0.7139,-0.7139,-0.7139,-0.7139,-0.7139,-0.7139,-0.7139,-0.7139,-0.7139,-0.7139,-0.7139,-0.7139,-0.7139,-0.7228,-0.7228,-0.7228,-0.7312,-0.7312,-0.7925,-0.8978,-0.8978,-0.9666,-1.0611,-1.0611,-1.0611,-1.0438,0.0,0.0,0.0,0.0,0.0,0.0,0.0,0.0,0.0,0.0,0.0,0.0,0.0,0.0,0.0,0.0,0.0,0.0,0.0,0.0,0.0,0.0,0.0,0.0,0.0,0.0,0.0,0.0,0.0,-0.4536,-0.4577,-0.4577,-0.4602,0.0,-0.4789,-0.4867,-0.4982,-0.5128,-0.5189,-0.5199,0.0,-0.5428,-0.5428,0.0,0.0,0.0,0.0,0.0,0.0,0.0,0.0,-0.5428,-0.5428,-0.5428,-0.5428,-0.5428,-0.5428,-0.5428,-0.5428,-0.5428,-0.5428,-0.5428,-0.5428,-0.5428,-0.5428,-0.5428,-0.5428,-0.5428,-0.5566,-0.5745,-0.5745,-0.5745,-0.5847,-0.6152,-0.5976,-0.5908,-0.6217,-0.6338,-0.6338,-0.6338,-0.6338,-0.6338,-0.6338,-0.639,-0.6519,-0.6634,-0.6783,-0.6936,-0.7078,-0.7122,-0.7139,-0.7139,-0.7139,-0.7139,-0.7139,-0.7139,-0.7139,-0.7139,-0.7139,-0.7139,-0.7139,-0.7139,-0.7577,-0.8452,-0.8452,-0.8882,-0.9744,-0.9744,-0.9918,-1.0183,-1.0183,-1.0351,-1.0611,-1.0611,-1.0611,-1.0697,0.0,0.0,0.0,0.0,0.0,0.0,0.0,0.0,0.0,0.0,0.0,0.0,0.0,0.0,0.0,0.0,0.0,0.0,0.0,0.0,0.0,0.0,0.0,0.0,0.0,0.0,0.0,0.0,0.0,0.0,0.0,-0.4433,-0.4563,-0.4596,-0.466,-0.4738,-0.4826,0.0,0.0,0.0,0.0,0.0,0.0,0.0,0.0,0.0,0.0,0.0,0.0,0.0,0.0,-0.5428,-0.5428,-0.5428,-0.5428,-0.5428,-0.5428,-0.5428,-0.5428,-0.5428,-0.5428,-0.5428,-0.5428,-0.5428,-0.5428,-0.5428,-0.5428,-0.5428,-0.5545,-0.5728,-0.5789,-0.5749,-0.583,-0.62,-0.6003,-0.5908,-0.6217,-0.6338,-0.6338,-0.6338,-0.6338,-0.6338,-0.6338,-0.639,-0.6536,-0.6688,-0.6844,-0.699,-0.7132,-0.7139,-0.7139,-0.7139,-0.7139,-0.7139,-0.7139,-0.7139,-0.7139,-0.7139,-0.7139,-0.7139,-0.7139,-0.7665,-0.8277,-0.889,-0.9405,-1.0009,-1.0611,-1.0611,-1.0864,-1.1381,-1.1381,-1.1643,-1.2174,-1.2174,-1.2174,-1.2254,0.0,0.0,0.0,0.0,0.0,0.0,0.0,0.0,0.0,0.0,0.0,0.0,0.0,0.0,0.0,0.0,0.0,0.0,0.0,0.0,0.0,0.0,0.0,0.0,0.0,0.0,0.0,0.0,0.0,0.0,0.0,0.0,0.0,0.0,0.0,0.0,0.0,0.0,0.0,0.0,0.0,0.0,0.0,0.0,0.0,0.0,0.0,0.0,0.0,0.0,-0.5428,-0.5428,-0.5428,-0.5428,-0.5428,-0.5428,-0.5428,-0.5428,-0.5428,-0.5428,-0.5428,-0.5428,-0.5428,-0.5428,-0.5428,-0.5428,-0.5428,-0.5428,-0.5484,-0.5627,-0.5749,-0.5674,-0.5725,-0.6132,-0.5976,-0.5901,-0.619,-0.6247,-0.6338,-0.6338,-0.6338,-0.6338,-0.6338,-0.639,-0.6536,-0.6688,-0.6844,-0.699,-0.7132,-0.7139,-0.7139,-0.7139,-0.7139,-0.7139,-0.7139,-0.7139,-0.7139,-0.7316,-0.7316,-0.7401,-0.7573,-0.8623,-0.9235,-0.9405,-1.0438,-1.0956,-1.1042,-1.1042,-1.1643,-1.2504,-1.2504,-1.3203,-1.4088,-1.4088,-1.4088,-1.4088,0.0,0.0,0.0,0.0,0.0,0.0,0.0,0.0,0.0,0.0,-0.2907,-0.2726,0.0,0.0,0.0,0.0,0.0,0.0,0.0,0.0,0.0,0.0,0.0,0.0,0.0,0.0,0.0,0.0,0.0,0.0,0.0,0.0,0.0,0.0,0.0,0.0,0.0,0.0,0.0,0.0,0.0,0.0,0.0,0.0,0.0,0.0,0.0,0.0,0.0,0.0,-0.5428,-0.5428,-0.5428,-0.5428,-0.5428,-0.5428,-0.5428,-0.5428,-0.5428,-0.5428,-0.5428,-0.5428,-0.5428,-0.5428,-0.5428,-0.5428,0.0,-0.5428,-0.5484,-0.5596,-0.5623,-0.5606,-0.5654,-0.585,-0.5837,-0.5864,-0.6044,-0.6179,-0.6338,-0.6338,-0.6338,-0.6338,-0.6338,-0.639,-0.6536,-0.6688,-0.6844,-0.699,-0.7132,-0.7139,-0.7139,-0.7139,-0.7139,-0.7139,-0.7139,-0.7139,-0.7577,-0.8627,-0.8627,-0.9056,-1.0005,-1.0178,-1.0783,-1.1724,-1.1895,-1.2595,-1.3476,-1.3476,-1.3646,-1.3822,-1.3822,-1.3913,-1.4088,-1.4088,-1.4088,-1.4088,0.0,0.0,0.0,0.0,0.0,0.0,0.0,-0.3793,-0.3495,-0.3035,-0.3003,-0.294,-0.2712,-0.2747,0.0,0.0,0.0,0.0,0.0,0.0,0.0,0.0,0.0,0.0,0.0,0.0,-0.3717,-0.3792,0.0,0.0,0.0,-0.404,-0.4209,0.0,0.0,0.0,0.0,0.0,0.0,0.0,0.0,0.0,0.0,0.0,0.0,0.0,0.0,0.0,0.0,0.0,-0.5428,-0.5428,-0.5428,-0.5428,-0.5428,-0.5428,-0.5428,-0.5428,-0.5428,-0.5428,-0.5428,-0.5428,-0.5428,-0.5428,-0.5428,0.0,0.0,-0.5428,-0.542,-0.5494,-0.5576,-0.5525,0.0,-0.5766,-0.5739,-0.5742,-0.5891,-0.6044,-0.6139,-0.6139,-0.621,-0.6338,-0.6338,-0.6322,-0.6458,-0.6681,-0.677,-0.6905,-0.7129,-0.7139,-0.7139,-0.7139,-0.7139,-0.7139,-0.7139,-0.7753,-0.8364,-0.889,-0.9492,-1.0096,-1.0611,-1.1209,-1.1809,-1.2328,-1.2942,-1.3561,-1.4088,-1.4088,-1.4088,-1.4088,-1.4088,-1.4088,-1.4088,-1.4088,-1.4088,-1.4088,0.0,0.0,0.0,0.0,0.0,0.0,0.0,-0.4058,-0.3765,-0.3076,-0.3101,-0.3068,-0.2746,-0.2712,-0.273,0.0,0.0,0.0,0.0,0.0,0.0,0.0,0.0,0.0,0.0,0.0,0.0,-0.3581,-0.369,0.0,0.0,0.0,0.0,0.0,-0.4147,-0.4537,0.0,0.0,0.0,0.0,0.0,-0.6049,0.0,0.0,0.0,0.0,0.0,0.0,0.0,0.0,-0.5428,-0.5428,-0.5428,-0.5428,-0.5428,-0.5428,-0.5428,-0.5428,-0.5428,-0.5428,-0.5428,-0.5428,-0.5428,-0.5428,-0.5428,-0.5428,0.0,-0.5428,-0.5428,-0.5466,-0.5518,-0.5443,-0.5437,0.0,-0.564,-0.563,-0.5739,-0.5884,-0.5993,-0.6027,-0.6135,-0.6224,-0.6257,-0.6338,-0.6369,-0.663,-0.6712,-0.6865,-0.7126,-0.7139,-0.7139,-0.7139,-0.7312,-0.7489,-0.7489,-0.8711,-0.941,-0.9666,-1.0524,-1.1128,-1.1391,-1.2248,-1.2674,-1.2766,-1.373,-1.4088,-1.4088,-1.4088,-1.4088,-1.4088,-1.4088,-1.4088,-1.4088,-1.4088,-1.4088,-1.4088,0.0,0.0,0.0,0.0,0.0,0.0,0.0,-0.4248,-0.3961,-0.3896,-0.3241,-0.2746,-0.2712,-0.2712,-0.2719,0.0,0.0,0.0,0.0,0.0,0.0,0.0,0.0,0.0,0.0,0.0,0.0,-0.3581,-0.3592,0.0,0.0,0.0,0.0,0.0,0.0,-0.4124,-0.4319,0.0,0.0,0.0,0.0,0.0,0.0,0.0,0.0,0.0,0.0,0.0,0.0,0.0,0.0,-0.5428,-0.5428,-0.5428,-0.5428,-0.5428,0.0,0.0,-0.5428,-0.5428,-0.5428,-0.5428,-0.5428,-0.5428,-0.5428,0.0,-0.5428,-0.5428,-0.5428,-0.5432,-0.5446,-0.5435,-0.5435,-0.5463,0.0,-0.5596,-0.5606,-0.5732,-0.5874,-0.6013,-0.604,-0.6105,-0.6247,-0.6338,-0.6325,-0.6481,-0.6753,-0.6976,-0.7132,-0.7139,-0.7139,-0.7139,-0.8189,-0.8715,-0.8715,-0.9836,-1.095,-1.198,-1.2066,-1.2681,-1.3737,-1.3913,-1.3913,-1.3913,-1.4082,-1.4088,-1.4088,-1.4088,-1.4088,-1.4088,-1.4088,-1.4088,-1.4088,-1.4088,-1.4088,-1.4088,0.0,0.0,0.0,0.0,0.0,0.0,-0.3978,-0.4371,-0.4409,-0.3368,-0.3368,-0.3274,-0.2746,-0.2712,-0.2712,0.0,0.0,0.0,0.0,0.0,0.0,0.0,0.0,0.0,0.0,0.0,-0.3581,-0.3581,-0.3581,0.0,0.0,0.0,0.0,0.0,0.0,-0.4206,-0.4766,-0.4821,0.0,0.0,0.0,0.0,0.0,0.0,0.0,0.0,0.0,0.0,-0.5237,0.0,0.0,0.0,-0.5428,-0.5428,0.0,0.0,-0.5428,-0.5428,-0.5428,-0.5428,-0.5428,-0.5428,-0.5428,-0.5428,-0.5428,0.0,-0.5428,-0.5428,-0.5428,-0.5428,-0.5428,-0.5428,-0.5428,0.0,0.0,0.0,-0.5454,-0.5579,-0.5698,-0.5755,-0.5922,-0.6054,-0.6115,-0.6207,-0.6359,-0.659,-0.6807,-0.7246,-0.8093,-0.8189,-0.8536,-0.9222,-0.9662,-0.9923,-0.9923,-1.1042,-1.1809,-1.2328,-1.3033,-1.3646,-1.4088,-1.4088,-1.4088,-1.4088,-1.4088,-1.4088,-1.4088,-1.4088,-1.4088,-1.4088,-1.4088,-1.4088,-1.4088,-1.4088,-1.4088,-1.4088,0.0,0.0,0.0,0.0,0.0,-0.4985,-0.4038,-0.4468,-0.4473,-0.3237,-0.3401,-0.3368,-0.2779,-0.2712,-0.2712,-0.2712,0.0,0.0,0.0,0.0,0.0,0.0,0.0,0.0,0.0,0.0,-0.3581,-0.3581,-0.3581,-0.3581,0.0,0.0,-0.3632,-0.3731,0.0,0.0,0.0,0.0,0.0,0.0,0.0,0.0,0.0,0.0,0.0,0.0,0.0,0.0,0.0,0.0,0.0,0.0,0.0,0.0,0.0,0.0,-0.5428,-0.5428,-0.5428,-0.5428,-0.5428,-0.5428,-0.5428,-0.5428,0.0,0.0,-0.5428,-0.5428,-0.5428,-0.5428,-0.5428,-0.5428,-0.5428,0.0,0.0,-0.5428,-0.5428,-0.5454,-0.5538,-0.5586,-0.581,-0.5979,-0.6023,-0.6169,-0.6366,-0.6614,-0.7104,-0.7936,-0.9307,-0.9716,-1.0096,-1.0611,-1.095,-1.1123,-1.1123,-1.2248,-1.2851,-1.2851,-1.373,-1.4088,-1.4088,-1.4088,-1.4088,-1.4088,-1.4088,-1.4088,-1.4088,-1.4088,-1.4088,-1.4088,-1.4088,-1.4088,-1.4088,-1.4088,-1.4088,-1.4088,0.0,0.0,0.0,0.0,0.0,0.0,-0.5277,-0.457,-0.3993,-0.3993,-0.3237,-0.2716,-0.2712,-0.2712,-0.2712,-0.2712,0.0,0.0,0.0,0.0,0.0,0.0,0.0,0.0,0.0,0.0,-0.3581,-0.3581,-0.3581,-0.3581,-0.3581,-0.3581,-0.3581,-0.3581,0.0,0.0,0.0,0.0,0.0,0.0,0.0,0.0,0.0,0.0,0.0,0.0,0.0,0.0,0.0,0.0,0.0,0.0,0.0,0.0,0.0,0.0,-0.5428,-0.5428,-0.5428,-0.5428,-0.5428,-0.5428,-0.5428,-0.5428,-0.5428,-0.5428,-0.5428,-0.5428,-0.5428,-0.5428,-0.5428,-0.5428,-0.5428,-0.5428,0.0,0.0,-0.5428,-0.5428,-0.542,-0.5572,-0.5718,-0.5864,-0.6017,-0.6169,-0.6322,-0.6464,-0.7655,-0.8977,-1.0345,-1.159,-1.1724,-1.0611,-1.1724,-1.2242,-1.2242,-1.347,-1.4088,-1.4088,-1.4088,-1.4088,-1.4088,-1.4088,-1.4088,-1.4088,-1.4088,-1.4088,-1.4088,-1.4088,-1.4088,-1.4088,-1.4088,-1.4088,-1.4088,-1.4088,-1.4088,-1.4088,0.0,0.0,0.0,0.0,0.0,0.0,0.0,-0.421,-0.4086,-0.3241,-0.3101,-0.3003,-0.2746,-0.2712,-0.2712,-0.2712,0.0,0.0,0.0,0.0,0.0,0.0,0.0,0.0,0.0,0.0,-0.3581,-0.3581,-0.3581,-0.3581,-0.3581,-0.3581,-0.3581,-0.3581,-0.3581,-0.3605,0.0,0.0,0.0,0.0,0.0,0.0,-0.4519,0.0,0.0,0.0,0.0,0.0,0.0,0.0,0.0,0.0,0.0,0.0,0.0,0.0,0.0,0.0,-0.5372,-0.5432,-0.5428,-0.5428,-0.5428,-0.5428,-0.5428,-0.5428,-0.5428,-0.5428,-0.5428,-0.5428,-0.5428,-0.5428,-0.5428,-0.5428,-0.5428,0.0,0.0,-0.5428,-0.5446,-0.543,-0.6271,-0.6857,-0.7036,-0.7819,-0.839,-0.858,-0.8885,-0.9797,-1.1338,-1.1773,-1.2326,-1.2948,-1.33,-1.3555,-1.3555,-1.3906,-1.4088,-1.4088,-1.4088,-1.4088,-1.4088,-1.4088,-1.4088,-1.4088,-1.4088,-1.4088,-1.4088,-1.4088,-1.4088,-1.4088,-1.4088,-1.4088,-1.4088,-1.4088,-1.4088,-1.4088,0.0,0.0,0.0,0.0,0.0,0.0,0.0,-0.3978,-0.3816,-0.3039,-0.3003,-0.2973,-0.2712,-0.2712,-0.2712,-0.2712,0.0,0.0,0.0,0.0,0.0,0.0,0.0,0.0,0.0,-0.3412,-0.352,-0.3581,-0.3581,-0.3581,-0.3581,-0.3581,-0.3581,-0.3581,-0.3581,-0.3581,0.0,0.0,0.0,0.0,0.0,0.0,-0.4477,0.0,0.0,0.0,0.0,0.0,0.0,0.0,0.0,0.0,0.0,0.0,0.0,0.0,-0.4916,-0.4556,0.0,-0.5372,-0.5432,-0.5428,-0.5428,0.0,-0.5428,-0.5428,-0.5428,-0.5428,-0.5428,-0.5428,-0.5428,-0.5428,-0.5428,-0.5428,-0.5428,-0.5428,-0.5428,-0.5428,-0.5512,-0.59,-0.6696,-0.7349,-0.7901,-0.8635,-0.918,-0.9396,-0.988,-1.0611,-1.1566,-1.2089,-1.2807,-1.3748,-1.3968,-1.4088,-1.4088,-1.4088,-1.4088,-1.4088,-1.4088,-1.4088,-1.4088,-1.4088,-1.4088,-1.4088,-1.4088,-1.4088,0.0,-1.4088,-1.4088,-1.4088,-1.4088,-1.4088,-1.4088,-1.4088,-1.4088,-1.4088,0.0,0.0,0.0,0.0,0.0,0.0,0.0,0.0,-0.3323,-0.329,-0.294,-0.2712,-0.2712,-0.2712,-0.2712,-0.2712,0.0,0.0,0.0,0.0,0.0,0.0,0.0,0.0,0.0,-0.3232,-0.3425,-0.3581,-0.3581,-0.3581,-0.3581,-0.3581,-0.3581,-0.3581,-0.3581,-0.3581,-0.3598,-0.3797,-0.3933,-0.4026,-0.4254,-0.4314,0.0,0.0,0.0,0.0,0.0,0.0,0.0,0.0,0.0,0.0,0.0,0.0,0.0,0.0,0.0,0.0,0.0,-0.5309,-0.5376,-0.5432,-0.5428,-0.5428,-0.5428,-0.5428,0.0,-0.5428,-0.5428,-0.5428,-0.5428,-0.5428,-0.5428,-0.5428,-0.5428,-0.5428,-0.5428,-0.5425,-0.5807,-0.6763,-0.6997,-0.7559,-0.8804,-0.9005,-0.9186,-0.9502,-1.0642,-1.1325,-1.1349,-1.2465,-1.3186,-1.3213,-1.3741,-1.4035,-1.4055,-1.4075,-1.4088,-1.4088,-1.4088,-1.4088,-1.4088,-1.4088,-1.4088,-1.4088,-1.4088,-1.4088,-1.4088,-1.4088,-1.4088,-1.4088,-1.4088,-1.4088,-1.4088,-1.4088,-1.4088,-1.4088,0.0,0.0,0.0,0.0,0.0,0.0,0.0,0.0,0.0,0.0,-0.294,-0.2712,-0.2712,-0.2712,-0.2712,0.0,0.0,0.0,0.0,0.0,0.0,0.0,0.0,0.0,0.0,-0.3368,-0.3567,-0.3581,-0.3581,-0.3581,-0.3581,-0.3581,-0.3581,-0.3581,-0.3581,-0.3581,-0.3592,-0.3828,-0.3931,-0.3852,-0.3064,-0.2728,0.0,0.0,0.0,0.0,-0.2736,-0.3493,0.0,0.0,0.0,0.0,0.0,0.0,0.0,0.0,-0.1956,-0.2762,-0.3218,0.0,-0.5379,-0.5376,-0.5369,-0.5428,0.0,-0.5428,-0.5428,-0.5428,0.0,-0.5428,-0.5428,-0.5428,-0.5428,-0.5428,-0.5428,-0.5428,-0.5428,-0.5943,-0.6478,-0.6717,-0.8122,-0.9225,-0.9735,-1.0651,-1.1323,-1.1601,-1.1838,-1.2123,-1.242,-1.2736,-1.2966,-1.32,-1.3347,-1.352,-1.3748,-1.3975,-1.4088,-1.4088,-1.4088,-1.4088,-1.4088,-1.4088,-1.4088,-1.4088,-1.4088,-1.4088,-1.4088,-1.4088,-1.4088,-1.4088,-1.4088,-1.4088,-1.4088,-1.4088,-1.4088,-1.4088,0.0,0.0,0.0,0.0,0.0,0.0,0.0,0.0,0.0,0.0,0.0,0.0,0.0,0.0,0.0,0.0,0.0,0.0,0.0,0.0,0.0,0.0,0.0,-0.2658,-0.2226,-0.2452,-0.2605,-0.2771,-0.3309,-0.3585,-0.3588,-0.3581,-0.3581,-0.3581,-0.3581,-0.3581,-0.3592,-0.3698,-0.3112,-0.2069,-0.1464,0.0,0.0,0.0,0.0,0.0,-0.1174,-0.1699,0.0,-0.2463,-0.1338,-0.0,0.0,0.0,0.0,0.0,-0.1887,-0.3917,-0.3971,-0.4028,-0.4359,-0.5169,-0.5432,-0.5428,-0.5428,0.0,0.0,0.0,0.0,0.0,-0.5428,-0.5428,-0.5428,-0.5428,-0.5428,-0.5428,-0.5428,-0.6137,-0.685,-0.7242,-0.8597,-0.9778,-1.0448,-1.1214,-1.1784,-1.2084,-1.2225,-1.2371,-1.2532,-1.2545,-1.2619,-1.2786,-1.2926,-1.314,-1.344,-1.3607,-1.3687,-1.3687,-1.3687,-1.3687,-1.3687,-1.3687,-1.3754,-1.3881,-1.3881,-1.3961,-1.4088,-1.4088,-1.4088,-1.4088,-1.4088,-1.4088,-1.4166,-1.465,-1.4489,-1.425,0.0,0.0,0.0,0.0,0.0,0.0,0.0,0.0,0.0,0.0,0.0,0.0,0.0,0.0,0.0,0.0,0.0,0.0,0.0,0.0,0.0,0.0,0.0,-0.2337,-0.1524,-0.1252,-0.1229,-0.1517,-0.2907,-0.3588,-0.3598,-0.3404,-0.3445,-0.3585,-0.3585,-0.3585,-0.3592,-0.3579,-0.2418,-0.0505,-0.0156,0.0,0.0,0.0,0.0,0.0,0.0,0.0,0.0,-0.0,-0.0,-0.0,-0.0,0.0,0.0,0.0,0.0,0.0,-0.541,-0.4306,-0.3482,-0.5027,-0.5428,-0.5428,-0.5428,0.0,0.0,0.0,0.0,0.0,0.0,-0.5428,-0.5428,-0.5428,-0.5491,-0.5624,-0.5624,-0.6465,-0.7372,-0.8091,-0.8941,-0.9891,-1.0896,-1.1216,-1.1503,-1.1844,-1.2098,-1.2258,-1.2298,-1.2305,-1.2305,-1.2305,-1.2545,-1.2806,-1.3066,-1.316,-1.3213,-1.3213,-1.3213,-1.3213,-1.3213,-1.3213,-1.3347,-1.3581,-1.3581,-1.3721,-1.3955,-1.3955,-1.3955,-1.3955,-1.3955,-1.3981,-1.4099,-1.5065,-1.4935,-1.4573,0.0,0.0,0.0,0.0,0.0,0.0,0.0,0.0,0.0,0.0,0.0,0.0,0.0,0.0,0.0,0.0,0.0,0.0,0.0,0.0,0.0,0.0,-0.2264,-0.2634,-0.247,-0.0981,-0.0205,-0.0268,-0.2514,-0.3605,-0.3595,-0.2549,-0.2637,-0.3595,-0.3595,-0.3595,-0.3598,-0.3584,-0.3375,-0.2888,-0.0812,0.0,0.0,0.0,0.0,0.0,0.0,0.0,0.0,-0.0,-0.0,-0.0,-0.0,0.0,0.0,0.0,0.0,0.0,-0.5399,-0.5186,-0.5036,-0.5309,-0.5369,-0.5428,-0.5428,0.0,0.0,0.0,0.0,0.0,0.0,-0.5428,-0.5428,-0.5428,-0.6009,-0.6527,-0.6527,-0.7897,-0.8941,-0.9075,-0.9849,-1.0547,-1.0969,-1.1035,-1.1283,-1.183,-1.1911,-1.2044,-1.2285,-1.2305,-1.2305,-1.2305,-1.2345,-1.2392,-1.2438,-1.2953,-1.3213,-1.3213,-1.3213,-1.3213,-1.3213,-1.3213,-1.3233,-1.3273,-1.3273,-1.33,-1.3347,-1.3347,-1.3347,-1.3347,-1.3347,-1.3494,-1.3707,-1.3865,-1.4585,-1.5538,0.0,0.0,0.0,0.0,0.0,0.0,0.0,0.0,0.0,0.0,0.0,0.0,0.0,0.0,0.0,0.0,0.0,0.0,0.0,0.0,0.0,-0.0605,-0.1009,-0.124,-0.1253,-0.0432,-0.0,-0.0,-0.112,-0.1975,-0.261,-0.1386,-0.1474,-0.264,-0.264,-0.264,-0.264,-0.2645,-0.3017,-0.3503,0.0,0.0,0.0,0.0,0.0,0.0,0.0,0.0,0.0,0.0,-0.0,-0.0,-0.0,0.0,0.0,0.0,0.0,0.0,-0.5122,-0.5382,-0.5369,-0.5369,-0.5432,-0.5428,-0.5428,-0.5428,0.0,0.0,0.0,0.0,0.0,-0.5815,-0.6272,-0.6728,-0.7116,-0.7372,-0.7372,-0.8484,-0.9274,-0.9274,-1.0047,-1.0678,-1.0748,-1.0902,-1.1109,-1.1376,-1.1543,-1.1757,-1.2051,-1.2064,-1.2138,-1.2298,-1.2305,-1.2305,-1.2305,-1.2579,-1.2719,-1.2719,-1.2719,-1.2719,-1.2719,-1.2719,-1.2806,-1.2959,-1.2959,-1.3053,-1.3213,-1.3213,-1.3213,-1.3213,-1.3213,-1.3293,-1.3407,-1.3407,-1.4902,-1.6669,0.0,0.0,0.0,0.0,0.0,0.0,0.0,0.0,0.0,0.0,0.0,0.0,0.0,0.0,0.0,0.0,0.0,0.0,0.0,0.0,-0.0,-0.0,-0.0,-0.0,-0.0,-0.0,-0.0,-0.0,-0.0,-0.0493,-0.135,-0.0448,-0.0492,-0.1385,-0.1385,-0.1385,-0.1386,-0.1399,-0.1895,-0.2736,0.0,0.0,0.0,0.0,0.0,0.0,0.0,0.0,0.0,0.0,0.0,0.0,0.0,0.0,0.0,-0.0,-0.1313,-0.3082,-0.4916,-0.5379,-0.5428,-0.5428,-0.5428,-0.5428,-0.5428,-0.5428,0.0,0.0,0.0,0.0,0.0,-0.6141,-0.6981,-0.7827,-0.8156,-0.8291,-0.8291,-0.9069,-0.9594,-0.9594,-1.0174,-1.0624,-1.0624,-1.0762,-1.0922,-1.0989,-1.1196,-1.1456,-1.175,-1.1764,-1.1864,-1.2091,-1.2164,-1.2204,-1.2204,-1.2271,-1.2305,-1.2305,-1.2305,-1.2305,-1.2305,-1.2305,-1.2425,-1.2721,-1.2721,-1.2779,-1.2999,-1.2999,-1.2999,-1.2999,-1.3226,-1.3345,-1.342,-1.3567,-1.4964,-1.6489,0.0,0.0,0.0,0.0,0.0,0.0,0.0,0.0,0.0,0.0,0.0,0.0,0.0,0.0,0.0,0.0,0.0,0.0,0.0,0.0,-0.0,-0.0,-0.0,-0.0,-0.0,-0.0,-0.0,-0.0,-0.0,-0.0045,-0.0135,-0.0045,-0.0045,-0.0135,-0.0135,-0.0135,-0.0135,-0.014,-0.0195,-0.0253,-0.0262,0.0,0.0,0.0,0.0,0.0,0.0,0.0,0.0,0.0,0.0,0.0,0.0,0.0,-0.0,-0.0,-0.1313,-0.3082,-0.4916,-0.5379,-0.5428,-0.5428,-0.5428,-0.5428,-0.5428,-0.5428,0.0,-0.5428,0.0,0.0,-0.5557,-0.6141,-0.6981,-0.7827,-0.8678,-0.9204,-0.9204,-0.9977,-1.0498,-1.0498,-1.0561,-1.0624,-1.0624,-1.0645,-1.0701,-1.0969,-1.1009,-1.1149,-1.1443,-1.1456,-1.1463,-1.149,-1.1757,-1.1904,-1.1904,-1.2171,-1.2305,-1.2305,-1.2305,-1.2305,-1.2305,-1.2305,-1.2311,-1.2338,-1.2338,-1.2345,-1.2365,-1.2365,-1.2365,-1.2439,-1.3309,-1.3859,-1.4162,-1.4535,-1.4194,-1.3673,0.0,0.0,0.0,0.0,0.0,0.0,0.0,0.0,0.0,0.0,0.0,0.0,0.0,0.0,0.0,0.0,0.0,0.0,0.0,0.0,-0.0,-0.0,-0.0,-0.0,-0.0,-0.0,-0.0,-0.0,-0.0,-0.0,-0.0,-0.0,-0.0,-0.0,-0.0,-0.0,-0.0,-0.0,-0.0,-0.0,-0.0,-0.0,0.0,0.0,0.0,0.0,0.0,0.0,0.0,0.0,-0.0,-0.0,0.0,-0.0,-0.0433,-0.2695,-0.3049,-0.308,-0.4906,-0.5372,-0.5428,-0.5428,-0.5428,0.0,0.0,-0.5428,-0.5428,-0.5428,-0.6075,-0.6915,-0.7707,-0.8096,-0.8613,-0.9454,-0.9913,-1.011,-1.011,-1.0364,-1.0624,-1.0624,-1.0624,-1.0624,-1.0624,-1.0624,-1.0672,-1.0715,-1.1213,-1.141,-1.1142,-1.1602,-1.1752,-1.1423,-1.2081,-1.2144,-1.159,-1.2727,-1.3063,-1.2529,-1.2415,-1.2305,-1.2305,-1.2305,-1.2305,-1.2305,-1.2305,-1.2305,-1.2305,-1.2305,-1.2659,-1.3237,-1.4243,-1.5103,-1.5665,-1.5227,-1.5129,-1.5276,0.0,0.0,0.0,0.0,0.0,0.0,0.0,0.0,0.0,0.0,0.0,0.0,0.0,0.0,0.0,0.0,0.0,0.0,-0.0034,-0.0,-0.0,-0.0,-0.0,0.0373,0.1139,0.1117,0.0751,-0.0,-0.0,-0.0,-0.0,-0.0,-0.0,-0.0,-0.0,-0.0,-0.0,-0.0,-0.0,-0.0,-0.0,-0.0,0.0,0.0,0.0,0.0,0.0,0.0,0.0,0.0,-0.0,0.0,0.0,0.0,0.0,0.0,-0.4516,-0.3823,-0.504,-0.5369,-0.5491,-0.5749,0.0,0.0,-0.6145,-0.6013,-0.5881,-0.6145,-0.6724,-0.7632,-0.9396,-0.9466,-0.9594,-1.0428,-1.0624,-1.0624,-1.0624,-1.0624,-1.0624,-1.0624,-1.0624,-1.0624,-1.0624,-1.0624,-1.0624,-1.0624,-1.1351,-1.1626,-1.1281,-1.2045,-1.227,-1.1926,-1.2564,-1.2609,-1.2009,-1.324,-1.3627,-1.305,-1.2873,-1.2799,-1.2799,-1.269,-1.2732,-1.3021,-1.3121,-1.3237,-1.3237,-1.3237,-1.3803,-1.4657,-1.5021,-1.579,-1.6498,-1.5517,-1.5587,-1.6079,0.0,0.0,0.0,0.0,0.0,0.0,0.0,0.0,0.0,0.0,0.0,0.0,0.0,0.0,0.0,0.0,0.0,0.0,-0.0101,-0.0,-0.0,-0.0,-0.0,0.1122,0.3535,0.3581,0.2423,0.0045,0.0045,0.0045,-0.0,-0.0,-0.0,-0.0,-0.0,-0.0,-0.0,-0.0,-0.0,-0.0,-0.0,-0.0,-0.0,0.0,0.0,0.0,0.0,0.0,0.0,0.0,-0.0,0.0,0.0,0.0,0.0,0.0,-0.5371,-0.5389,-0.5379,-0.5435,-0.562,0.0,0.0,0.0,-0.7827,-0.7307,-0.6981,-0.7832,-0.8027,-0.8544,-1.0301,-0.9919,-0.9594,-1.0428,-1.0624,-1.0624,-1.0624,-1.0624,-1.0624,-1.0624,-1.0624,-1.0624,-1.0624,-1.0624,-1.0624,-1.0624,-1.1351,-1.1834,-1.1834,-1.2573,-1.3009,-1.3009,-1.3293,-1.3402,-1.341,-1.3762,-1.3884,-1.3876,-1.3876,-1.3884,-1.39,-1.3515,-1.3731,-1.4498,-1.4998,-1.5226,-1.5226,-1.5226,-1.5781,-1.6489,-1.5579,-1.579,-1.6489,-1.5579,-1.5234,-1.5234,0.0,0.0,0.0,0.0,0.0,0.0,0.0,0.0,0.0,0.0,0.0,0.0,0.0,0.0,0.0,0.0,0.0,0.0,-0.0034,-0.0,-0.0,-0.0,-0.0,0.1123,0.3566,0.3591,0.3255,0.2521,0.2521,0.1661,-0.0,-0.0,-0.0,-0.0,-0.0,-0.0,-0.0,-0.0,-0.0,-0.0,-0.0,-0.0,-0.0,0.0,0.0,0.0,0.0,0.0,0.0,0.0,0.0,0.0,0.0,0.0,0.0,-0.4796,-0.5206,-0.524,-0.5338,-0.5818,0.0,-0.6654,0.0,0.0,0.0,-0.8221,0.0,0.0,-0.8941,-0.9268,-1.0364,-1.0371,-1.0301,-1.0561,-1.0624,-1.0624,-1.0624,-1.0624,-1.0624,-1.0624,-1.0624,-1.0624,-1.0624,-1.0624,-1.0624,-1.0624,-1.1351,-1.1834,-1.1834,-1.2573,-1.3009,-1.3009,-1.3657,-1.3709,-1.3104,-1.431,-1.4678,-1.4127,-1.4127,-1.403,-1.3892,-1.3806,-1.3846,-1.4122,-1.4228,-1.4269,-1.4344,-1.5007,-1.5407,-1.5764,-1.6474,-1.6939,-1.7178,-1.7192,-1.7157,-1.7157,0.0,0.0,0.0,0.0,0.0,0.0,0.0,0.0,0.0,0.0,0.0,0.0,0.0,0.0,0.0,0.0,0.0,0.0,0.0,-0.0,-0.0,-0.0,0.0932,0.2127,0.3558,0.2677,0.2658,0.3615,0.3615,0.2837,0.1389,0.0447,-0.0,-0.0,-0.0,-0.0,-0.0,-0.0,-0.0,-0.0,-0.0,-0.0,-0.0,0.0,0.0,0.0,0.0,0.0,0.0,0.0,0.0,0.0,0.0,0.0,0.0,-0.4961,-0.5414,-0.5818,-0.5905,-0.6527,0.0,-0.7632,-0.8156,-0.8742,-0.9588,0.0,0.0,-0.9722,-0.9786,-0.9977,-1.0498,-1.0624,-1.0624,-1.0624,-1.0624,-1.0624,-1.0624,-1.0624,-1.0624,-1.0624,-1.0624,-1.0624,-1.0624,-1.0624,-1.0624,-1.0624,-1.1351,-1.1958,-1.2266,-1.3061,-1.3606,-1.3965,-1.4451,-1.4451,-1.3965,-1.4932,-1.5167,-1.4688,-1.4688,-1.4578,-1.4486,-1.438,-1.4448,-1.4778,-1.4936,-1.5006,-1.508,-1.5597,-1.5863,-1.5946,-1.6809,-1.7119,-1.7158,-1.7402,-1.75,-1.75,0.0,0.0,0.0,0.0,0.0,0.0,0.0,0.0,0.0,0.0,0.0,0.0,0.0,0.0,0.0,0.0,0.0,0.0,0.0,0.0,-0.0,-0.0,0.2109,0.3372,0.3581,0.144,0.1303,0.3293,0.3478,0.3615,0.3567,0.1344,0.0224,-0.0,-0.0,-0.0,-0.0,-0.0,-0.0,-0.0,-0.0,-0.0,-0.0,-0.0,0.0,0.0,0.0,0.0,0.0,0.0,0.0,0.0,0.0,0.0,-0.4556,-0.4951,-0.5898,-0.675,-0.6737,0.0,0.0,-0.9075,-0.9338,0.0,-1.0434,-1.0624,-1.0624,-1.0624,-1.0624,-1.0624,-1.0624,-1.0624,-1.0624,-1.0624,-1.0624,-1.0624,-1.0681,-1.0681,-1.0744,-1.0807,-1.0807,-1.0807,-1.0807,-1.0807,-1.0807,-1.0807,-1.1469,-1.2266,-1.307,-1.3786,-1.4569,-1.5352,-1.541,-1.541,-1.541,-1.541,-1.541,-1.541,-1.541,-1.541,-1.5371,-1.5079,-1.5317,-1.6086,-1.6436,-1.6548,-1.6548,-1.6548,-1.6548,-1.6621,-1.665,-1.667,-1.668,-1.6719,-1.6665,-1.6665,0.0,0.0,0.0,0.0,0.0,0.0,0.0,0.0,0.0,0.0,0.0,0.0,0.0,0.0,0.0,0.0,0.0,0.0,0.0,0.0,-0.0,-0.0,0.0512,0.166,0.3536,0.3072,0.2156,0.076,0.2652,0.3615,0.3571,0.3063,0.1798,-0.0,-0.0,-0.0,-0.0,-0.0,-0.0,-0.0,-0.0,-0.0,-0.0,-0.0,-0.0,0.0,0.0,0.0,0.0,0.0,0.0,0.0,-0.4144,-0.4507,-0.4582,-0.4847,-0.5605,-0.6362,-0.663,-0.7832,0.0,0.0,-0.9786,-1.0364,-1.0561,-1.0624,-1.0624,-1.0624,-1.0624,-1.0624,-1.0624,-1.0624,-1.0624,-1.0624,-1.0624,-1.0807,-1.1469,-1.1531,-1.1779,-1.2397,-1.2458,-1.2458,-1.2458,-1.2458,-1.2458,-1.2458,-1.2642,-1.3061,-1.3906,-1.4094,-1.4569,-1.5352,-1.541,-1.541,-1.541,-1.541,-1.541,-1.541,-1.541,-1.541,-1.542,-1.5322,-1.537,-1.5557,-1.5654,-1.5693,-1.5693,-1.5693,-1.5693,-1.5732,-1.6074,-1.6211,-1.625,-1.6602,-1.6665,-1.6665,0.0,0.0,0.0,0.0,0.0,0.0,0.0,0.0,0.0,0.0,0.0,0.0,0.0,0.0,0.0,0.0,0.0,0.0,0.0,0.0,-0.0,-0.0,-0.0,0.0601,0.1846,0.3027,0.2431,-0.0,0.1257,0.2476,0.0,0.3615,0.1705,-0.1668,-0.0526,-0.0,-0.0,-0.0,-0.0,-0.0,-0.0,-0.0,-0.0168,-0.1625,-0.2132,-0.2244,-0.3084,0.0,0.0,0.0,0.0,0.0,0.0,0.0,-0.4531,-0.483,-0.5812,-0.6913,-0.726,0.0,0.0,-0.9913,0.0,-1.0624,-1.0624,-1.0624,-1.0624,-1.0624,-1.0624,-1.0624,-1.0624,-1.0624,-1.0624,-1.0624,-1.0624,-1.0863,-1.171,-1.1834,-1.2081,-1.2887,-1.3009,-1.3009,-1.3009,-1.3009,-1.3009,-1.3009,-1.3009,-1.3364,-1.4154,-1.4213,-1.4569,-1.5352,-1.541,-1.541,-1.541,-1.541,-1.541,-1.541,-1.541,-1.541,-1.541,-1.541,-1.541,-1.541,-1.541,-1.541,-1.541,-1.541,-1.541,-1.543,-1.5664,-1.5752,-1.5781,-1.6016,-1.6103,-1.6103,0.0,0.0,0.0,0.0,0.0,0.0,0.0,0.0,0.0,0.0,0.0,0.0,0.0,0.0,0.0,0.0,0.0,0.0,0.0,0.0,0.0,-0.0,-0.0,-0.0,-0.0,0.1938,0.1801,-0.0629,-0.0629,0.0,0.0,0.0,0.0,-0.3666,-0.157,-0.0507,0.0,-0.0654,-0.0616,-0.0392,-0.0392,-0.0392,-0.0672,-0.3144,-0.4281,-0.4337,-0.3074,-0.3411,-0.4494,-0.449,0.0,0.0,0.0,0.0,-0.4737,-0.4974,-0.6327,-0.7751,-0.8048,0.0,-1.0624,-1.0624,-1.0624,0.0,-1.0624,-1.0624,-1.0624,-1.0624,-1.0624,-1.0624,-1.0624,-1.0624,-1.0624,-1.0624,-1.0744,-1.1108,-1.1896,-1.2135,-1.2504,-1.3304,-1.3425,-1.3425,-1.3425,-1.3425,-1.3425,-1.3425,-1.3425,-1.3726,-1.4382,-1.4392,-1.4688,-1.5352,-1.541,-1.541,-1.541,-1.541,-1.541,-1.541,-1.541,-1.541,-1.541,-1.541,-1.541,-1.541,-1.541,-1.541,-1.541,-1.541,-1.541,-1.541,-1.541,-1.541,-1.541,-1.541,-1.541,-1.541,0.0,0.0,0.0,0.0,0.0,0.0,0.0,0.0,0.0,0.0,0.0,0.0,0.0,0.0,0.0,0.0,0.0,0.0,0.2646,0.0,0.0,-0.0,-0.0,-0.0,-0.0,0.0315,-0.0718,-0.3111,0.0,0.0,0.0,0.0,0.0,-0.4361,0.0,0.0,0.0,-0.3314,-0.314,-0.1898,-0.1898,-0.1898,-0.1953,-0.2345,-0.3357,-0.4497,-0.4258,-0.4311,-0.448,-0.4525,-0.4522,0.0,0.0,0.0,-0.5419,-0.5633,-0.6973,-0.8492,0.0,0.0,-1.0624,0.0,-1.0624,-1.0624,0.0,-1.0624,-1.0624,-1.0624,-1.0624,-1.0624,-1.0624,-1.0624,-1.0624,-1.0624,-1.1163,-1.1896,-1.2704,-1.3425,-1.4204,-1.4991,-1.505,-1.505,-1.505,-1.505,-1.505,-1.505,-1.505,-1.5118,-1.5225,-1.5235,-1.5294,-1.541,-1.541,-1.541,-1.541,-1.541,-1.541,-1.541,-1.541,-1.541,-1.541,-1.541,-1.541,-1.541,-1.541,-1.541,-1.541,-1.541,-1.541,-1.541,-1.541,-1.541,-1.541,-1.541,-1.541,-1.541,0.0,0.0,0.0,0.0,0.0,0.0,0.0,0.0,0.0,0.0,0.0,0.0,0.0,0.0,0.0,0.2083,0.2173,0.2169,0.1947,0.1179,0.0494,0.0042,-0.0,-0.0629,-0.1979,-0.0674,-0.0852,-0.26,0.0,0.0,0.0,-0.3366,-0.3816,0.0,0.0,0.0,0.0,-0.3929,-0.4101,-0.3471,-0.3471,-0.3971,-0.4581,-0.3799,-0.4245,-0.5203,-0.4695,-0.4525,-0.4577,-0.4952,-0.5054,-0.5113,-0.555,0.0,0.0,0.0,-0.747,0.0,-0.9599,-1.0197,-1.0624,0.0,-1.0624,-1.0624,-1.0624,-1.0624,-1.0624,-1.0624,-1.0989,-1.1288,-1.1288,-1.1663,-1.1965,-1.1965,-1.2212,-1.2757,-1.3545,-1.3965,-1.451,-1.5294,-1.541,-1.541,-1.541,-1.541,-1.541,-1.541,-1.541,-1.541,-1.541,-1.541,-1.541,-1.541,-1.541,-1.541,-1.541,-1.541,-1.541,-1.541,-1.541,-1.541,-1.541,-1.541,-1.541,-1.541,-1.541,-1.541,-1.541,-1.541,-1.541,-1.541,-1.541,-1.541,-1.541,-1.541,-1.541,-1.541,0.0,0.0,0.0,0.0,0.0,0.0,0.0,0.0,0.0,0.0,0.0,0.0,0.0,0.0,0.0,0.0,0.285,0.2578,0.1709,0.1235,0.0675,0.0043,-0.0,-0.1123,-0.3567,-0.1842,-0.1344,0.0,0.0,0.0,-0.3595,-0.3619,-0.3852,0.0,-0.4348,0.0,0.0,0.0,0.0,0.0,-0.4705,-0.5372,-0.6215,-0.536,-0.5462,-0.6014,-0.5393,-0.51,-0.5124,-0.5711,-0.5859,-0.5869,-0.6421,-0.675,0.0,0.0,0.0,0.0,0.0,0.0,-1.0624,-1.0624,-1.0624,-1.0624,0.0,-1.0624,-1.0624,-1.0624,-1.1413,-1.2074,-1.2074,-1.2573,-1.3009,-1.3009,-1.3183,-1.3485,-1.4145,-1.4392,-1.4756,-1.5352,-1.541,-1.541,-1.541,-1.541,-1.541,-1.541,-1.541,-1.541,-1.541,-1.541,-1.541,-1.541,-1.541,-1.541,-1.541,-1.541,-1.541,-1.541,-1.541,-1.541,-1.541,-1.541,-1.541,-1.541,-1.541,-1.541,-1.541,-1.541,-1.541,-1.541,-1.541,-1.541,-1.541,-1.541,-1.541,-1.541,0.0,0.0,0.0,0.0,0.0,0.0,0.0,0.0,0.0,0.0,0.0,0.0,0.2508,0.2692,0.2694,0.2694,0.2706,0.268,0.2639,0.1008,0.0043,-0.0,-0.0,0.0,-0.3567,-0.3478,-0.342,0.0,0.0,0.0,-0.3585,-0.3717,-0.4237,-0.5033,-0.4477,-0.4299,-0.4395,0.0,0.0,0.0,0.0,-0.5492,-0.5601,-0.6258,-0.6534,-0.6618,-0.6885,-0.6764,-0.6564,-0.6885,-0.6814,-0.6534,-0.6588,-0.7074,-0.767,0.0,0.0,0.0,0.0,-1.0624,0.0,-1.0624,-1.0624,-1.0624,-1.0624,-1.0624,-1.0624,-1.0624,-1.1849,-1.2948,-1.2948,-1.2948,-1.3009,-1.3009,-1.3666,-1.4145,-1.4204,-1.4874,-1.5352,-1.541,-1.541,-1.541,-1.541,-1.541,-1.541,-1.541,-1.541,-1.541,-1.541,-1.541,-1.541,-1.541,-1.541,-1.541,-1.541,-1.541,-1.541,-1.541,-1.541,-1.541,-1.541,-1.541,-1.541,-1.541,-1.541,-1.541,-1.541,-1.541,-1.541,-1.541,-1.541,-1.541,-1.541,-1.541,-1.541,-1.541,0.0,0.0,0.0,0.0,0.0,0.0,0.0,0.0,0.0,0.0,0.0,0.0,0.0,0.1801,0.1807,0.1789,0.1796,0.1545,0.1,0.1797,0.1279,-0.1072,-0.1885,-0.2697,-0.3592,-0.3598,0.0,0.0,0.0,-0.3581,-0.3585,-0.3724,-0.4248,-0.5095,-0.4481,-0.4541,-0.5113,-0.4684,0.0,0.0,0.0,0.0,-0.6902,-0.6696,-0.6912,-0.7268,-0.7175,-0.7038,-0.7058,-0.7805,-0.8005,-0.7989,-0.845,-0.8796,-0.9003,-0.9183,-0.9558,0.0,0.0,0.0,0.0,-1.0624,-1.0989,-1.1344,-1.1344,-1.1779,-1.2151,-1.2151,-1.3,-1.3786,-1.3786,-1.4204,-1.4569,-1.4569,-1.4805,-1.4991,-1.4991,-1.5235,-1.541,-1.541,-1.541,-1.541,-1.541,-1.541,-1.541,-1.541,-1.541,-1.541,-1.541,-1.541,-1.541,-1.541,-1.541,-1.541,-1.541,-1.541,-1.541,-1.541,-1.541,-1.541,-1.541,-1.541,-1.541,-1.541,-1.541,-1.541,-1.541,-1.541,-1.541,-1.541,-1.541,-1.541,-1.541,-1.541,-1.541,-1.541,0.0,0.0,0.0,0.0,0.0,0.0,0.0,0.0,0.0,-0.0584,0.0,0.0,0.0,0.0,0.0272,0.0244,0.0252,-0.0,-0.0578,0.0535,0.0312,-0.1695,-0.2962,-0.3598,-0.3581,-0.3588,0.0,0.0,0.0,0.0,0.0,-0.417,-0.4811,-0.5893,-0.5288,-0.5333,0.0,0.0,0.0,-0.5873,0.0,-0.6895,-0.7852,-0.7575,-0.7851,-0.8404,-0.8486,-0.8459,-0.8537,-0.957,-0.9894,-0.9812,-1.0006,-0.9904,-0.974,-1.0027,-1.0114,0.0,-1.0481,0.0,0.0,0.0,-1.1226,-1.1834,-1.1834,-1.2451,-1.3009,-1.3009,-1.3666,-1.4213,-1.4213,-1.4874,-1.541,-1.541,-1.541,-1.541,-1.541,-1.541,-1.541,-1.541,-1.541,-1.541,-1.541,-1.541,-1.541,-1.541,-1.541,-1.541,-1.541,-1.541,-1.541,-1.541,-1.541,-1.541,-1.541,-1.541,-1.541,-1.541,-1.541,-1.541,-1.541,-1.541,-1.541,-1.541,-1.541,-1.541,-1.541,-1.541,-1.541,-1.541,-1.541,-1.541,-1.541,-1.541,-1.541,-1.541,0.0,0.0,0.0,0.0,0.0,0.0,0.0,0.0,0.0,-0.1809,0.0,0.0,0.0,0.0,0.0,-0.1868,-0.1875,-0.1875,-0.1875,-0.2957,-0.3093,-0.1919,-0.3001,-0.3636,-0.367,-0.367,0.0,0.0,0.0,0.0,0.0,0.0,-0.5992,-0.7494,-0.6913,-0.6642,-0.6642,0.0,-0.6588,-0.6696,-0.7408,-0.7936,-0.8335,-0.9023,-0.9489,-0.9887,-1.099,-1.1186,-1.1138,-1.2249,-1.2372,-1.2016,-1.1213,-1.0437,-0.9818,-1.0107,0.0,0.0,0.0,0.0,0.0,-1.0624,-1.1226,-1.1834,-1.1834,-1.2451,-1.307,-1.307,-1.3666,-1.4273,-1.4273,-1.4864,-1.541,-1.541,-1.541,-1.541,-1.541,-1.541,-1.541,-1.541,-1.541,-1.541,-1.541,-1.541,-1.541,-1.541,-1.541,-1.54,-1.5391,-1.5381,-1.5371,-1.5371,-1.5371,-1.5371,-1.5371,-1.5371,-1.5371,-1.5371,-1.5371,-1.5371,-1.5371,-1.5391,-1.5391,-1.5391,-1.54,-1.541,-1.541,-1.541,-1.541,-1.541,-1.541,-1.541,-1.541,-1.541,-1.541,-1.541,0.0,0.0,0.0,0.0,0.0,0.0,0.0,0.0,-0.2573,0.0,0.0,0.0,-0.312,-0.3092,-0.3099,-0.309,-0.3093,-0.309,-0.3084,-0.3407,-0.3626,-0.3683,-0.4148,-0.4548,-0.4831,-0.4831,0.0,0.0,0.0,0.0,0.0,0.0,0.0,0.0,-0.7448,-0.767,-0.8103,-0.7074,0.0,-0.7413,-0.7874,-0.8809,-0.9893,-1.029,-1.0831,-1.1527,-1.2051,-1.2173,-1.2199,-1.2736,-1.2854,-1.2712,-1.2465,-1.2286,0.0,-1.2163,-1.2195,0.0,-1.2312,0.0,0.0,0.0,0.0,0.0,-1.2696,-1.3304,-1.4025,-1.4628,-1.4923,-1.505,-1.505,-1.5235,-1.541,-1.541,-1.541,-1.541,-1.541,-1.541,-1.541,-1.541,-1.541,-1.541,-1.541,-1.541,-1.541,-1.541,-1.541,-1.5283,-1.4971,-1.4658,-1.4437,-1.4437,-1.4437,-1.4437,-1.4437,-1.4437,-1.4437,-1.4437,-1.4437,-1.4437,-1.4447,-1.4814,-1.4961,-1.4971,-1.5283,-1.541,-1.541,-1.541,-1.541,-1.541,-1.541,-1.541,-1.541,-1.541,-1.541,-1.541,0.0,0.0,0.0,0.0,0.0,0.0,0.0,-0.3586,-0.3467,0.0,0.0,0.0,-0.3574,-0.3581,-0.3674,-0.3932,-0.3932,-0.406,-0.4272,-0.4324,-0.4451,-0.4783,-0.5007,-0.5232,-0.5439,-0.5625,0.0,0.0,0.0,0.0,0.0,0.0,0.0,0.0,0.0,0.0,0.0,0.0,0.0,-0.839,-0.8925,-0.9855,-1.0902,-1.1386,-1.1954,-1.2522,-1.3091,-1.3286,-1.3379,-1.4173,-1.4236,-1.393,-1.3597,-1.3243,-1.3009,-1.3009,-1.3009,0.0,0.0,0.0,0.0,-1.2451,0.0,0.0,-1.3485,-1.4145,-1.4805,-1.5294,-1.541,-1.541,-1.541,-1.541,-1.541,-1.541,-1.541,-1.541,-1.541,-1.541,-1.541,-1.541,-1.541,-1.5342,-1.5166,-1.5146,-1.5078,-1.4893,-1.4883,-1.4775,-1.4521,-1.4268,-1.4077,-1.4077,-1.4077,-1.4077,-1.4077,-1.4077,-1.4077,-1.4077,-1.4077,-1.4077,-1.4087,-1.4394,-1.4512,-1.4531,-1.4775,-1.498,-1.5146,-1.5146,-1.5254,-1.541,-1.541,-1.541,-1.541,-1.541,-1.541,-1.541,0.0,0.0,0.0,0.0,0.0,0.0,0.0,-0.4414,-0.406,0.0,-0.3746,-0.3514,-0.3806,-0.3824,-0.4047,-0.4538,-0.4582,-0.4847,-0.5379,-0.5379,-0.5422,-0.551,-0.5747,-0.5902,-0.5948,-0.6245,0.0,0.0,0.0,0.0,0.0,0.0,0.0,0.0,0.0,0.0,0.0,0.0,-1.0031,-0.9667,-1.0309,-1.0982,-1.1693,-1.2455,-1.2966,-1.3364,-1.4145,-1.4442,-1.4678,-1.613,-1.6156,-1.5428,-1.466,-1.3957,-1.3364,-1.3304,-1.3252,0.0,0.0,0.0,0.0,-1.3191,-1.3666,0.0,-1.4213,-1.4746,-1.5294,-1.5352,-1.541,-1.541,-1.541,-1.5371,-1.5342,-1.5342,-1.5303,-1.5283,-1.5342,-1.5342,-1.5322,-1.5273,-1.5273,-1.5127,-1.4746,-1.4717,-1.4551,-1.4107,-1.4038,-1.4009,-1.4009,-1.397,-1.3941,-1.3941,-1.3941,-1.3941,-1.3941,-1.3941,-1.3941,-1.3941,-1.3941,-1.3941,-1.3941,-1.399,-1.4009,-1.4009,-1.4058,-1.4355,-1.4717,-1.4717,-1.499,-1.541,-1.541,-1.541,-1.541,-1.541,-1.541,-1.541,-0.5956,0.0,0.0,0.0,0.0,0.0,0.0,0.0,-0.4218,-0.4358,-0.425,-0.4451,-0.5229,-0.5298,-0.5457,-0.5818,-0.5834,-0.5881,-0.6023,-0.6029,-0.6218,-0.6748,-0.6795,-0.7014,-0.7452,-0.7557,0.0,0.0,0.0,0.0,0.0,0.0,0.0,0.0,0.0,0.0,0.0,0.0,-1.1004,-1.1912,-1.1376,-1.2027,-1.3367,-1.3735,-1.4319,-1.504,-1.5796,-1.6073,-1.6187,-1.7079,-1.7291,-1.7002,-1.6291,-1.5958,-1.5718,-1.5099,-1.4932,-1.4932,-1.4932,-1.4932,-1.4805,-1.4154,-1.4085,0.0,-1.4213,-1.4332,-1.4628,-1.5294,-1.541,-1.541,-1.541,-1.5137,-1.4902,-1.4902,-1.4609,-1.4512,-1.4853,-1.4902,-1.4775,-1.4424,-1.433,-1.4291,-1.4214,-1.4258,-1.4228,-1.4087,-1.3818,-1.3633,-1.3633,-1.3311,-1.3125,-1.3125,-1.3125,-1.3125,-1.3125,-1.3125,-1.3125,-1.3125,-1.3125,-1.3125,-1.3135,-1.3477,-1.3633,-1.3652,-1.3984,-1.4126,-1.4258,-1.4258,-1.4717,-1.541,-1.541,-1.541,-1.541,-1.541,-1.541,-1.541,-0.6689,0.0,0.0,0.0,0.0,0.0,0.0,0.0,-0.5229,-0.5293,-0.5135,-0.5279,-0.5867,-0.594,-0.6129,-0.6594,-0.6972,-0.7247,-0.7544,-0.7856,-0.8184,-0.8486,-0.8637,-0.8875,-0.9129,-0.9287,-0.941,0.0,0.0,0.0,0.0,0.0,0.0,0.0,0.0,0.0,0.0,0.0,-1.2473,-1.3168,-1.2746,-1.3148,-1.4118,-1.5003,-1.5623,-1.6036,-1.6754,-1.7302,-1.7578,-1.7578,-1.7841,-1.8004,-1.7302,-1.7034,-1.6922,-1.614,-1.5921,-1.5864,-1.5526,-1.541,-1.5294,-1.4874,-1.4805,0.0,0.0,-1.4805,-1.4923,-1.5294,-1.5244,-1.5098,-1.5098,-1.4746,-1.4463,-1.4463,-1.4277,-1.4141,-1.415,-1.4326,-1.4375,-1.4107,-1.4077,-1.4,-1.3848,-1.3818,-1.374,-1.3525,-1.3311,-1.3193,-1.3193,-1.2998,-1.2881,-1.2881,-1.2881,-1.2881,-1.2881,-1.2881,-1.2881,-1.2881,-1.2881,-1.2881,-1.2891,-1.3096,-1.3193,-1.3203,-1.3418,-1.3633,-1.3818,-1.3818,-1.4199,-1.4795,-1.5019,-1.5225,-1.541,-1.541,-1.541,-1.541,-0.7368,0.0,0.0,0.0,0.0,0.0,0.0,0.0,-0.6477,-0.6575,-0.631,-0.6335,-0.6778,-0.6947,-0.7206,-0.7766,-0.8413,-0.8929,-0.9251,-0.9892,-1.0208,-1.0086,-1.0323,-1.0481,-1.0481,-1.0673,-1.0813,0.0,0.0,0.0,0.0,0.0,0.0,0.0,0.0,0.0,0.0,0.0,-1.4005,-1.4308,-1.4308,-1.4331,-1.4628,-1.613,-1.6595,-1.6595,-1.7523,-1.8286,-1.8821,-1.8232,-1.8436,-1.8768,-1.8058,-1.7797,-1.7688,-1.6922,-1.6708,-1.6595,-1.5968,-1.5796,-1.5806,-1.5642,-1.569,-1.5748,0.0,0.0,0.0,-1.5303,-1.5019,-1.4756,-1.4678,-1.4307,-1.3961,-1.3961,-1.3945,-1.3779,-1.3437,-1.3682,-1.3896,-1.3896,-1.3896,-1.376,-1.3418,-1.3389,-1.3242,-1.29,-1.2881,-1.2881,-1.2881,-1.2881,-1.2881,-1.2881,-1.2881,-1.2881,-1.2881,-1.2881,-1.2881,-1.2881,-1.2881,-1.2881,-1.2881,-1.2881,-1.2881,-1.2881,-1.2881,-1.3076,-1.3389,-1.3389,-1.3633,-1.4009,-1.459,-1.499,-1.5303,-1.5381,-1.541,-1.541,-0.8341,-0.7601,0.0,0.0,0.0,0.0,0.0,0.0,-0.7558,-0.7868,-0.7836,-0.8119,-0.8938,-0.9593,-1.0043,-1.0356,-1.0946,-1.1094,-1.0639,-1.1152,-1.1242,-1.0739,-1.0731,-1.0755,-1.0755,-1.0788,-1.0813,0.0,0.0,0.0,0.0,0.0,0.0,0.0,-1.3469,0.0,0.0,0.0,-1.5325,-1.6182,-1.6182,-1.5813,-1.54,-1.6912,-1.709,-1.6652,-1.8058,-1.9044,-1.9643,-1.9579,-1.9592,-1.9527,-1.8821,-1.8555,-1.8447,-1.7677,-1.7468,-1.7468,-1.7357,-1.7357,-1.7191,-1.6539,-1.6866,-1.7024,-1.569,0.0,-1.6095,-1.5101,0.0,-1.4668,-1.4277,0.0,0.0,-1.3574,-1.3271,-1.3008,-1.2959,-1.2998,-1.3027,-1.3027,-1.3027,-1.3008,-1.2959,-1.2949,-1.293,-1.2881,-1.2881,-1.2881,-1.2881,-1.2881,-1.2881,-1.2881,-1.2881,-1.2881,-1.2881,-1.2881,-1.2881,-1.2881,-1.2881,-1.2881,-1.2881,-1.2881,-1.2881,-1.2881,-1.2881,-1.291,-1.2949,-1.2949,-1.3203,-1.3662,-1.4473,-1.4814,-1.4902,-1.5273,-1.541,-1.541,-0.961,-0.9142,0.0,0.0,0.0,0.0,0.0,0.0,-0.8898,-0.8868,-0.9192,-0.9651,-1.016,-1.0441,-1.0838,-1.1265,-1.1966,-1.2314,-1.2314,-1.3313,-1.3618,-1.2945,-1.3283,-1.3399,-1.3052,-1.3042,-1.3042,-1.3042,-1.3652,0.0,0.0,0.0,0.0,0.0,-1.5636,0.0,-1.6587,0.0,-1.6718,-1.7202,-1.7578,-1.7346,-1.68,-1.7841,-1.8328,-1.8501,-1.9097,-1.9527,-1.9798,-1.9798,-1.9798,-1.9747,-1.9423,-1.9319,-1.9202,-1.8447,-1.8232,-1.8112,-1.7743,-1.7578,-1.7413,-1.6652,-1.7034,-1.718,-1.5748,-1.5979,-1.6311,-1.5467,0.0,0.0,0.0,0.0,0.0,0.0,-1.2998,-1.2881,-1.2881,-1.2881,-1.2881,-1.2881,-1.2881,-1.2881,-1.2881,-1.2881,-1.2881,-1.2881,-1.2881,-1.2881,-1.2881,-1.2881,-1.2881,-1.2881,-1.2881,-1.2881,-1.2881,-1.2881,-1.2881,-1.2881,-1.2881,-1.2881,-1.2881,-1.2881,-1.2881,-1.2881,-1.2881,-1.2881,-1.2881,-1.2881,-1.2988,-1.3203,-1.3809,-1.4346,-1.4805,-1.498,-1.5205,-1.541,-1.146,0.0,0.0,0.0,0.0,0.0,0.0,-1.0077,-1.0208,-1.0099,-1.0474,-1.091,-1.1234,-1.1477,-1.1832,-1.241,-1.315,-1.3614,-1.3748,-1.4989,-1.5511,-1.4996,-1.5452,-1.5652,-1.5406,-1.5242,-1.5159,-1.5159,0.0,0.0,0.0,0.0,0.0,0.0,0.0,-1.7508,-1.7804,0.0,-1.7895,-1.7961,-1.8501,-1.8501,-1.8221,-1.8555,-1.915,-1.9798,-1.9798,-1.9798,-1.9798,-1.9798,-1.9798,-1.9798,-1.9798,-1.9798,-1.9695,-1.915,-1.898,-1.8874,-1.834,-1.8221,-1.8015,-1.7302,-1.7688,-1.7841,-1.6358,-1.6585,-1.6861,-1.5999,-1.5616,0.0,0.0,0.0,-1.3637,-1.3238,0.0,-1.2881,-1.2881,-1.2881,-1.2881,-1.2881,-1.2881,-1.2881,-1.2881,-1.2881,-1.2881,-1.2881,-1.2881,-1.2881,-1.2881,-1.2881,-1.2881,-1.2881,-1.2881,-1.2881,-1.2881,-1.2881,-1.2881,-1.2881,-1.2881,-1.2881,-1.2881,-1.2881,-1.2881,-1.2881,-1.2881,-1.2881,-1.2881,-1.2881,-1.2881,-1.291,-1.3213,-1.3789,-1.4463,-1.4697,-1.498,-1.5254,-1.4089,-1.2297,0.0,0.0,0.0,0.0,-1.1185,-1.121,-1.1307,-1.1644,-1.1747,-1.1908,-1.2382,-1.3214,-1.3851,-1.4278,-1.5037,-1.5276,-1.472,-1.5719,-1.6383,-1.645,-1.6402,-1.6619,-1.7183,-1.6645,-1.6355,-1.6355,0.0,0.0,0.0,0.0,0.0,0.0,-1.7737,-1.7915,-1.7665,-1.8382,-1.8661,-1.8661,-1.8715,-1.9097,-1.9643,-1.898,-1.915,-1.9798,-1.9798,-1.9798,-1.9798,-1.9798,-1.9798,-1.9798,-1.9798,-1.9798,-1.9798,-1.9747,-1.9747,-1.9747,-1.9747,-1.9747,-1.9527,-1.8821,-1.9202,-1.9359,-1.7841,-1.8112,-1.8166,-1.6503,-1.6188,-1.5885,-1.4853,-1.4201,-1.3768,-1.3768,-1.3286,0.0,0.0,-1.2881,-1.2881,-1.2881,-1.2881,-1.2881,-1.2881,-1.2881,-1.2881,-1.2881,-1.2881,-1.2881,-1.2881,-1.2881,-1.2881,-1.2881,-1.2881,-1.2881,-1.2881,-1.2881,-1.2881,-1.2881,-1.2881,-1.2881,-1.2881,-1.2881,-1.2881,-1.2881,-1.2881,-1.2881,-1.2881,-1.2881,-1.2881,-1.2881,-1.29,-1.3164,-1.3643,-1.4482,-1.4795,-1.4863,-1.5116,0.0,0.0,0.0,0.0,-1.2613,-1.2358,-1.2983,-1.3279,-1.2561,-1.3205,-1.3915,-1.4437,-1.4752,-1.5285,-1.6267,-1.693,-1.7387,-1.746,-1.8302,-1.8755,-1.8699,-1.8301,-1.8445,-1.9123,-1.8116,-1.7761,-1.8185,-1.813,0.0,0.0,0.0,0.0,0.0,0.0,-1.9147,0.0,0.0,-1.9423,-1.9475,-1.9927,-2.0232,-2.0396,-1.9683,-1.9579,-1.9798,-1.9798,-1.9798,-1.9798,-1.9798,-1.9798,-1.9798,-1.9798,-1.9798,-1.9901,-2.0346,-2.0156,-1.9901,-2.0346,-2.0156,-1.9631,-1.8874,-1.9254,-1.9423,-1.7961,-1.8178,-1.846,-1.7517,-1.7058,-1.6604,-1.5951,-1.536,-1.4721,-1.3909,-1.3637,-1.3382,0.0,-1.2881,-1.2881,-1.2881,-1.2881,-1.2881,-1.2881,-1.2881,-1.2881,-1.2881,-1.2881,-1.2881,-1.2881,-1.2881,-1.2881,-1.2881,-1.2881,-1.2881,-1.2881,-1.2881,-1.2881,-1.2881,-1.2881,-1.2881,-1.2881,-1.2881,-1.2881,-1.2881,-1.2881,-1.2881,-1.2881,-1.2881,-1.2881,-1.2881,-1.2881,-1.2969,-1.3164,-1.373,-1.4111,-1.4414,-1.5919,0.0,0.0,-1.3802,-1.4026,-1.4215,-1.3809,-1.4276,-1.4532,-1.4139,-1.4631,-1.5261,-1.5946,-1.6101,-1.6534,-1.7456,-1.8157,-1.8639,-1.8964,-1.9826,-2.04,-2.0548,-2.0178,-2.0294,-2.1006,-1.9999,-1.9627,-2.0005,-1.9768,-1.9731,0.0,0.0,0.0,0.0,0.0,-2.0156,-2.0156,-2.0156,-2.0283,-2.0521,-2.0966,-2.1113,-2.1064,-2.062,-2.0333,-2.0194,-2.037,-2.0471,-2.0471,-2.0471,-2.0333,-2.0194,-2.0421,-2.0333,-2.0295,-2.0917,-2.0683,-2.0295,-2.0917,-2.0633,-2.0093,-1.9825,-2.0143,-2.0156,-1.8996,-1.9113,-1.929,-1.8746,-1.802,-1.7399,-1.7148,-1.6292,-1.5276,-1.4283,-1.3956,-1.36,0.0,-1.3055,-1.3152,-1.2929,-1.2881,-1.2881,-1.2881,-1.2881,-1.2881,-1.2881,-1.2881,-1.2881,-1.2881,-1.2881,-1.2881,-1.2881,-1.2881,-1.3017,-1.3238,-1.3238,-1.3334,-1.3525,-1.3525,-1.3525,-1.3525,-1.3525,-1.3525,-1.3525,-1.3525,-1.3525,-1.3525,-1.3525,-1.3525,-1.3525,-1.3525,-1.3525,-1.3529,-1.3491,-1.3769,-1.4145,-1.664,-1.6597,-1.6411,-1.5848,-1.5198,-1.4946,-1.5488,-1.5208,-1.53,-1.6364,-1.6055,-1.6124,-1.7117,-1.7352,-1.7665,-1.807,-1.8801,-1.9288,-1.9288,-2.0325,-2.1302,-2.1946,-2.1837,-2.2086,-2.2785,-2.2086,-2.1744,-2.1791,-2.1161,0.0,0.0,0.0,0.0,0.0,-2.0845,0.0,-2.0845,-2.0845,-2.121,-2.1758,-2.1758,-2.1758,-2.1744,-2.1791,-2.1438,-2.0944,-2.152,-2.1697,-2.1697,-2.1697,-2.1342,-2.093,-2.152,-2.1293,-2.0979,-2.1568,-2.1293,-2.0979,-2.1568,-2.1293,-2.0979,-2.1568,-2.1697,-2.1568,-2.0979,-2.0845,-2.0686,-2.0178,-1.9141,-1.8295,-1.8315,-1.6867,-1.5499,-1.4835,-1.4236,-1.3637,-1.3017,-1.342,-1.36,-1.2968,-1.2881,-1.2881,-1.2881,-1.2881,-1.2881,-1.2881,-1.2881,-1.2881,-1.2881,-1.2881,-1.2881,-1.2881,-1.2881,-1.32,-1.3732,-1.3779,-1.4097,-1.4663,-1.4709,-1.4698,-1.4698,-1.4698,-1.4698,-1.4698,-1.4698,-1.4698,-1.4698,-1.4698,-1.4698,-1.4698,-1.4698,-1.4698,-1.4627,-1.385,-1.3792,-1.4204,-1.8516,-1.8047,-1.7718,-1.7567,-1.6642,-1.6162,-1.6751,-1.7486,-1.789,-1.7758,-1.8402,-1.9189,-1.9826,-1.9927,-2.0167,-2.0681,-2.1384,-2.1787,-2.1787,-2.2079,-2.2494,-2.3125,-2.2597,-2.2819,-2.3918,-2.2863,-2.2536,-2.304,-2.1965,0.0,-2.1697,0.0,0.0,0.0,0.0,-2.1472,-2.1472,-2.1472,-2.1866,-2.2452,-2.2452,-2.2452,-2.2498,-2.2935,-2.2756,-2.2175,-2.1805,-2.1697,-2.1697,-2.1697,-2.1615,-2.1472,-2.1649,-2.1615,-2.1615,-2.2253,-2.196,-2.1615,-2.2253,-2.196,-2.152,-2.1649,-2.1697,-2.1663,-2.152,-2.1472,-2.1431,-2.1281,-2.0283,-1.9346,-1.8963,-1.78,-1.6532,-1.5543,-1.4869,-1.4236,-1.3637,-1.3684,-1.36,-1.2968,-1.2881,-1.2881,-1.2881,-1.2881,-1.2881,-1.2881,-1.2881,-1.2881,-1.2881,-1.2881,-1.2881,-1.2881,-1.2881,-1.2968,-1.3152,-1.36,-1.3862,-1.405,-1.4468,-1.4698,-1.4698,-1.4698,-1.4698,-1.4698,-1.4698,-1.4698,-1.4698,-1.4698,-1.4698,-1.4698,-1.4698,-1.4698,-1.4674,-1.4471,-1.4677,-1.4988,-1.9622,-1.9234,-1.9114,-1.9331,-1.8825,-1.8372,-1.8478,-1.8623,-1.8949,-1.9627,-1.9925,-2.0339,-2.1158,-2.1259,-2.1351,-2.1669,-2.23,-2.2694,-2.2694,-2.3172,-2.3593,-2.3906,-2.3758,-2.402,-2.4736,-2.4035,-2.3728,-2.3888,-2.2951,0.0,-2.25,0.0,0.0,0.0,0.0,-2.1852,-2.2146,-2.2409,-2.2756,-2.3098,-2.3098,-2.3098,0.0,-2.3465,-2.3377,-2.3054,-2.2665,-2.2546,-2.2546,-2.2546,-2.2377,-2.2193,-2.2469,-2.2377,-2.2239,-2.292,-2.262,-2.23,-2.2905,-2.262,-2.2193,-2.2455,-2.2546,-2.2469,-2.2193,-2.2146,-2.2146,-2.2146,-2.0938,-1.9901,-1.9871,-1.8475,-1.6925,-1.5808,-1.532,-1.4869,-1.4283,-1.4411,-1.4365,-1.3752,-1.3705,-1.3705,-1.3705,-1.32,-1.2881,-1.2881,-1.2881,-1.2881,-1.2881,-1.2881,-1.2881,-1.2881,-1.2881,-1.3017,-1.3286,-1.3873,-1.4318,-1.4584,-1.5197,-1.5478,-1.5478,-1.5478,-1.5478,-1.5478,-1.5478,-1.5478,-1.5478,-1.5478,-1.5478,-1.5478,-1.5197,-1.5096,-1.505,-1.4789,-1.468,-1.466,-2.0454,-2.0353,-2.0476,-2.0913,-2.101,-2.0873,-2.0422,-1.9447,-1.952,-2.1572,-2.1049,-2.0832,-2.1829,-2.2011,-2.2058,-2.2058,-2.2637,-2.3039,-2.3039,-2.396,-2.4511,-2.4511,-2.5028,-2.5297,-2.5297,-2.5297,-2.5028,-2.4511,-2.3888,0.0,0.0,0.0,0.0,0.0,0.0,0.0,0.0,-2.3493,-2.3724,-2.3724,-2.3794,-2.3752,-2.3724,-2.3794,-2.3794,-2.3794,-2.3794,-2.3724,-2.3595,-2.3595,-2.3246,-2.292,-2.3421,-2.3246,-2.292,-2.3465,-2.3231,-2.292,-2.3465,-2.3201,-2.292,-2.3465,-2.3595,-2.3465,-2.2934,-2.283,-2.283,-2.283,-2.1396,-2.0302,-2.0822,-1.8976,-1.705,-1.6015,-1.5796,-1.562,-1.5084,-1.5398,-1.5487,-1.4869,-1.4778,0.0,-1.4698,-1.3752,-1.3113,-1.3017,-1.3017,-1.2968,-1.2881,-1.2881,-1.2881,-1.2881,-1.2968,-1.3238,-1.3684,-1.4422,-1.505,-1.5499,-1.6194,-1.6522,-1.6522,-1.6522,-1.6522,-1.6522,-1.6522,-1.6522,-1.6522,-1.6522,-1.6522,-1.6466,-1.5908,-1.572,-1.5632,-1.5062,-1.4422,-1.3962,-2.2318,-2.1791,-2.1467,-2.1531,-2.1545,-2.1699,-2.2158,-2.2073,-2.2073,-2.2469,-2.2759,-2.3054,-2.326,-2.3664,-2.3945,-2.3945,-2.444,-2.476,-2.476,-2.4934,-2.5067,-2.5067,-2.5577,-2.5852,-2.5852,-2.5852,-2.5615,-2.5067,-2.4496,-2.4017,0.0,0.0,0.0,0.0,0.0,0.0,-2.4101,-2.4225,-2.4266,-2.4307,-2.4736,-2.4657,-2.4307,-2.4752,-2.491,-2.491,-2.491,-2.4348,-2.3595,-2.3595,-2.3508,-2.3465,-2.3551,-2.3508,-2.3465,-2.3551,-2.3508,-2.3465,-2.3551,-2.3508,-2.3465,-2.3551,-2.3595,-2.3551,-2.3465,-2.3421,-2.3421,-2.3421,-2.2354,-2.1289,-2.0947,-1.9302,-1.7733,-1.7092,-1.7008,-1.6941,-1.6764,-1.6451,-1.6034,-1.5428,-1.5339,-1.5184,-1.4744,-1.4525,-1.4201,-1.3684,-1.3637,-1.342,-1.2929,-1.2881,-1.2881,-1.2881,-1.3372,-1.3467,-1.3055,-1.4641,-1.5231,-1.488,-1.5976,-1.6522,-1.6522,-1.6522,-1.6522,-1.6522,-1.6522,-1.6522,-1.6522,-1.6522,-1.6522,-1.6479,-1.638,-1.6337,-1.6281,-1.5676,-1.505,-1.4571,-2.3231,-2.2905,-2.2772,-2.3054,-2.3084,-2.3317,-2.3888,-2.3987,-2.3903,-2.3621,-2.3761,-2.4039,-2.4389,-2.4657,-2.4816,-2.4816,-2.5051,-2.5221,-2.5221,-2.5449,-2.5615,-2.5615,-2.6104,-2.6367,-2.6367,-2.6367,-2.6104,-2.5615,-2.5067,-2.4552,-2.3991,-2.3709,0.0,0.0,0.0,-2.3975,0.0,-2.4561,-2.4816,-2.4831,-2.5105,-2.5067,-2.4816,-2.5105,-2.5221,-2.5221,-2.5221,-2.4871,-2.443,-2.443,-2.443,-2.4389,-2.4116,-2.4199,-2.4307,-2.3752,-2.3794,-2.3948,-2.3681,-2.3595,-2.3595,-2.3595,-2.3595,-2.3595,-2.3595,-2.3595,-2.3595,-2.3595,-2.2592,-2.1312,-2.0078,-1.9102,-1.8405,-1.8129,-1.809,-1.8076,-1.8034,-1.7798,-1.7451,-1.6918,-1.6834,-1.665,-1.6089,-1.6046,-1.5564,-1.4376,-1.3956,-1.3826,-1.3836,-1.3563,-1.3515,-1.3836,-1.4107,-1.4107,-1.3836,-1.5005,-1.5454,-1.5186,-1.6064,-1.6522,-1.6522,-1.6522,-1.6522,-1.6522,-1.6522,-1.6522,-1.6522,-1.6522,-1.6522,-1.6466,-1.6151,-1.6051,-1.5952,-1.5377,-1.4971,-1.4663,-2.3948,-2.3948,-2.4074,-2.4511,-2.4592,-2.4697,-2.5144,-2.5297,-2.5182,-2.4632,-2.4474,-2.4602,-2.5128,-2.5297,-2.5373,-2.5373,-2.5449,-2.5524,-2.5524,-2.5908,-2.6156,-2.6156,-2.6505,-2.6691,-2.6691,-2.6691,-2.647,-2.6013,-2.5577,-2.5105,-2.4552,-2.4158,0.0,-2.3964,-2.4389,-2.4358,-2.4066,-2.4996,-2.5373,-2.5373,-2.5486,-2.5449,-2.5373,-2.5486,-2.5524,-2.5524,-2.5524,-2.5524,-2.5524,-2.5524,-2.5373,-2.5144,-2.4697,-2.4871,-2.5012,-2.4199,-2.4225,-2.4471,-2.3921,-2.3752,-2.3752,-2.3752,-2.3752,-2.3794,-2.3921,-2.3948,-2.3948,-2.3948,-2.2834,-2.1285,-1.9374,-1.914,-1.9163,-1.8993,-1.9038,-1.9112,-1.9126,-1.8941,-1.8731,-1.8468,-1.8131,-1.7827,-1.7504,-1.7271,-1.6629,-1.5353,-1.4584,-1.4318,-1.4698,-1.4236,-1.419,-1.4698,-1.4835,-1.4835,-1.4698,-1.5421,-1.5732,-1.5588,-1.6194,-1.6522,-1.6522,-1.6522,-1.6522,-1.6522,-1.6522,-1.6522,-1.6522,-1.6522,-1.6522,-1.6466,-1.5964,-1.5776,-1.5732,-1.5096,-1.488,-1.4789,-2.5067,-2.5067,-2.5067,-2.5105,-2.5144,-2.5144,-2.5182,-2.5615,-2.5726,-2.5182,-2.5128,-2.5128,-2.5182,-2.5652,-2.5924,-2.5924,-2.6315,-2.6539,-2.6539,-2.6624,-2.6624,-2.6624,-2.6691,-2.6691,-2.6691,-2.6691,-2.647,-2.6013,-2.5961,-2.5652,-2.5128,-2.5051,-2.5067,-2.5051,-2.5089,-2.5373,-2.5762,-2.5888,-2.5924,-2.5961,-2.6401,-2.628,-2.5961,-2.6401,-2.6539,-2.6539,-2.6539,-2.6539,-2.6539,-2.6539,-2.5964,-2.5182,-2.5144,-2.5144,-2.5182,-2.5067,-2.5105,-2.5012,-2.4471,-2.4307,-2.4307,-2.4307,-2.4307,-2.4471,-2.495,-2.5067,-2.5067,-2.5067,-2.3613,-2.1756,-1.9897,-1.9869,-2.0024,-1.9606,-1.9843,-2.0085,-2.0147,-1.936,-1.8941,-1.9426,-1.8221,-1.7544,-1.7987,-1.7146,-1.671,-1.705,-1.6058,-1.5231,-1.4744,-1.4663,-1.4652,-1.4698,-1.5231,-1.5231,-1.4709,-1.5832,-1.6139,-1.5588,-1.6194,-1.6522,-1.6522,-1.6522,-1.6522,-1.6522,-1.6522,-1.6522,-1.6522,-1.6522,-1.6522,-1.6466,-1.6423,-1.6423,-1.6337,-1.5732,-1.5499,-1.541,-2.5221,-2.5221,-2.5297,-2.5615,-2.5689,-2.5762,-2.6052,-2.628,-2.6332,-2.6123,-2.6087,-2.6087,-2.6087,-2.628,-2.6401,-2.6401,-2.659,-2.6691,-2.6691,-2.6691,-2.6691,-2.6691,-2.6691,-2.6691,-2.6691,-2.6691,-2.6624,-2.6401,-2.6156,-2.5888,-2.5689,-2.5335,-2.5221,-2.5221,-2.554,-2.5815,-2.6013,-2.6297,-2.6401,-2.6436,-2.6624,-2.659,-2.6436,-2.6624,-2.6691,-2.6691,-2.6691,-2.6691,-2.6691,-2.6691,-2.6419,-2.6052,-2.5762,-2.5872,-2.5964,-2.5373,-2.5411,-2.5577,-2.5028,-2.4855,-2.4855,-2.4855,-2.4855,-2.495,-2.5144,-2.5221,-2.5221,-2.5221,-2.3915,-2.2339,-2.0717,-2.0601,-2.0748,-2.0798,-2.0927,-2.1054,-2.1102,-2.0717,-2.0471,-2.0452,-1.9893,-1.9474,-1.9367,-1.8474,-1.7839,-1.7719,-1.6409,-1.5644,-1.5788,-1.5752,-1.5752,-1.5788,-1.633,-1.6373,-1.5788,-1.625,-1.638,-1.6139,-1.638,-1.6522,-1.6522,-1.6522,-1.6522,-1.6522,-1.6522,-1.6522,-1.6522,-1.6522,-1.6522,-1.6522,-1.6522,-1.6522,-1.6466,-1.6238,-1.6139,-1.6107,-2.5635,-2.5635,-2.5746,-2.6139,-2.6191,-2.6332,-2.6657,-2.6691,-2.6758,-2.6873,-2.6774,-2.6691,-2.6691,-2.6691,-2.6691,-2.6691,-2.6691,-2.6691,-2.6691,-2.6691,-2.6691,-2.6691,-2.6691,-2.6691,-2.6691,-2.6691,-2.6691,-2.6691,-2.6367,-2.6191,-2.6191,-2.5835,-2.5635,-2.5672,-2.6033,-2.6191,-2.6227,-2.6556,-2.6691,-2.6691,-2.6691,-2.6691,-2.6691,-2.6691,-2.6691,-2.6691,-2.6691,-2.6691,-2.6691,-2.6691,-2.6691,-2.6657,-2.6297,-2.6436,-2.6573,-2.5855,-2.5908,-2.6104,-2.5577,-2.5465,-2.5465,-2.5465,-2.5465,-2.5486,-2.5598,-2.5635,-2.5484,-2.4915,-2.4023,-2.2893,-2.144,-2.1181,-2.1275,-2.1552,-2.1718,-2.1764,-2.1628,-2.1458,-2.1258,-2.1023,-2.0634,-2.032,-2.0237,-1.9367,-1.8777,-1.8659,-1.7464,-1.6709,-1.6752,-1.6672,-1.6744,-1.6951,-1.7188,-1.7105,-1.6752,-1.6595,-1.6595,-1.6752,-1.6752,-1.6752,-1.671,-1.6552,-1.6522,-1.6522,-1.6522,-1.6522,-1.6522,-1.6522,-1.6522,-1.6522,-1.6522,-1.6522,-1.6522,-1.6522,-1.6522,-1.6522,-2.6691,-2.6691,-2.6691,-2.6691,-2.6691,-2.6691,-2.6691,-2.6691,-2.6841,-2.7241,-2.6939,-2.6691,-2.6691,-2.6691,-2.6691,-2.6691,-2.6691,-2.6691,-2.6691,-2.6691,-2.6691,-2.6691,-2.6691,-2.6691,-2.6691,-2.6691,-2.6691,-2.6691,-2.6691,-2.6691,-2.6691,-2.6691,-2.6691,-2.6691,-2.6691,-2.6691,-2.6691,-2.6691,-2.6691,-2.6691,-2.6691,-2.6691,-2.6691,-2.6691,-2.6691,-2.6691,-2.6691,-2.6691,-2.6691,-2.6691,-2.6691,-2.6691,-2.6691,-2.6691,-2.6691,-2.6691,-2.6691,-2.659,-2.612,-2.5997,-2.5997,-2.5997,-2.5997,-2.6104,-2.659,-2.6691,-2.6168,-2.4299,-2.3885,-2.3423,-2.1892,-2.1582,-2.1582,-2.1582,-2.2003,-2.2135,-2.1658,-2.1147,-2.0863,-2.0975,-1.9703,-1.92,-2.0196,-1.9396,-1.917,-2.0088,-1.9647,-1.8743,-1.7381,-1.7312,-1.7544,-1.8066,-1.7585,-1.7312,-1.7312,-1.6752,-1.6752,-1.7312,-1.7312,-1.7312,-1.7271,-1.6752,-1.6522,-1.6522,-1.6522,-1.6522,-1.6522,-1.6522,-1.6522,-1.6522,-1.6522,-1.6522,-1.6522,-1.6522,-1.6522,-1.6522,-2.6691,-2.6939,-2.7115,-2.7115,-2.7334,-2.75,-2.75,-2.75,-2.756,-2.7678,-2.7589,-2.75,-2.75,-2.7019,-2.6808,-2.7083,-2.7115,-2.7115,-2.7115,-2.7365,-2.7396,-2.7115,-2.7348,-2.75,-2.75,-2.75,-2.75,-2.75,-2.75,-2.75,-2.75,-2.75,-2.7348,-2.7115,-2.7115,-2.6971,-2.6691,-2.6691,-2.6691,-2.6691,-2.6691,-2.6691,-2.6691,-2.6691,-2.6691,-2.6691,-2.6691,-2.6691,-2.6691,-2.6691,-2.6691,-2.6691,-2.6691,-2.6691,-2.6691,-2.6691,-2.6691,-2.6657,-2.6521,-2.647,-2.647,-2.647,-2.647,-2.6521,-2.6657,-2.6691,-2.6387,-2.5295,-2.4641,-2.4003,-2.3013,-2.2442,-2.2077,-2.2077,-2.2209,-2.2254,-2.2106,-2.194,-2.1836,-2.1886,-2.1475,-2.1319,-2.1628,-2.0734,-2.0159,-2.0206,-1.9445,-1.8935,-1.8757,-1.8815,-1.8783,-1.8579,-1.8468,-1.8224,-1.7867,-1.7666,-1.7504,-1.7312,-1.7666,-1.7867,-1.7827,-1.7666,-1.7585,-1.7585,-1.7585,-1.7585,-1.7585,-1.7585,-1.7585,-1.7585,-1.7585,-1.7585,-1.7544,-1.7188,-1.7034,-1.6993,-2.7147,-2.7348,-2.7547,-2.7547,-2.7736,-2.7897,-2.7897,-2.7897,-2.7954,-2.8075,-2.7982,-2.7954,-2.8075,-2.753,-2.7241,-2.75,-2.7547,-2.7547,-2.7547,-2.7754,-2.7783,-2.7547,-2.7783,-2.7897,-2.7897,-2.7897,-2.7897,-2.7897,-2.7897,-2.7897,-2.7897,-2.7897,-2.7783,-2.7547,-2.7547,-2.7396,-2.7147,-2.7147,-2.7147,-2.7147,-2.7147,-2.7051,-2.6939,-2.6939,-2.6841,-2.6691,-2.6691,-2.6691,-2.6691,-2.6691,-2.6691,-2.6691,-2.6691,-2.6691,-2.6691,-2.6691,-2.6691,-2.6691,-2.6691,-2.6691,-2.6691,-2.6691,-2.6691,-2.6691,-2.6691,-2.6691,-2.6488,-2.5761,-2.5,-2.4255,-2.3528,-2.2801,-2.231,-2.231,-2.2388,-2.2426,-2.2293,-2.2388,-2.2354,-2.2061,-2.2032,-2.2032,-2.2032,-2.1472,-2.1084,-2.099,-2.044,-2.0208,-2.0492,-1.9913,-1.9534,-1.936,-1.9222,-1.8902,-1.8419,-1.8224,-1.8027,-1.7907,-1.8263,-1.8419,-1.838,-1.8185,-1.8106,-1.8106,-1.8106,-1.8106,-1.8106,-1.8106,-1.8106,-1.8106,-1.8106,-1.8106,-1.8066,-1.7706,-1.7585,-1.7544,-2.7897,-2.7926,-2.7926,-2.7926,-2.7954,-2.7982,-2.7982,-2.7982,-2.8075,-2.8394,-2.8156,-2.8093,-2.842,-2.8156,-2.7982,-2.7982,-2.7954,-2.7926,-2.7926,-2.7954,-2.7954,-2.7954,-2.7954,-2.7982,-2.7982,-2.7982,-2.7982,-2.7982,-2.7982,-2.7982,-2.7982,-2.7982,-2.7954,-2.7926,-2.7926,-2.7926,-2.7897,-2.7897,-2.7897,-2.7897,-2.7897,-2.7695,-2.7317,-2.7317,-2.7115,-2.6774,-2.6774,-2.6774,-2.6774,-2.6774,-2.6774,-2.6774,-2.6774,-2.6774,-2.6791,-2.6725,-2.6691,-2.6691,-2.6725,-2.6758,-2.6758,-2.6791,-2.6758,-2.6758,-2.6758,-2.6725,-2.6505,-2.5828,-2.505,-2.4272,-2.3596,-2.2863,-2.2321,-2.2321,-2.2563,-2.2652,-2.2388,-2.2563,-2.2459,-2.1744,-2.1642,-2.1658,-2.1658,-2.1658,-2.1823,-2.2209,-2.2237,-2.2237,-2.2237,-2.0668,-1.9939,-2.0382,-1.9939,-1.9477,-1.9066,-1.8521,-1.8496,-1.8968,-1.893,-1.893,-1.893,-1.8458,-1.8224,-1.8224,-1.8224,-1.8224,-1.8224,-1.8224,-1.8224,-1.8224,-1.8224,-1.8224,-1.8224,-1.8185,-1.8185,-1.8145,-2.7897,-2.8102,-2.829,-2.829,-2.8533,-2.8743,-2.8743,-2.8743,-2.8767,-2.8839,-2.8791,-2.8767,-2.8839,-2.8791,-2.8743,-2.8743,-2.8464,-2.829,-2.829,-2.8558,-2.8608,-2.829,-2.8583,-2.8743,-2.8743,-2.8743,-2.8743,-2.8743,-2.8743,-2.8743,-2.8743,-2.8743,-2.8583,-2.829,-2.829,-2.8129,-2.7897,-2.7897,-2.7897,-2.7897,-2.7897,-2.784,-2.7754,-2.7754,-2.7678,-2.7636,-2.7636,-2.7636,-2.7636,-2.7636,-2.7636,-2.7636,-2.7636,-2.7636,-2.7517,-2.6873,-2.6691,-2.6758,-2.7083,-2.7147,-2.7241,-2.753,-2.7396,-2.7147,-2.7147,-2.6939,-2.664,-2.6471,-2.5389,-2.4455,-2.4255,-2.3335,-2.2599,-2.2599,-2.2873,-2.3045,-2.2989,-2.2822,-2.2643,-2.2459,-2.2254,-2.2135,-2.2135,-2.2135,-2.2032,-2.1794,-2.1764,-2.1764,-2.1764,-2.1352,-2.118,-2.129,-2.0878,-2.0616,-2.0501,-2.0008,-1.9687,-1.953,-1.9095,-1.9132,-1.953,-1.9369,-1.9332,-1.9332,-1.9332,-1.9332,-1.9332,-1.9332,-1.9332,-1.9332,-1.9332,-1.9332,-1.9281,-1.8855,-1.8688,-1.865,-2.8404,-2.8558,-2.8682,-2.8682,-2.8863,-2.8994,-2.8994,-2.8994,-2.8994,-2.8994,-2.8994,-2.8994,-2.8994,-2.8994,-2.8994,-2.8994,-2.8797,-2.8682,-2.8682,-2.8863,-2.8887,-2.8682,-2.8887,-2.8994,-2.8994,-2.8994,-2.8994,-2.8994,-2.8994,-2.8994,-2.8994,-2.8994,-2.8887,-2.8682,-2.8682,-2.8583,-2.8404,-2.8404,-2.8404,-2.8404,-2.8404,-2.8281,-2.8129,-2.8129,-2.802,-2.7897,-2.7897,-2.7897,-2.7897,-2.7897,-2.7897,-2.7897,-2.7897,-2.7897,-2.7794,-2.7396,-2.7241,-2.7303,-2.75,-2.756,-2.7636,-2.784,-2.7754,-2.7547,-2.7317,-2.7115,-2.6954,-2.6954,-2.5774,-2.479,-2.4913,-2.3841,-2.2923,-2.2923,-2.3212,-2.3369,-2.3212,-2.3045,-2.2923,-2.2923,-2.2571,-2.2349,-2.2463,-2.236,-2.218,-2.1928,-2.1928,-2.1928,-2.1928,-2.1928,-2.1823,-2.1628,-2.1399,-2.1181,-2.0991,-2.0764,-2.0532,-2.0277,-1.9989,-1.9989,-2.0277,-2.0277,-2.0277,-2.0277,-2.0277,-2.0174,-1.9965,-1.9965,-1.9874,-1.969,-1.969,-1.969,-1.9639,-1.9369,-1.9281,-1.9207,-2.8994,-2.8994,-2.8994,-2.8994,-2.8994,-2.8994,-2.8994,-2.8994,-2.8994,-2.8994,-2.8994,-2.8994,-2.8994,-2.8994,-2.8994,-2.8994,-2.8994,-2.8994,-2.8994,-2.8994,-2.8994,-2.8994,-2.8994,-2.8994,-2.8994,-2.8994,-2.8994,-2.8994,-2.8994,-2.8994,-2.8994,-2.8994,-2.8994,-2.8994,-2.8994,-2.8994,-2.8994,-2.8994,-2.8994,-2.8994,-2.8994,-2.8815,-2.8471,-2.8471,-2.8316,-2.8065,-2.8065,-2.8065,-2.8065,-2.8065,-2.8065,-2.8065,-2.8065,-2.8065,-2.8065,-2.8065,-2.8065,-2.8065,-2.801,-2.8037,-2.8065,-2.8065,-2.8037,-2.788,-2.7542,-2.7439,-2.7378,-2.7378,-2.6179,-2.5167,-2.5455,-2.4282,-2.3259,-2.3212,-2.3522,-2.3671,-2.3305,-2.3277,-2.3277,-2.3277,-2.2773,-2.2517,-2.2746,-2.2581,-2.2443,-2.2443,-2.2443,-2.2415,-2.236,-2.236,-2.2175,-2.1718,-2.1718,-2.1507,-2.1086,-2.1086,-2.1055,-2.0991,-2.0991,-2.0991,-2.0991,-2.0991,-2.0991,-2.0991,-2.0991,-2.0748,-2.0416,-2.0416,-2.0193,-1.9889,-1.9889,-1.9889,-1.9889,-1.9889,-1.9889,-1.9889,-2.8994,-2.8994,-2.8994,-2.8994,-2.8994,-2.8994,-2.8994,-2.8994,-2.8994,-2.8994,-2.8994,-2.8994,-2.8994,-2.8994,-2.8994,-2.8994,-2.8994,-2.8994,-2.8994,-2.8994,-2.8994,-2.8994,-2.8994,-2.8994,-2.8994,-2.8994,-2.8994,-2.8994,-2.8994,-2.8994,-2.8994,-2.8994,-2.8994,-2.8994,-2.8994,-2.8994,-2.8994,-2.8994,-2.8994,-2.8994,-2.8994,-2.8952,-2.8905,-2.8905,-2.8863,-2.8815,-2.8815,-2.8815,-2.8815,-2.8815,-2.8815,-2.8815,-2.8815,-2.8815,-2.8815,-2.8815,-2.8815,-2.8767,-2.842,-2.8583,-2.8815,-2.8815,-2.8565,-2.8316,-2.8246,-2.802,-2.7811,-2.7811,-2.6541,-2.5429,-2.5508,-2.4468,-2.3522,-2.3253,-2.3714,-2.3996,-2.3671,-2.361,-2.361,-2.361,-2.3277,-2.3087,-2.3117,-2.3069,-2.3063,-2.3063,-2.3063,-2.294,-2.266,-2.2634,-2.251,-2.2209,-2.218,-2.1974,-2.1521,-2.1491,-2.1337,-2.0991,-2.0991,-2.0991,-2.0991,-2.0991,-2.0991,-2.0991,-2.0991,-2.0959,-2.0894,-2.0894,-2.0862,-2.0797,-2.0797,-2.0797,-2.0797,-2.0797,-2.0797,-2.0731,-2.8994,-2.8994,-2.8994,-2.8994,-2.8994,-2.8994,-2.8994,-2.8994,-2.9044,-2.92,-2.9222,-2.9267,-2.9375,-2.9377,-2.9377,-2.9377,-2.9377,-2.9377,-2.9377,-2.9138,-2.8994,-2.8994,-2.8994,-2.8994,-2.8994,-2.8994,-2.9067,-2.9222,-2.9222,-2.927,-2.9377,-2.927,-2.9222,-2.9203,-2.9067,-2.8994,-2.8994,-2.8994,-2.8994,-2.9017,-2.9156,-2.9134,-2.9017,-2.9156,-2.9134,-2.8994,-2.8994,-2.8994,-2.8994,-2.8994,-2.8994,-2.8994,-2.8994,-2.8994,-2.8994,-2.8994,-2.8994,-2.8952,-2.8773,-2.8863,-2.8994,-2.8994,-2.8863,-2.8658,-2.8446,-2.829,-2.8183,-2.8183,-2.6887,-2.5846,-2.6056,-2.4925,-2.3917,-2.3756,-2.3996,-2.4151,-2.3996,-2.3816,-2.3774,-2.3955,-2.3522,-2.3259,-2.3437,-2.3323,-2.3189,-2.3189,-2.3189,-2.3117,-2.2972,-2.2972,-2.2915,-2.2798,-2.2453,-2.2209,-2.1974,-2.1974,-2.1869,-2.1691,-2.1691,-2.1691,-2.1691,-2.1691,-2.1691,-2.1691,-2.1691,-2.1554,-2.1306,-2.1306,-2.1181,-2.0991,-2.0991,-2.0991,-2.0991,-2.0991,-2.0991,-2.0959,-2.9163,-2.9163,-2.9163,-2.9163,-2.9163,-2.9163,-2.9163,-2.9163,-2.9228,-2.9435,-2.9474,-2.9532,-2.9678,-2.9696,-2.9696,-2.9696,-2.9696,-2.9696,-2.9696,-2.9357,-2.9163,-2.9163,-2.9163,-2.9163,-2.9163,-2.9163,-2.927,-2.9474,-2.9474,-2.9551,-2.9696,-2.9533,-2.9474,-2.9474,-2.9249,-2.9163,-2.9163,-2.9163,-2.9163,-2.9185,-2.9394,-2.9353,-2.9203,-2.9394,-2.9312,-2.9089,-2.9089,-2.9044,-2.8994,-2.8994,-2.8994,-2.8994,-2.8994,-2.8994,-2.8994,-2.8994,-2.8994,-2.8994,-2.8994,-2.8994,-2.8994,-2.8994,-2.8994,-2.8929,-2.859,-2.854,-2.854,-2.854,-2.7272,-2.6236,-2.6551,-2.5291,-2.417,-2.4094,-2.4151,-2.417,-2.4094,-2.3917,-2.3917,-2.417,-2.3753,-2.3544,-2.3795,-2.3588,-2.3414,-2.3414,-2.3414,-2.3392,-2.3323,-2.3323,-2.3277,-2.3189,-2.2747,-2.2453,-2.2371,-2.2371,-2.236,-2.231,-2.231,-2.231,-2.231,-2.231,-2.231,-2.231,-2.231,-2.2106,-2.1764,-2.1764,-2.1568,-2.1291,-2.1291,-2.1291,-2.1291,-2.1291,-2.1291,-2.1291,-2.9643,-2.9643,-2.9643,-2.9643,-2.9643,-2.9643,-2.9643,-2.9643,-2.9661,-2.9678,-2.9678,-2.9678,-2.9696,-2.9696,-2.9696,-2.9696,-2.9696,-2.9696,-2.9696,-2.9678,-2.9643,-2.9643,-2.9643,-2.9643,-2.9643,-2.9643,-2.9661,-2.9678,-2.9678,-2.9678,-2.9696,-2.9678,-2.9678,-2.9678,-2.9661,-2.9643,-2.9643,-2.9643,-2.9643,-2.9661,-2.9678,-2.9661,-2.9661,-2.9678,-2.9551,-2.9372,-2.9372,-2.9203,-2.8994,-2.8994,-2.8994,-2.8994,-2.8994,-2.8994,-2.8994,-2.8994,-2.8994,-2.8994,-2.8994,-2.8994,-2.8994,-2.8994,-2.8994,-2.8994,-2.8952,-2.897,-2.897,-2.897,-2.7688,-2.6551,-2.6573,-2.5291,-2.4094,-2.3795,-2.3996,-2.4094,-2.3774,-2.3996,-2.417,-2.4208,-2.4151,-2.4151,-2.417,-2.4151,-2.4132,-2.4132,-2.4132,-2.3996,-2.3671,-2.3671,-2.3522,-2.3212,-2.3159,-2.2972,-2.2669,-2.2669,-2.2537,-2.231,-2.231,-2.231,-2.231,-2.231,-2.231,-2.231,-2.231,-2.2282,-2.2254,-2.2254,-2.2237,-2.2209,-2.2209,-2.2209,-2.2209,-2.2209,-2.2209,-2.2135,-2.9696,-2.9696,-2.9696,-2.9696,-2.9696,-2.9696,-2.9696,-2.9696,-2.9729,-2.9877,-2.9893,-2.9958,-3.0114,-3.0128,-3.0128,-3.0128,-3.0128,-3.0128,-3.0128,-3.0128,-3.0007,-2.9713,-2.9696,-2.9696,-2.9696,-2.9696,-2.9746,-2.9893,-2.9893,-2.9973,-3.0128,-2.9973,-2.9893,-2.9877,-2.9765,-2.9696,-2.9696,-2.9696,-2.9696,-2.9713,-2.9829,-2.9813,-2.9713,-2.9845,-2.9678,-2.9433,-2.9551,-2.9334,-2.904,-2.9181,-2.9134,-2.8994,-2.8994,-2.8994,-2.8994,-2.8994,-2.8994,-2.8994,-2.8994,-2.8994,-2.8994,-2.8994,-2.8994,-2.8994,-2.8994,-2.8994,-2.8994,-2.8994,-2.8117,-2.7181,-2.6704,-2.5695,-2.4739,-2.4107,-2.4132,-2.4151,-2.4016,-2.4113,-2.419,-2.419,-2.419,-2.419,-2.419,-2.419,-2.419,-2.419,-2.419,-2.4133,-2.4016,-2.4016,-2.3937,-2.3816,-2.3816,-2.3566,-2.3021,-2.3021,-2.2965,-2.2857,-2.2857,-2.2857,-2.2857,-2.2857,-2.2857,-2.2857,-2.2857,-2.2857,-2.2857,-2.2857,-2.2747,-2.2537,-2.2537,-2.2453,-2.231,-2.231,-2.231,-2.2265,-2.9912,-2.9912,-2.9912,-2.9912,-2.9912,-2.9912,-2.9912,-2.9912,-2.9958,-3.0109,-3.0136,-3.0196,-3.0367,-3.0398,-3.0398,-3.0398,-3.0398,-3.0398,-3.0398,-3.0398,-3.026,-2.9927,-2.9912,-2.9912,-2.9912,-2.9912,-2.9992,-3.0136,-3.0136,-3.0209,-3.0398,-3.0209,-3.0136,-3.0122,-2.9973,-2.9912,-2.9912,-2.9912,-2.9912,-2.9927,-3.008,-3.0032,-2.9927,-3.0061,-2.9912,-2.9607,-2.9729,-2.9551,-2.9249,-2.9435,-2.9375,-2.9228,-2.9228,-2.9228,-2.9228,-2.9228,-2.9228,-2.9228,-2.9228,-2.9228,-2.9206,-2.9138,-2.9181,-2.9228,-2.9228,-2.9228,-2.9228,-2.9228,-2.8582,-2.7746,-2.6849,-2.6037,-2.5206,-2.4337,-2.419,-2.419,-2.419,-2.419,-2.419,-2.419,-2.419,-2.4228,-2.4284,-2.4284,-2.4321,-2.4393,-2.4393,-2.4357,-2.4303,-2.4228,-2.419,-2.419,-2.419,-2.3976,-2.3522,-2.3414,-2.3282,-2.3189,-2.3189,-2.3189,-2.3189,-2.3189,-2.3189,-2.3189,-2.3189,-2.3189,-2.3189,-2.3189,-2.2996,-2.2721,-2.2822,-2.2678,-2.2453,-2.2544,-2.2571,-2.2571,-3.0398,-3.0398,-3.0398,-3.0398,-3.0398,-3.0398,-3.0398,-3.0398,-3.0398,-3.0398,-3.0398,-3.0398,-3.0398,-3.0398,-3.0398,-3.0398,-3.0398,-3.0398,-3.0398,-3.0398,-3.0398,-3.0398,-3.0398,-3.0398,-3.0398,-3.0398,-3.0398,-3.0398,-3.0398,-3.0398,-3.0398,-3.0398,-3.0398,-3.0398,-3.0398,-3.0398,-3.0398,-3.0398,-3.0398,-3.0398,-3.0398,-3.0398,-3.0398,-3.0398,-3.0222,-2.9999,-2.9999,-2.9877,-2.9696,-2.9713,-2.9696,-2.9696,-2.9696,-2.9696,-2.9696,-2.9696,-2.9696,-2.9696,-2.9696,-2.9696,-2.9643,-2.9454,-2.9551,-2.9696,-2.9696,-2.9696,-2.9696,-2.9696,-2.907,-2.819,-2.7101,-2.6244,-2.5372,-2.4376,-2.419,-2.419,-2.419,-2.419,-2.419,-2.419,-2.419,-2.4284,-2.4478,-2.4512,-2.4594,-2.479,-2.4804,-2.4716,-2.4512,-2.4321,-2.419,-2.419,-2.419,-2.419,-2.419,-2.3876,-2.3544,-2.3212,-2.3212,-2.3212,-2.3212,-2.3212,-2.3212,-2.3212,-2.3212,-2.3212,-2.3212,-2.3212,-2.3021,-2.2746,-2.3069,-2.2996,-2.2746,-2.3069,-2.3189,-2.3189,-3.0398,-3.0398,-3.0398,-3.0398,-3.0398,-3.0398,-3.0398,-3.0398,-3.0398,-3.0398,-3.0398,-3.0398,-3.0398,-3.0398,-3.0398,-3.0398,-3.0398,-3.0398,-3.0398,-3.0398,-3.0398,-3.0398,-3.0398,-3.0398,-3.0398,-3.0398,-3.0398,-3.0398,-3.0398,-3.0398,-3.0398,-3.0398,-3.0398,-3.0398,-3.0398,-3.0398,-3.0398,-3.0398,-3.0398,-3.0398,-3.0398,-3.0398,-3.0398,-3.0398,-3.0222,-3.0028,-3.0209,-3.0037,-2.9731,-2.9861,-2.9813,-2.9696,-2.9696,-2.9696,-2.9696,-2.9696,-2.9696,-2.9696,-2.9696,-2.9796,-2.9861,-2.9661,-2.9643,-2.9696,-2.9696,-2.9696,-2.9696,-2.9696,-2.9506,-2.8885,-2.7387,-2.6817,-2.606,-2.4632,-2.4284,-2.419,-2.419,-2.4321,-2.441,-2.441,-2.4545,-2.4639,-2.47,-2.4716,-2.4731,-2.479,-2.4804,-2.4775,-2.4716,-2.4654,-2.4623,-2.4623,-2.4623,-2.4543,-2.441,-2.4172,-2.3996,-2.3896,-2.3896,-2.3896,-2.3896,-2.3896,-2.3896,-2.3896,-2.3896,-2.3896,-2.3896,-2.3896,-2.3692,-2.3414,-2.3522,-2.3346,-2.3069,-2.3165,-2.3189,-2.3189,-3.0398,-3.0398,-3.0398,-3.0398,-3.0398,-3.0398,-3.0398,-3.0398,-3.0398,-3.0398,-3.0398,-3.0398,-3.0398,-3.0398,-3.0398,-3.0398,-3.0398,-3.0398,-3.0398,-3.0398,-3.0398,-3.0398,-3.0398,-3.0398,-3.0398,-3.0398,-3.0398,-3.0398,-3.0398,-3.0398,-3.0398,-3.0398,-3.0398,-3.0398,-3.0398,-3.0398,-3.0398,-3.0398,-3.0398,-3.0398,-3.0398,-3.0398,-3.0398,-3.0398,-3.0299,-3.0182,-3.0343,-3.0215,-3.0007,-3.0122,-3.008,-2.9977,-2.9977,-2.9977,-2.9977,-2.9977,-2.9977,-2.9977,-2.9977,-3.0066,-3.0122,-3.0007,-2.9977,-2.9977,-2.9977,-2.9977,-2.9977,-2.9977,-2.9977,-2.9544,-2.8097,-2.7478,-2.6726,-2.5314,-2.4733,-2.4445,-2.4445,-2.4545,-2.4607,-2.4607,-2.4731,-2.4814,-2.4864,-2.4877,-2.4923,-2.4987,-2.4923,-2.4877,-2.4877,-2.4828,-2.4804,-2.4804,-2.4804,-2.4746,-2.4623,-2.4495,-2.4357,-2.419,-2.419,-2.419,-2.419,-2.419,-2.419,-2.419,-2.419,-2.419,-2.419,-2.419,-2.3996,-2.3714,-2.3855,-2.3692,-2.3414,-2.3638,-2.366,-2.3631,-3.0398,-3.0398,-3.0398,-3.0398,-3.0398,-3.0398,-3.0398,-3.0398,-3.0398,-3.0398,-3.0398,-3.0398,-3.0398,-3.0398,-3.0398,-3.0398,-3.0398,-3.0398,-3.0398,-3.0398,-3.0398,-3.0398,-3.0398,-3.0398,-3.0398,-3.0398,-3.0398,-3.0398,-3.0398,-3.0398,-3.0398,-3.0398,-3.0398,-3.0398,-3.0398,-3.0398,-3.0398,-3.0398,-3.0398,-3.0398,-3.0398,-3.0398,-3.0398,-3.0398,-3.0398,-3.0398,-3.0398,-3.0398,-3.0398,-3.0398,-3.0398,-3.0398,-3.0398,-3.0398,-3.0398,-3.0398,-3.0398,-3.0398,-3.0398,-3.0398,-3.0398,-3.0398,-3.0398,-3.0398,-3.0398,-3.0398,-3.0398,-3.0398,-3.0398,-3.0074,-2.9008,-2.8147,-2.726,-2.6204,-2.5347,-2.4804,-2.4804,-2.4818,-2.4832,-2.4832,-2.4828,-2.4896,-2.501,-2.5022,-2.5099,-2.5293,-2.5141,-2.5022,-2.5022,-2.4904,-2.4828,-2.4828,-2.4828,-2.4847,-2.4832,-2.4832,-2.4623,-2.4247,-2.4247,-2.4247,-2.4247,-2.4247,-2.4247,-2.4247,-2.4247,-2.4247,-2.4247,-2.4247,-2.4077,-2.384,-2.4134,-2.4057,-2.3862,-2.4337,-2.441,-2.4303,-3.0398,-3.0398,-3.0398,-3.0398,-3.0398,-3.0398,-3.0398,-3.0398,-3.0398,-3.0398,-3.0398,-3.0398,-3.0398,-3.0398,-3.0398,-3.0398,-3.0398,-3.0398,-3.0398,-3.0398,-3.0398,-3.0398,-3.0398,-3.0398,-3.0398,-3.0398,-3.0398,-3.0398,-3.0398,-3.0398,-3.0398,-3.0398,-3.0398,-3.0398,-3.0398,-3.0398,-3.0398,-3.0398,-3.0398,-3.0398,-3.0398,-3.0398,-3.0398,-3.0398,-3.0398,-3.0398,-3.0398,-3.0398,-3.0398,-3.0398,-3.0398,-3.0398,-3.0398,-3.0398,-3.0398,-3.0398,-3.0398,-3.0398,-3.0398,-3.0398,-3.0398,-3.0398,-3.0398,-3.0398,-3.0398,-3.0398,-3.0398,-3.0398,-3.0398,-3.0129,-2.9202,-2.8262,-2.73,-2.639,-2.5432,-2.4804,-2.4804,-2.4891,-2.4949,-2.4949,-2.5096,-2.5192,-2.5224,-2.5224,-2.5253,-2.5303,-2.5264,-2.5224,-2.5224,-2.5222,-2.5182,-2.5182,-2.5182,-2.5107,-2.4962,-2.4949,-2.4864,-2.467,-2.467,-2.467,-2.467,-2.467,-2.467,-2.467,-2.467,-2.467,-2.467,-2.467,-2.462,-2.457,-2.4636,-2.462,-2.457,-2.4682,-2.47,-2.4685,-3.0509,-3.0509,-3.0509,-3.0509,-3.0509,-3.0509,-3.0509,-3.0509,-3.0509,-3.0509,-3.0509,-3.0509,-3.0509,-3.0509,-3.0509,-3.0509,-3.0509,-3.0509,-3.0509,-3.0509,-3.0509,-3.0509,-3.0509,-3.0509,-3.0509,-3.0509,-3.0462,-3.0398,-3.0398,-3.0398,-3.0398,-3.0398,-3.0398,-3.0398,-3.0398,-3.0398,-3.0398,-3.0398,-3.0398,-3.0398,-3.0398,-3.0398,-3.0398,-3.0398,-3.0398,-3.0398,-3.0398,-3.0417,-3.0442,-3.0482,-3.0509,-3.0509,-3.0509,-3.0509,-3.0509,-3.0509,-3.0509,-3.0509,-3.0509,-3.0509,-3.0509,-3.0509,-3.0509,-3.0491,-3.0452,-3.0417,-3.0402,-3.0441,-3.0417,-3.0275,-2.9794,-2.8948,-2.8037,-2.7201,-2.6281,-2.5513,-2.5101,-2.5096,-2.5152,-2.5152,-2.5243,-2.5313,-2.5337,-2.5346,-2.5357,-2.5357,-2.5322,-2.5303,-2.5303,-2.5303,-2.5303,-2.5303,-2.5303,-2.5253,-2.5152,-2.5152,-2.5107,-2.5043,-2.4888,-2.4804,-2.4804,-2.4804,-2.4804,-2.4804,-2.4804,-2.4804,-2.4804,-2.4804,-2.4804,-2.4804,-2.4804,-2.4804,-2.4818,-2.4864,-2.4962,-2.5012,-3.0606,-3.0606,-3.0606,-3.0606,-3.0606,-3.0606,-3.0606,-3.0606,-3.0606,-3.0606,-3.0606,-3.0606,-3.0606,-3.0606,-3.0606,-3.0606,-3.0606,-3.0606,-3.0606,-3.0606,-3.0606,-3.0606,-3.0606,-3.0606,-3.0606,-3.0606,-3.0552,-3.0419,-3.0419,-3.0419,-3.0419,-3.0419,-3.0419,-3.0419,-3.0419,-3.0419,-3.0419,-3.0419,-3.0419,-3.0419,-3.0419,-3.0419,-3.0419,-3.0419,-3.0419,-3.0419,-3.0419,-3.0482,-3.0521,-3.0581,-3.0606,-3.0606,-3.0606,-3.0606,-3.0606,-3.0606,-3.0606,-3.0606,-3.0606,-3.0606,-3.0606,-3.0606,-3.0606,-3.0587,-3.0533,-3.0472,-3.0419,-3.05,-3.0451,-3.0398,-3.0398,-2.9698,-2.8871,-2.8198,-2.7255,-2.6351,-2.564,-2.5418,-2.5331,-2.533,-2.533,-2.5354,-2.5408,-2.5415,-2.5415,-2.5427,-2.5371,-2.533,-2.533,-2.533,-2.533,-2.533,-2.533,-2.5321,-2.5322,-2.5322,-2.5313,-2.5303,-2.5031,-2.4888,-2.4888,-2.4888,-2.4888,-2.4888,-2.4888,-2.4888,-2.4888,-2.4888,-2.4888,-2.4888,-2.4888,-2.4888,-2.4896,-2.5018,-2.5152,-2.5274,-3.0606,-3.0606,-3.0606,-3.0606,-3.0606,-3.0606,-3.0606,-3.0606,-3.0606,-3.0606,-3.0606,-3.0606,-3.0606,-3.0606,-3.0606,-3.0606,-3.0606,-3.0606,-3.0606,-3.0606,-3.0606,-3.0606,-3.0606,-3.0606,-3.0606,-3.0606,-3.0594,-3.0568,-3.0568,-3.0568,-3.0568,-3.0568,-3.0568,-3.0568,-3.0568,-3.0568,-3.0568,-3.0568,-3.0568,-3.0568,-3.0568,-3.0568,-3.0568,-3.0568,-3.0568,-3.0568,-3.0568,-3.0575,-3.0587,-3.06,-3.0606,-3.0606,-3.0606,-3.0606,-3.0606,-3.0606,-3.0606,-3.0606,-3.0606,-3.0606,-3.0606,-3.0606,-3.0606,-3.0617,-3.0669,-3.0581,-3.05,-3.0498,-3.0451,-3.0398,-3.0398,-2.9698,-2.9063,-2.8948,-2.7621,-2.6583,-2.6528,-2.5867,-2.5401,-2.5477,-2.5463,-2.5488,-2.5498,-2.5498,-2.5498,-2.5498,-2.5488,-2.5463,-2.5463,-2.5463,-2.5463,-2.5463,-2.5463,-2.5447,-2.5395,-2.5395,-2.5354,-2.5303,-2.5253,-2.5233,-2.5233,-2.5233,-2.5233,-2.5233,-2.5233,-2.5233,-2.5233,-2.5233,-2.5233,-2.5233,-2.5233,-2.5233,-2.5233,-2.5253,-2.5274,-2.5303,-3.0777,-3.0777,-3.0777,-3.0777,-3.0777,-3.0777,-3.0777,-3.0777,-3.0777,-3.0777,-3.0777,-3.0777,-3.0777,-3.0777,-3.0777,-3.0777,-3.0777,-3.0777,-3.0777,-3.0777,-3.0777,-3.0777,-3.0777,-3.0777,-3.0777,-3.0777,-3.0777,-3.0777,-3.0662,-3.0606,-3.0606,-3.0606,-3.0606,-3.0606,-3.0606,-3.0606,-3.0606,-3.0606,-3.0606,-3.0606,-3.0606,-3.0606,-3.0606,-3.0606,-3.0606,-3.0611,-3.0633,-3.0661,-3.0665,-3.0732,-3.0777,-3.0777,-3.0777,-3.0777,-3.0777,-3.0777,-3.0777,-3.0777,-3.0777,-3.0777,-3.0777,-3.0777,-3.0777,-3.0782,-3.0793,-3.0703,-3.0611,-3.0561,-3.0463,-3.0398,-3.0398,-3.0102,-2.9679,-2.9179,-2.8125,-2.7217,-2.6765,-2.5971,-2.5477,-2.5508,-2.5539,-2.5558,-2.5558,-2.5558,-2.5558,-2.5558,-2.5511,-2.5493,-2.5493,-2.5493,-2.5493,-2.5493,-2.5493,-2.5493,-2.5459,-2.5459,-2.5441,-2.5401,-2.5401,-2.536,-2.5303,-2.5303,-2.5303,-2.5303,-2.5303,-2.5303,-2.5303,-2.5303,-2.5303,-2.5303,-2.5303,-2.5312,-2.5363,-2.5406,-2.5401,-2.5401]},{"header":{"parameterUnit":"m.s-1","parameterCategory":1,"la1":30.6,"la2":28.766,"lo1":-90.7593,"lo2":-88.6598,"dy":0.0162,"dx":0.0183,"nx":116,"ny":114,"refTime":"2023-08-08T06:00:00:Z","depth":0,"parameterNumber":3,"parameterNumberName":"V-component_of_WINDS"},"data":[0.0,0.0,0.0,0.0,0.0,0.0,0.0,0.0,0.0,0.0,0.0,0.0,0.0,0.0,0.0,0.0,0.0,0.0,0.0,0.0,0.0,0.0,0.0,0.0,0.0,0.0,0.0,0.0,0.0,0.0,0.0,0.0,0.0,0.0,0.0,0.0,0.0,0.0,0.0,0.0,0.0,0.0,0.0,0.0,0.0,0.0,0.0,0.0,0.0,0.0,0.0,0.0,0.0,0.0,0.0,0.0,0.0,0.0,0.0,0.0,0.0,0.0,0.0,0.0,0.0,0.0,0.0,0.0,0.0,0.0,0.0,0.0,0.0,0.0,0.0,0.0,0.0,0.0,0.0,0.0,0.0,0.0,0.0,0.0,0.0,0.0,0.0,0.0,0.0,0.0,0.0,0.0,0.0,0.0,0.0,0.0,0.0,0.0,0.0,0.0,0.0,0.0,0.0,0.0,0.0,0.0,0.0,0.0,0.0,0.0,0.0,0.0,0.0,0.0,0.0,0.0,0.0,0.0,0.0,0.0,0.0,0.0,0.0,0.0,0.0,0.0,0.0,0.0,0.0,0.0,0.0,0.0,0.0,0.0,0.0,0.0,0.0,0.0,0.0,0.0,0.0,0.0,0.0,0.0,0.0,0.0,0.0,0.0,0.0,0.0,0.0,0.0,0.0,0.0,0.0,0.0,0.0,0.0,0.0,0.0,0.0,0.0,0.0,0.0,0.0,0.0,0.0,0.0,0.0,0.0,0.0,0.0,0.0,0.0,0.0,0.0,0.0,0.0,0.0,0.0,0.0,0.0,0.0,0.0,0.0,0.0,0.0,0.0,0.0,0.0,0.0,0.0,0.0,0.0,0.0,0.0,0.0,0.0,0.0,0.0,0.0,0.0,0.0,0.0,0.0,0.0,0.0,0.0,0.0,0.0,0.0,0.0,0.0,0.0,0.0,0.0,0.0,0.0,0.0,0.0,0.0,0.0,0.0,0.0,0.0,0.0,0.0,0.0,0.0,0.0,0.0,0.0,0.0,0.0,0.0,0.0,0.0,0.0,0.0,0.0,0.0,0.0,0.0,0.0,0.0,0.0,0.0,0.0,0.0,0.0,0.0,0.0,0.0,0.0,0.0,0.0,0.0,0.0,0.0,0.0,0.0,0.0,0.0,0.0,0.0,0.0,0.0,0.0,0.0,0.0,0.0,0.0,0.0,0.0,0.0,0.0,0.0,0.0,0.0,0.0,0.0,0.0,0.0,0.0,0.0,0.0,0.0,0.0,0.0,0.0,0.0,0.0,0.0,0.0,0.0,0.0,0.0,0.0,0.0,0.0,0.0,0.0,0.0,0.0,0.0,0.0,0.0,0.0,0.0,0.0,0.0,0.0,0.0,0.0,0.0,0.0,0.0,0.0,0.0,0.0,0.0,0.0,0.0,0.0,0.0,0.0,0.0,0.0,0.0,0.0,0.0,0.0,0.0,0.0,0.0,0.0,0.0,0.0,0.0,0.0,0.0,0.0,0.0,0.0,0.0,0.0,0.0,0.0,0.0,0.0,0.0,0.0,0.0,0.0,0.0,0.0,0.0,0.0,0.0,0.0,0.0,0.0,0.0,0.0,0.0,0.0,0.0,0.0,0.0,0.0,0.0,0.0,0.0,0.0,0.0,0.0,0.0,0.0,0.0,0.0,0.0,0.0,0.0,0.0,0.0,0.0,0.0,0.0,0.0,0.0,0.0,0.0,0.0,0.0,0.0,0.0,0.0,0.0,0.0,0.0,0.0,0.0,0.0,0.0,0.0,0.0,0.0,0.0,0.0,0.0,0.0,0.0,0.0,0.0,0.0,0.0,0.0,0.0,0.0,0.0,0.0,0.0,0.0,0.0,0.0,0.0,0.0,0.0,0.0,0.0,0.0,0.0,0.0,0.0,0.0,0.0,0.0,0.0,0.0,0.0,0.0,0.0,0.0,0.0,0.0,0.0,0.0,0.0,0.0,0.0,0.0,0.0,0.0,0.0,0.0,0.0,0.0,0.0,0.0,0.0,0.0,0.0,0.0,0.0,0.0,0.0,0.0,0.0,0.0,0.0,0.0,0.0,0.0,0.0,0.0,0.0,0.0,0.0,0.0,0.0,0.0,0.0,0.0,0.0,0.0,0.0,0.0,0.0,0.0,0.0,0.0,0.0,0.0,0.0,0.0,0.0,0.0,0.0,0.0,0.0,0.0,0.0,0.0,0.0,0.0,0.0,0.0,0.0,0.0,0.0,0.0,0.0,0.0,0.0,0.0,0.0,0.0,0.0,0.0,0.0,0.0,0.0,0.0,0.0,0.0,0.0,0.0,0.0,0.0,0.0,0.0,0.0,0.0,0.0,0.0,0.0,0.0,0.0,0.0,0.0,0.0,0.0,0.0,0.0,0.0,0.0,0.0,0.0,0.0,0.0,0.0,0.0,0.0,0.0,0.0,0.0,0.0,0.0,0.0,0.0,0.0,0.0,0.0,0.0,0.0,0.0,0.0,0.0,0.0,0.0,0.0,0.0,0.0,0.0,0.0,0.0,0.0,0.0,0.0,0.0,0.0,0.0,0.0,0.0,0.0,0.0,0.0,0.0,0.0,0.0,0.0,0.0,0.0,0.0,0.0,0.0,0.0,0.0,0.0,0.0,0.0,0.0,0.0,0.0,0.0,0.0,0.0,0.0,0.0,0.0,0.0,0.0,0.0,0.0,0.0,0.0,0.0,0.0,0.0,0.0,0.0,0.0,0.0,0.0,0.0,0.0,0.0,0.0,0.0,0.0,0.0,0.0,0.0,0.0,0.0,0.0,0.0,0.0,0.0,0.0,0.0,0.0,0.0,0.0,0.0,0.0,0.0,0.0,0.0,0.0,0.0,0.0,0.0,0.0,0.0,0.0,0.0,0.0,0.0,0.0,0.0,0.0,0.0,0.0,0.0,0.0,0.0,0.0,0.0,0.0,0.0,0.0,0.0,0.0,0.0,0.0,0.0,0.0,0.0,0.0,0.0,0.0,0.0,0.0,0.0,0.0,0.0,0.0,0.0,0.0,0.0,0.0,0.0,0.0,0.0,0.0,0.0,0.0,0.0,0.0,0.0,0.0,0.0,0.0,0.0,0.0,0.0,0.0,0.0,0.0,0.0,0.0,0.0,0.0,0.0,0.0,0.0,0.0,0.0,0.0,0.0,0.0,0.0,0.0,0.0,0.0,0.0,0.0,0.0,0.0,0.0,0.0,0.0,0.0,0.0,0.0,0.0,0.0,0.0,0.0,0.0,0.0,0.0,0.0,0.0,0.0,0.0,0.0,0.0,0.0,0.0,0.0,0.0,0.0,0.0,0.0,0.0,0.0,0.0,0.0,0.0,0.0,0.0,0.0,0.0,0.0,0.0,0.0,0.0,0.0,0.0,0.0,0.0,0.0,0.0,0.0,0.0,0.0,0.0,0.0,0.0,0.0,0.0,0.0,0.0,0.0,0.0,0.0,0.0,0.0,0.0,0.0,0.0,0.0,0.0,0.0,0.0,0.0,0.0,0.0,0.0,0.0,0.0,0.0,0.0,0.0,0.0,0.0,0.0,0.0,0.0,0.0,0.0,0.0,0.0,0.0,0.0,0.0,0.0,0.0,0.0,0.0,0.0,0.0,0.0,0.0,0.0,0.0,0.0,0.0,0.0,0.0,0.0,0.0,0.0,0.0,0.0,0.0,0.0,0.0,0.0,0.0,0.0,0.0,0.0,0.0,0.0,0.0,0.0,0.0,0.0,0.0,0.0,0.0,0.0,0.0,0.0,0.0,0.0,0.0,0.0,0.0,0.0,0.0,0.0,0.0,0.0,0.0,0.0,0.0,0.0,0.0,0.0,0.0,0.0,0.0,0.0,0.0,0.0,0.0,0.0,0.0,0.0,0.0,0.0,0.0,0.0,0.0,0.0,0.0,0.0,0.0,0.0,0.0,0.0,0.0,0.0,0.0,0.0,0.0,0.0,0.0,0.0,0.0,0.0,0.0,0.0,0.0,0.0,0.0,0.0,0.0,0.0,0.0,0.0,0.0,0.0,0.0,0.0,0.0,0.0,0.0,0.0,0.0,0.0,0.0,0.0,0.0,0.0,0.0,0.0,0.0,0.0,0.0,0.0,0.0,0.0,0.0,0.0,0.0,0.0,0.0,0.0,0.0,0.0,0.0,0.0,0.0,0.0,0.0,0.0,0.0,0.0,0.0,0.0,0.0,0.0,0.0,0.0,0.0,0.0,0.0,0.0,0.0,0.0,0.0,0.0,0.0,0.0,0.0,0.0,0.0,0.0,0.0,0.0,0.0,0.0,0.0,0.0,0.0,0.0,0.0,0.0,0.0,0.0,0.0,0.0,0.0,0.0,0.0,0.0,0.0,0.0,0.0,0.0,0.0,0.0,0.0,0.0,0.0,0.0,0.0,0.0,0.0,0.0,0.0,0.0,0.0,0.0,0.0,0.0,0.0,0.0,0.0,0.0,0.0,0.0,0.0,0.0,0.0,0.0,0.0,0.0,0.0,0.0,0.0,0.0,0.0,0.0,0.0,0.0,0.0,0.0,0.0,0.0,0.0,0.0,0.0,0.0,0.0,0.0,0.0,0.0,0.0,0.0,0.0,0.0,0.0,0.0,0.0,0.0,0.0,0.0,0.0,0.0,0.0,0.0,0.0,0.0,0.0,0.0,0.0,0.0,0.0,0.0,0.0,0.0,0.0,0.0,0.0,0.0,0.0,0.0,0.0,0.0,0.0,0.0,0.0,0.0,0.0,0.0,0.0,0.0,0.0,0.0,0.0,0.0,0.0,0.0,0.0,0.0,0.0,0.0,0.0,0.0,0.0,0.0,0.0,0.0,0.0,0.0,0.0,0.0,0.0,0.0,0.0,0.0,0.0,0.0,0.0,0.0,0.0,0.0,0.0,0.0,0.0,0.0,0.0,0.0,0.0,0.0,0.0,0.0,0.0,0.0,0.0,0.0,0.0,0.0,0.0,0.0,0.0,0.0,0.0,0.0,0.0,0.0,0.0,0.0,0.0,0.0,0.0,0.0,0.0,0.0,0.0,0.0,0.0,0.0,0.0,0.0,0.0,0.0,0.0,0.0,0.0,0.0,0.0,0.0,0.0,0.0,0.0,0.0,0.0,0.0,0.0,0.0,0.0,0.0,0.0,0.0,0.0,0.0,0.0,0.0,0.0,0.0,0.0,0.0,0.0,0.0,0.0,0.0,0.0,0.0,0.0,0.0,0.0,0.0,0.0,0.0,0.0,0.0,0.0,0.0,0.0,0.0,0.0,0.0,0.0,0.0,0.0,0.0,0.0,0.0,0.0,0.0,0.0,0.0,0.0,0.0,0.0,0.0,0.0,0.0,0.0,0.0,0.0,0.0,0.0,0.0,0.0,0.0,0.0,0.0,0.0,0.0,0.0,0.0,0.0,0.0,0.0,0.0,0.0,0.0,0.0,0.0,0.0,0.0,0.0,0.0,0.0,0.0,0.0,0.0,0.0,0.0,0.0,0.0,0.0,0.0,0.0,0.0,0.0,0.0,0.0,0.0,0.0,0.0,0.0,0.0,0.0,0.0,0.0,0.0,0.0,0.0,0.0,0.0,0.0,0.0,0.0,0.0,0.0,0.0,0.0,0.0,0.0,0.0,0.0,0.0,0.0,0.0,0.0,0.0,0.0,0.0,0.0,0.0,0.0,0.0,0.0,0.0,0.0,0.0,0.0,0.0,0.0,0.0,0.0,0.0,0.0,0.0,0.0,0.0,0.0,0.0,0.0,0.0,0.0,0.0,0.0,0.0,0.0,0.0,0.0,0.0,0.0,0.0,0.0,0.0,0.0,0.0,0.0,0.0,0.0,0.0,0.0,0.0,0.0,0.0,0.0,0.0,0.0,0.0,0.0,0.0,0.0,0.0,0.0,0.0,0.0,0.0,0.0,0.0,0.0,0.0,0.0,0.0,0.0,0.0,0.0,0.0,0.0,0.0,0.0,0.0,0.0,0.0,0.0,0.0,0.0,0.0,0.0,0.0,0.0,0.0,0.0,0.0,0.0,0.0,0.0,0.0,0.0,0.0,0.0,0.0,0.0,0.0,0.0,-2.884,-2.8242,0.0,0.0,0.0,0.0,0.0,0.0,0.0,0.0,0.0,0.0,0.0,0.0,0.0,0.0,0.0,0.0,0.0,0.0,0.0,0.0,0.0,0.0,0.0,0.0,0.0,0.0,0.0,0.0,0.0,0.0,0.0,0.0,0.0,0.0,0.0,0.0,0.0,0.0,0.0,0.0,0.0,0.0,0.0,0.0,0.0,0.0,0.0,0.0,0.0,0.0,0.0,0.0,0.0,0.0,0.0,0.0,0.0,0.0,0.0,0.0,0.0,0.0,0.0,0.0,0.0,0.0,0.0,0.0,0.0,0.0,0.0,0.0,0.0,0.0,0.0,0.0,0.0,0.0,0.0,0.0,0.0,0.0,0.0,0.0,0.0,0.0,0.0,0.0,0.0,0.0,0.0,0.0,0.0,0.0,0.0,0.0,0.0,0.0,0.0,0.0,0.0,0.0,0.0,0.0,0.0,0.0,0.0,0.0,0.0,0.0,0.0,0.0,0.0,0.0,-2.9881,-2.9512,0.0,0.0,0.0,0.0,0.0,0.0,0.0,0.0,0.0,0.0,0.0,0.0,0.0,0.0,0.0,0.0,0.0,0.0,0.0,0.0,0.0,0.0,0.0,0.0,0.0,0.0,0.0,0.0,0.0,0.0,0.0,0.0,0.0,0.0,0.0,0.0,0.0,0.0,0.0,0.0,0.0,0.0,0.0,0.0,0.0,0.0,0.0,0.0,0.0,0.0,0.0,0.0,0.0,0.0,0.0,0.0,0.0,0.0,0.0,0.0,0.0,0.0,0.0,0.0,0.0,0.0,0.0,0.0,0.0,0.0,0.0,0.0,0.0,0.0,0.0,0.0,0.0,0.0,0.0,0.0,0.0,0.0,0.0,0.0,0.0,0.0,0.0,0.0,0.0,0.0,0.0,0.0,0.0,0.0,0.0,0.0,0.0,0.0,0.0,0.0,0.0,0.0,0.0,0.0,0.0,0.0,0.0,0.0,-3.0643,-3.0643,-3.0643,-3.0656,-3.0676,-3.0752,-3.0857,-3.0892,-3.0898,-3.0898,0.0,0.0,0.0,0.0,0.0,0.0,0.0,0.0,0.0,0.0,0.0,0.0,0.0,0.0,0.0,0.0,0.0,0.0,0.0,0.0,0.0,0.0,0.0,0.0,0.0,0.0,0.0,0.0,0.0,0.0,0.0,0.0,0.0,0.0,0.0,0.0,0.0,0.0,-2.6836,-2.6836,-2.7226,-2.793,0.0,0.0,0.0,0.0,0.0,0.0,0.0,0.0,0.0,0.0,0.0,0.0,0.0,0.0,0.0,0.0,0.0,0.0,0.0,0.0,0.0,0.0,0.0,0.0,0.0,0.0,0.0,0.0,0.0,0.0,0.0,0.0,0.0,0.0,0.0,0.0,0.0,0.0,0.0,0.0,0.0,0.0,0.0,0.0,-2.7832,-2.7949,0.0,0.0,0.0,0.0,0.0,0.0,0.0,0.0,0.0,0.0,0.0,0.0,0.0,-3.084,-3.0723,-3.082,-3.0879,-3.0857,-3.0857,-3.0857,-3.0857,-3.0856,-3.087,-3.0864,-3.0884,0.0,-3.0898,-3.0898,0.0,0.0,0.0,0.0,0.0,0.0,0.0,0.0,0.0,0.0,0.0,0.0,0.0,0.0,0.0,0.0,0.0,0.0,0.0,0.0,0.0,0.0,0.0,0.0,0.0,0.0,0.0,0.0,0.0,0.0,0.0,0.0,0.0,0.0,0.0,0.0,-2.6191,-2.6621,-2.7012,-2.75,-2.8203,-2.9004,-2.8633,-2.8672,-2.9082,-2.9961,0.0,0.0,0.0,0.0,0.0,0.0,0.0,0.0,0.0,0.0,0.0,0.0,0.0,0.0,0.0,0.0,0.0,0.0,0.0,0.0,0.0,0.0,0.0,0.0,0.0,0.0,0.0,0.0,0.0,0.0,0.0,0.0,0.0,0.0,0.0,0.0,0.0,0.0,0.0,-2.8066,-2.8301,-2.8301,-2.873,-2.9023,0.0,0.0,0.0,0.0,0.0,0.0,0.0,0.0,0.0,-3.0898,-3.0898,-3.0898,-3.0898,-3.0898,-3.0898,-3.0898,-3.0898,-3.0898,-3.0898,-3.0907,-3.0895,-3.0906,-3.0906,-3.0902,-3.0898,-3.0898,-3.0898,-3.0898,0.0,0.0,0.0,0.0,-3.0898,-3.0898,0.0,0.0,0.0,0.0,0.0,0.0,0.0,0.0,0.0,0.0,0.0,0.0,0.0,0.0,0.0,-2.0376,0.0,0.0,0.0,0.0,0.0,0.0,0.0,0.0,0.0,0.0,0.0,0.0,-2.668,-2.7226,-2.7676,-2.832,-2.9101,-2.9922,-2.9922,-2.9922,-2.998,-3.0625,-3.0898,0.0,0.0,0.0,0.0,0.0,0.0,0.0,0.0,0.0,0.0,0.0,0.0,0.0,0.0,0.0,0.0,0.0,0.0,0.0,0.0,0.0,0.0,0.0,0.0,0.0,0.0,0.0,0.0,0.0,0.0,0.0,0.0,0.0,0.0,0.0,0.0,0.0,0.0,-2.8828,-2.8965,-2.8965,-2.9531,-2.9922,0.0,0.0,0.0,0.0,0.0,0.0,-3.0898,-3.0898,-3.0898,-3.0898,-3.0898,-3.0898,-3.0898,-3.0898,-3.0898,-3.0898,-3.0898,-3.0898,-3.0898,-3.0898,-3.0898,-3.0898,-3.0898,-3.0898,-3.0898,-3.0898,-3.0898,-3.0898,-3.0898,-3.0898,-3.0898,-3.0898,-3.0898,-3.0898,0.0,0.0,0.0,0.0,0.0,0.0,0.0,0.0,0.0,0.0,0.0,0.0,0.0,0.0,-2.0292,-2.03,-2.0423,-2.0843,0.0,0.0,0.0,0.0,0.0,0.0,0.0,0.0,0.0,-2.6934,-2.6973,-2.7851,-2.9473,-2.9512,-3.0,-3.082,-3.082,-3.082,-3.084,-3.0879,-3.0898,-3.0898,0.0,0.0,0.0,0.0,0.0,0.0,0.0,0.0,0.0,0.0,0.0,0.0,0.0,0.0,0.0,0.0,0.0,0.0,0.0,0.0,0.0,0.0,0.0,0.0,0.0,0.0,0.0,0.0,0.0,0.0,0.0,0.0,0.0,0.0,0.0,0.0,0.0,0.0,0.0,-3.0762,-3.0801,0.0,0.0,0.0,0.0,-3.0898,-3.0898,-3.0898,-3.0898,-3.0898,-3.0898,-3.0898,-3.0898,-3.0898,-3.0898,-3.0898,-3.0898,-3.0898,-3.0898,-3.0898,-3.0898,-3.0898,-3.0898,-3.0898,-3.0898,-3.0898,-3.0898,-3.0898,-3.0898,-3.0898,-3.0898,-3.0898,-3.0898,-3.0898,-3.0898,-3.0898,0.0,0.0,0.0,0.0,0.0,0.0,0.0,0.0,0.0,0.0,0.0,0.0,0.0,-2.0312,-2.0312,-2.0312,-2.035,-2.0735,-2.1604,0.0,0.0,0.0,0.0,0.0,0.0,0.0,-2.6048,-2.6876,-2.7513,-2.8418,-2.9551,-3.0156,-3.056,-3.0758,-3.0758,-3.0749,-3.0716,-3.0856,-3.0898,-3.0898,-3.0898,-3.0898,0.0,0.0,0.0,0.0,0.0,0.0,0.0,0.0,0.0,0.0,0.0,0.0,0.0,0.0,0.0,0.0,0.0,0.0,0.0,0.0,0.0,0.0,0.0,0.0,0.0,0.0,0.0,0.0,0.0,0.0,0.0,0.0,0.0,0.0,0.0,0.0,0.0,-3.0898,-3.0898,0.0,-3.0898,-3.0898,-3.0898,-3.0898,-3.0898,-3.0898,-3.0898,-3.0898,-3.0898,-3.0898,-3.0898,-3.0898,-3.0898,-3.0898,-3.0898,-3.0898,-3.0898,-3.0898,-3.0898,-3.0898,-3.0898,-3.0898,-3.0898,-3.0898,-3.0898,-3.0898,-3.0898,-3.0898,-3.0898,-3.0898,-3.0898,-3.0898,-3.0898,-3.0898,0.0,0.0,0.0,0.0,0.0,0.0,0.0,0.0,0.0,0.0,0.0,-2.0312,-2.0312,-2.0312,-2.0312,-2.0312,-2.0312,-2.0785,-2.1965,0.0,0.0,0.0,0.0,0.0,0.0,-2.589,-2.6432,-2.7265,-2.8237,-2.9101,-2.9888,-3.0526,-3.0798,-3.0698,-3.0737,-3.0732,-3.0719,-3.0847,-3.0863,-3.0806,-3.0806,-3.0816,-3.082,0.0,0.0,0.0,0.0,0.0,0.0,0.0,0.0,0.0,0.0,0.0,0.0,0.0,0.0,0.0,0.0,0.0,0.0,0.0,0.0,0.0,0.0,0.0,0.0,0.0,0.0,0.0,0.0,0.0,0.0,0.0,0.0,0.0,0.0,-3.0898,-3.0898,-3.0898,-3.0898,-3.0898,-3.0898,-3.0898,-3.0898,-3.0898,-3.0898,-3.0898,-3.0898,-3.0898,-3.0898,-3.0898,-3.0898,-3.0898,-3.0898,-3.0898,-3.1055,-3.1348,-3.1348,-3.1484,-3.1738,-3.1738,-3.1738,-3.1738,-3.1738,-3.1738,-3.1738,-3.1738,-3.1727,-3.1655,-3.1108,-3.0898,-3.0898,-3.0908,-3.0864,-3.0829,0.0,0.0,0.0,0.0,0.0,0.0,0.0,0.0,0.0,0.0,-1.9215,-2.0312,-2.0312,-2.0312,-2.0312,-2.0312,-2.0312,-2.1051,-2.2772,-2.3026,0.0,0.0,0.0,0.0,-2.5592,-2.6439,-2.7323,-2.8176,-2.9075,-2.9873,-3.06,-3.0667,-3.0696,-3.0714,-3.0845,-3.0883,-3.0895,-3.0895,-3.0772,-3.06,-3.06,-3.0634,-3.0703,0.0,0.0,0.0,0.0,0.0,0.0,0.0,0.0,0.0,0.0,0.0,0.0,0.0,0.0,0.0,0.0,0.0,0.0,0.0,0.0,0.0,0.0,0.0,0.0,0.0,0.0,0.0,0.0,0.0,0.0,0.0,0.0,0.0,-3.0874,-3.0898,-3.0898,-3.0898,-3.0898,-3.0898,-3.0898,-3.0898,-3.0898,-3.0898,-3.0898,-3.0898,-3.0898,-3.0898,-3.0918,-3.0937,-3.0937,-3.0957,-3.0976,-3.0976,-3.1406,-3.2246,-3.2246,-3.2656,-3.3398,-3.3398,-3.3398,-3.3398,-3.3398,-3.3398,-3.3398,-3.3398,-3.3365,-3.3154,-3.157,-3.0957,-3.0933,-3.0933,-3.0825,-3.0687,0.0,0.0,0.0,0.0,0.0,0.0,0.0,0.0,0.0,0.0,-1.9215,-2.0312,-2.0312,-2.0312,-2.0312,-2.0312,-2.0312,-2.1023,-2.2725,0.0,0.0,0.0,0.0,0.0,-2.5447,-2.6309,-2.715,-2.7984,-2.8991,-2.9875,-3.0607,-3.078,-3.0788,-3.07,-3.0742,-3.0723,-3.0688,-3.0688,-3.061,-3.0533,-3.0636,-3.0646,-3.0629,0.0,0.0,0.0,0.0,0.0,0.0,0.0,0.0,0.0,0.0,0.0,0.0,0.0,0.0,0.0,0.0,0.0,0.0,0.0,0.0,0.0,0.0,0.0,0.0,0.0,0.0,0.0,0.0,0.0,0.0,0.0,-3.0756,-3.0722,-3.0757,-3.0742,-3.0781,-3.0898,-3.0898,-3.0898,-3.0898,-3.0898,-3.0898,-3.0898,-3.0898,-3.0898,-3.0898,-3.0898,-3.1191,-3.1816,-3.1836,-3.2129,-3.2715,-3.2715,-3.2832,-3.3066,-3.3066,-3.3184,-3.3398,-3.3398,-3.3376,-3.3326,-3.3326,-3.3289,-3.3244,-3.3244,-3.3232,-3.3197,-3.2793,-3.221,-3.1631,-3.1631,-3.1197,-3.0614,0.0,0.0,0.0,0.0,0.0,0.0,0.0,0.0,0.0,0.0,-1.9215,-2.0312,-2.0312,-2.0312,-2.0312,-2.0312,-2.0619,-2.137,-2.2716,0.0,0.0,0.0,0.0,-2.537,-2.5409,-2.662,-2.7489,-2.7978,-2.9302,-3.0177,-3.0598,-3.0717,-3.0742,-3.0653,-3.0657,-3.0637,-3.0606,-3.0606,-3.0559,-3.0501,-3.0571,-3.0583,-3.0568,-3.0568,-3.0582,-3.0618,-3.065,-3.065,-3.0662,-3.074,0.0,0.0,0.0,0.0,0.0,0.0,0.0,0.0,0.0,0.0,0.0,0.0,0.0,0.0,0.0,0.0,0.0,0.0,0.0,0.0,0.0,0.0,0.0,0.0,-3.0737,-3.0703,-3.0695,-3.0747,-3.0801,-3.0898,-3.0898,-3.0898,-3.0898,-3.0898,-3.0898,-3.0898,-3.0898,-3.1055,-3.1426,-3.1445,-3.1836,-3.2676,-3.2695,-3.293,-3.3398,-3.3398,-3.3574,-3.3945,-3.3945,-3.4129,-3.445,-3.445,-3.4396,-3.4309,-3.4321,-3.4275,-3.4246,-3.4246,-3.4226,-3.4148,0.0,0.0,0.0,0.0,-3.2037,-3.1609,0.0,0.0,0.0,0.0,0.0,0.0,0.0,0.0,0.0,0.0,0.0,-2.0312,-2.0312,-2.0312,-2.0312,-2.0312,-2.1043,-2.1927,0.0,0.0,0.0,-2.539,-2.5322,-2.5322,-2.539,-2.7093,-2.8027,-2.8093,-2.977,-3.0608,-3.0594,-3.0607,-3.0602,-3.0595,-3.0599,-3.0594,-3.0594,-3.0594,-3.0565,-3.0506,-3.0506,-3.0506,-3.0487,-3.0487,-3.0525,-3.0583,-3.0583,-3.0588,-3.0594,-3.0594,0.0,0.0,0.0,0.0,0.0,0.0,0.0,0.0,0.0,0.0,0.0,0.0,0.0,0.0,0.0,0.0,0.0,0.0,0.0,0.0,0.0,0.0,0.0,0.0,-3.07,-3.0687,-3.071,-3.0806,-3.0875,-3.0898,-3.0897,-3.0875,-3.0898,-3.0898,-3.0918,-3.1035,-3.1055,-3.1425,-3.2277,-3.2316,0.0,0.0,0.0,-3.3594,-3.3691,-3.3688,-3.4113,-3.4972,-3.4957,-3.5388,-3.617,-3.6169,-3.6095,-3.597,-3.5963,-3.5968,-3.5949,-3.5853,-3.5718,-3.5435,-3.3915,-3.3306,-3.3286,-3.3064,-3.3,-3.2981,0.0,0.0,0.0,0.0,0.0,0.0,0.0,0.0,0.0,-1.7702,-1.9215,-2.0312,-2.0312,-2.0312,-2.0312,-2.0312,-2.1092,-2.2237,0.0,0.0,-2.5303,-2.5322,-2.5303,-2.5303,-2.5322,-2.7024,-2.7958,-2.8027,-2.9749,-3.061,-3.0604,-3.0664,-3.0641,-3.0602,-3.0601,-3.0614,-3.0614,-3.0614,-3.0552,-3.0506,-3.0506,-3.0467,-3.0417,-3.0417,-3.0417,-3.0448,-3.0506,-3.0521,-3.0527,-3.0565,-3.0614,-3.0595,-3.0617,0.0,0.0,0.0,0.0,0.0,0.0,0.0,0.0,0.0,0.0,0.0,0.0,0.0,0.0,0.0,0.0,0.0,0.0,0.0,0.0,-3.0682,-3.0658,-3.0629,-3.0694,-3.0721,-3.078,-3.0897,-3.0792,-3.0768,-3.0897,-3.0801,-3.1074,-3.1894,-3.1953,-3.2271,-3.3062,-3.3087,-3.3487,-3.4336,-3.4375,-3.4726,-3.5488,-3.5441,-3.5825,-3.6646,-3.6576,0.0,-3.784,-3.7836,-3.7762,-3.7629,-3.7637,-3.7623,-3.7507,-3.6796,-3.6122,-3.543,-3.4397,-3.4013,-3.3916,-3.3186,-3.2929,-3.2929,0.0,0.0,0.0,0.0,0.0,0.0,0.0,0.0,0.0,0.0,-1.8831,-1.9812,-2.0254,-2.0312,-2.0312,-2.0312,-2.1457,0.0,0.0,-2.5091,-2.5303,-2.5303,-2.5303,-2.5303,-2.5303,-2.7005,-2.7928,-2.8005,-2.971,-3.0564,-3.0606,-3.0593,-3.0583,-3.0544,-3.0506,-3.0506,-3.0506,-3.0506,-3.0487,-3.0448,-3.0448,-3.0417,-3.0398,-3.0398,-3.0398,-3.0398,-3.0448,-3.0448,-3.0467,-3.0487,-3.0506,-3.0506,-3.0544,-3.0548,-3.0557,0.0,0.0,0.0,0.0,0.0,0.0,0.0,0.0,0.0,0.0,0.0,0.0,0.0,0.0,-3.0575,-3.0632,0.0,-3.0571,-3.0652,-3.0625,-3.0614,-3.0651,-3.0653,-3.0666,-3.0735,-3.0698,-3.0851,-3.1346,-3.1339,-3.1682,-3.2638,-3.2697,-3.3053,-3.3848,-3.3891,-3.4272,-3.5125,-3.5573,-3.6029,-3.6497,-3.6906,-3.73,-3.7694,-3.7668,-3.7831,-3.8202,-3.8194,-3.8161,-3.8065,-3.8065,-3.8027,-3.7969,-3.7526,-3.7103,-3.6719,-3.6276,-3.5584,-3.4795,-3.4372,-3.4199,-3.4199,0.0,0.0,0.0,0.0,0.0,0.0,0.0,0.0,0.0,0.0,0.0,-1.9338,-2.0196,-2.0312,-2.0369,0.0,0.0,0.0,0.0,-2.5082,-2.5139,-2.5284,-2.5303,-2.5303,-2.5303,-2.6832,-2.7764,-2.7992,-2.9506,-3.0358,-3.0586,-3.0539,-3.0487,-3.0487,-3.0417,-3.0398,-3.0398,-3.0398,-3.0398,-3.0398,-3.0398,-3.0398,-3.0398,-3.0398,-3.0398,-3.0398,-3.0398,-3.0398,-3.0398,-3.0398,-3.0398,-3.0398,-3.0467,-3.0487,-3.0487,-3.0544,-3.0564,0.0,0.0,0.0,0.0,0.0,0.0,0.0,0.0,-3.0448,-3.0487,-3.0506,-3.0467,-3.0458,-3.0564,-3.054,-3.0525,-3.0564,-3.0577,-3.0574,-3.0574,-3.0723,-3.0827,-3.0824,-3.0819,-3.1174,-3.2064,-3.2126,-3.2485,-3.3386,-3.3444,-3.3821,-3.4664,-3.4882,-3.5249,-3.5911,-3.6781,-3.722,-3.7259,-3.7928,-3.836,-3.8507,-3.8497,-3.8516,-3.8569,-3.8569,-3.8546,-3.8488,-3.8488,-3.8392,-3.8257,-3.8257,-3.8142,-3.8007,-3.8007,-3.718,-3.5988,-3.5988,-3.5988,-3.5988,0.0,0.0,0.0,0.0,0.0,0.0,0.0,0.0,0.0,0.0,0.0,0.0,0.0,0.0,0.0,0.0,0.0,0.0,-2.4129,-2.4225,-2.4543,-2.5264,-2.5303,-2.5303,-2.5303,-2.6255,-2.7168,-2.7992,-2.8898,-2.9748,-3.0513,-3.0498,-3.0467,-3.0398,-3.0398,-3.0398,-3.0398,-3.0398,-3.0398,-3.0398,-3.0398,-3.0398,-3.0398,-3.0398,-3.0398,-3.0398,-3.0398,-3.0398,-3.0398,-3.0398,-3.0398,-3.0398,-3.0398,-3.0398,-3.0398,-3.0417,0.0,-3.0417,-3.0417,-3.0417,-3.0398,-3.0398,-3.0398,-3.0417,0.0,-3.0398,-3.0417,-3.0487,-3.0487,-3.0498,-3.0513,-3.051,-3.0506,-3.0506,-3.051,-3.0513,-3.0513,-3.1172,-3.1641,-3.1592,-3.163,-3.203,-3.2961,-3.2942,-3.3301,-3.427,-3.4347,-3.4668,-3.5445,-3.6213,-3.6666,-3.6762,-3.755,-3.8031,-3.8142,-3.8132,-3.8517,-3.9281,-3.9204,-3.9546,-4.0219,-4.0219,-4.0219,-4.0219,-4.0219,-3.9796,-3.9142,-3.9142,-3.87,-3.8007,-3.8007,-3.7892,-3.7719,-3.7719,-3.7719,-3.7719,0.0,0.0,0.0,0.0,0.0,0.0,0.0,0.0,0.0,0.0,0.0,0.0,0.0,0.0,0.0,0.0,0.0,0.0,-2.3263,-2.3821,-2.4245,-2.4582,-2.5063,-2.5303,-2.5303,-2.6159,-2.6783,-2.7187,-2.8494,-2.9321,-2.9698,-3.0198,-3.0417,-3.0398,-3.0398,-3.0398,-3.0398,-3.0398,-3.0398,-3.0398,-3.0398,-3.0398,-3.0398,-3.0398,-3.0398,-3.0398,-3.0398,-3.0398,0.0,0.0,-3.0398,-3.0398,-3.0398,-3.0398,-3.0398,-3.0398,-3.0398,0.0,-3.0398,-3.0398,-3.0398,-3.0398,-3.0398,-3.0398,-3.0398,-3.0398,-3.0398,-3.0448,-3.0448,-3.0448,-3.0448,-3.0448,-3.0448,-3.0448,-3.0871,-3.1198,-3.1198,-3.1929,-3.2622,-3.3103,-3.3179,-3.3353,-3.3737,-3.3737,-3.407,-3.5012,-3.5089,-3.5416,-3.6199,-3.6589,-3.7012,-3.7526,-3.8354,-3.8834,-3.8877,-3.9281,-3.9681,-4.0046,-4.0008,-4.0162,-4.0489,-4.0489,-4.0489,-4.0489,-4.0489,-4.0296,-3.9988,-3.9988,-3.9777,-3.945,-3.945,-3.945,-3.9335,-3.8354,-3.8007,-3.8007,0.0,0.0,0.0,0.0,0.0,0.0,0.0,0.0,0.0,0.0,0.0,0.0,0.0,0.0,0.0,0.0,0.0,0.0,0.0,-2.3263,-2.386,-2.4091,-2.487,0.0,-2.5303,-2.5928,-2.637,-2.6601,-2.7813,-2.864,-2.9102,-2.9756,-3.0179,-3.0398,-3.0398,-3.0398,-3.0398,-3.0398,-3.0398,-3.0398,-3.0398,-3.0398,-3.0398,-3.0398,-3.0398,-3.0398,-3.0398,-3.0398,0.0,0.0,-3.0398,-3.0398,-3.0398,-3.0398,-3.0398,-3.0398,-3.0398,-3.0398,-3.0398,-3.0398,-3.0398,-3.0398,-3.0398,-3.0398,-3.0398,-3.0398,-3.0398,-3.0398,-3.0398,-3.0398,-3.0398,-3.0398,-3.0475,-3.0717,-3.1295,-3.1775,-3.2006,-3.2737,-3.3487,-3.4122,-3.441,-3.4564,-3.4564,-3.4564,-3.4814,-3.5449,-3.5718,-3.6103,-3.668,-3.7161,-3.7719,-3.8334,-3.9181,-3.9623,-3.9623,-4.02,-4.0489,-4.0489,-4.0489,-4.0489,-4.0489,-4.0489,-4.0489,-4.0489,-4.0489,-4.0489,-4.0489,-4.0489,-4.0489,-4.0489,-4.0489,-4.0489,-4.0335,-3.9142,-3.8681,-3.8681,0.0,0.0,0.0,0.0,0.0,0.0,0.0,0.0,0.0,0.0,0.0,0.0,0.0,0.0,0.0,0.0,0.0,0.0,0.0,-2.235,-2.3225,-2.4052,-2.487,-2.5303,-2.5303,-2.5322,-2.5745,-2.6601,-2.6659,-2.7505,-2.9102,-2.9121,-2.9583,-3.0398,-3.0398,-3.0398,-3.0398,-3.0398,-3.0398,-3.0398,-3.0398,-3.0398,-3.0398,-3.0398,-3.0398,-3.0398,-3.0398,0.0,0.0,0.0,-3.0398,-3.0398,-3.0398,-3.0398,0.0,-3.0398,-3.0398,-3.0398,-3.0398,-3.0398,-3.0398,-3.0398,-3.0398,-3.0398,-3.0398,-3.0398,-3.0398,-3.0398,-3.0398,-3.0398,-3.0398,-3.0398,-3.0679,-3.1525,-3.1679,-3.1968,-3.2756,-3.3603,-3.416,-3.4199,-3.4949,-3.5468,-3.5468,-3.5468,-3.5468,-3.5493,-3.6219,-3.668,-3.6699,-3.8296,-3.9219,-3.9258,-4.0027,-4.045,-4.045,-4.0489,-4.0489,-4.0489,-4.0489,-4.0489,-4.0489,-4.0489,-4.0489,-4.0489,-4.0489,-4.0489,-4.0489,-4.0489,-4.0489,-4.0489,-4.0489,-4.0489,-4.0489,-4.0431,-4.0412,-4.0412,0.0,0.0,0.0,0.0,0.0,0.0,0.0,0.0,0.0,0.0,0.0,0.0,0.0,0.0,0.0,0.0,0.0,0.0,0.0,-2.1485,-2.2331,-2.3206,-2.4043,-2.4755,-2.5284,-2.5303,-2.5437,-2.5736,-2.6332,-2.689,-2.7448,-2.8025,-2.8756,-2.9544,-2.9544,-2.9871,-3.0398,-3.0398,-3.0398,-3.0398,-3.0398,-3.0398,-3.0398,-3.0398,-3.0398,-3.0398,0.0,0.0,0.0,-3.0398,-3.0398,-3.0398,-3.0398,-3.0398,-3.0398,-3.0398,-3.0398,-3.0398,-3.0398,-3.0398,-3.0398,-3.0398,-3.0398,-3.0398,-3.0398,-3.0398,-3.0398,-3.0398,-3.0871,-3.1256,-3.1256,-3.1256,-3.1525,-3.2352,-3.2506,-3.2795,-3.3641,-3.4507,-3.5064,-3.5064,-3.5334,-3.5493,-3.5493,-3.5493,-3.5718,-3.6257,-3.6546,-3.7199,-3.8354,-3.8969,-3.9527,-4.0065,-4.0354,-4.0489,-4.0489,-4.0489,-4.0489,-4.0489,-4.0489,-4.0489,-4.0489,-4.0489,-4.0489,-4.0489,-4.0489,-4.0489,-4.0489,-4.0489,-4.0489,-4.0489,-4.0489,-4.0489,-4.0489,-4.0489,-4.0489,-4.0489,0.0,0.0,0.0,0.0,0.0,0.0,0.0,0.0,0.0,0.0,0.0,0.0,0.0,0.0,0.0,0.0,0.0,0.0,0.0,0.0,-2.1754,-2.2312,-2.3475,-2.4341,-2.487,-2.5149,-2.5303,-2.5303,-2.587,-2.6294,-2.6621,-2.7178,-2.7871,-2.8679,-2.8967,-2.941,-2.9967,-3.0275,-3.0398,-3.0398,-3.0398,-3.0398,-3.0398,-3.0398,-3.0398,0.0,0.0,0.0,0.0,-3.0398,-3.0398,-3.0398,-3.0398,-3.0398,-3.0398,-3.0398,-3.0398,-3.0398,-3.0398,-3.0398,-3.0398,-3.0398,-3.0398,-3.0398,-3.0398,-3.0398,-3.0398,-3.0398,-3.1102,-3.1698,-3.1698,-3.1698,-3.2064,-3.3179,-3.3103,-3.3314,-3.4507,-3.5161,-3.5493,-3.5493,-3.5493,-3.5493,-3.5493,-3.5757,-3.6142,-3.6661,-3.6988,-3.7796,-3.9219,-3.9565,-3.9969,-4.0469,-4.0489,-4.0489,-4.0489,-4.0489,-4.0489,-4.0489,-4.0489,-4.0489,-4.0489,-4.0489,-4.0489,-4.0489,-4.0489,-4.0489,-4.0489,-4.0489,-4.0438,-4.0356,-4.0356,-4.0285,-4.0175,-4.0175,-4.0175,-4.0212,0.0,0.0,0.0,0.0,0.0,0.0,0.0,0.0,0.0,0.0,0.0,0.0,0.0,0.0,0.0,0.0,0.0,0.0,0.0,0.0,0.0,-2.1504,-2.3081,-2.4014,-2.411,-2.4851,-2.5264,-2.5303,-2.5303,-2.5707,-2.6524,-2.6524,-2.7005,-2.7871,-2.8621,-2.8986,-2.9102,-2.9967,-3.0321,-3.034,-3.0379,-3.0398,-3.0398,-3.0398,0.0,0.0,0.0,0.0,0.0,-3.0398,-3.0398,-3.0398,-3.0398,-3.0398,-3.0398,-3.0398,-3.0398,-3.0398,-3.0398,-3.0398,-3.0398,-3.0398,-3.0398,-3.0398,-3.0398,-3.0398,-3.0398,-3.0398,-3.1141,-3.1756,-3.1756,-3.1756,-3.2314,-3.3987,-3.3506,-3.3506,-3.5257,-3.5493,-3.5493,-3.5493,-3.5493,-3.5493,-3.5493,-3.6238,-3.6719,-3.6757,-3.7565,-3.845,-3.9315,-4.0085,-4.0489,-4.0489,-4.0489,-4.0489,-4.0489,-4.0489,-4.0489,-4.0489,-4.0489,-4.0489,-4.0489,-4.0489,-4.0489,-4.0473,-4.0473,-4.0473,-4.0438,-4.0438,-4.0302,-4.0081,-4.0081,-3.988,-3.9599,-3.9599,-3.9599,-3.9645,0.0,0.0,0.0,0.0,0.0,0.0,0.0,0.0,0.0,0.0,0.0,0.0,0.0,0.0,0.0,0.0,0.0,0.0,0.0,0.0,0.0,0.0,0.0,0.0,0.0,0.0,0.0,0.0,0.0,-2.5399,-2.563,-2.563,-2.6101,0.0,-2.7159,-2.7601,-2.8255,-2.9083,-2.9429,-2.9486,0.0,-3.0398,-3.0398,0.0,0.0,0.0,0.0,0.0,0.0,0.0,0.0,-3.0398,-3.0398,-3.0398,-3.0398,-3.0398,-3.0398,-3.0398,-3.0398,-3.0398,-3.0398,-3.0398,-3.0398,-3.0398,-3.0398,-3.0398,-3.0398,-3.0398,-3.1564,-3.2583,-3.2583,-3.2583,-3.316,-3.4891,-3.3891,-3.3506,-3.5257,-3.5493,-3.5493,-3.5493,-3.5493,-3.5493,-3.5493,-3.6238,-3.6969,-3.7623,-3.8469,-3.9335,-4.0142,-4.0392,-4.0489,-4.0489,-4.0489,-4.0489,-4.0489,-4.0489,-4.0489,-4.0489,-4.0489,-4.0489,-4.0489,-4.0489,-4.0389,-4.0195,-4.0195,-4.0062,-3.9821,-3.9821,-3.9778,-3.9731,-3.9731,-3.9668,-3.9599,-3.9599,-3.9599,-3.9576,0.0,0.0,0.0,0.0,0.0,0.0,0.0,0.0,0.0,0.0,0.0,0.0,0.0,0.0,0.0,0.0,0.0,0.0,0.0,0.0,0.0,0.0,0.0,0.0,0.0,0.0,0.0,0.0,0.0,0.0,0.0,-2.5139,-2.5553,-2.6063,-2.6428,-2.6871,-2.7371,0.0,0.0,0.0,0.0,0.0,0.0,0.0,0.0,0.0,0.0,0.0,0.0,0.0,0.0,-3.0398,-3.0398,-3.0398,-3.0398,-3.0398,-3.0398,-3.0398,-3.0398,-3.0398,-3.0398,-3.0398,-3.0398,-3.0398,-3.0398,-3.0398,-3.0398,-3.0398,-3.1448,-3.2487,-3.2833,-3.2602,-3.3064,-3.5161,-3.4045,-3.3506,-3.5257,-3.5493,-3.5493,-3.5493,-3.5493,-3.5493,-3.5493,-3.6238,-3.7065,-3.793,-3.8815,-3.9642,-4.045,-4.0489,-4.0489,-4.0489,-4.0489,-4.0489,-4.0489,-4.0489,-4.0489,-4.0489,-4.0489,-4.0489,-4.0489,-4.0372,-4.0232,-4.0101,-3.9943,-3.9775,-3.9599,-3.9599,-3.951,-3.9364,-3.9364,-3.9308,-3.9208,-3.9208,-3.9208,-3.9163,0.0,0.0,0.0,0.0,0.0,0.0,0.0,0.0,0.0,0.0,0.0,0.0,0.0,0.0,0.0,0.0,0.0,0.0,0.0,0.0,0.0,0.0,0.0,0.0,0.0,0.0,0.0,0.0,0.0,0.0,0.0,0.0,0.0,0.0,0.0,0.0,0.0,0.0,0.0,0.0,0.0,0.0,0.0,0.0,0.0,0.0,0.0,0.0,0.0,0.0,-3.0398,-3.0398,-3.0398,-3.0398,-3.0398,-3.0398,-3.0398,-3.0398,-3.0398,-3.0398,-3.0398,-3.0398,-3.0398,-3.0398,-3.0398,-3.0398,-3.0398,-3.0398,-3.1102,-3.191,-3.2602,-3.2179,-3.2468,-3.4776,-3.3891,-3.3468,-3.5103,-3.543,-3.5493,-3.5493,-3.5493,-3.5493,-3.5493,-3.6238,-3.7065,-3.793,-3.8815,-3.9642,-4.045,-4.0489,-4.0489,-4.0489,-4.0489,-4.0489,-4.0489,-4.0489,-4.0489,-4.0457,-4.0457,-4.0422,-4.037,-4.0139,-4.0002,-3.9943,-3.9645,-3.9505,-3.9481,-3.9481,-3.9308,-3.9063,-3.9063,-3.8894,-3.8707,-3.8707,-3.8707,-3.8707,0.0,0.0,0.0,0.0,0.0,0.0,0.0,0.0,0.0,0.0,-1.5133,-1.5266,0.0,0.0,0.0,0.0,0.0,0.0,0.0,0.0,0.0,0.0,0.0,0.0,0.0,0.0,0.0,0.0,0.0,0.0,0.0,0.0,0.0,0.0,0.0,0.0,0.0,0.0,0.0,0.0,0.0,0.0,0.0,0.0,0.0,0.0,0.0,0.0,0.0,0.0,-3.0398,-3.0398,-3.0398,-3.0398,-3.0398,-3.0398,-3.0398,-3.0398,-3.0398,-3.0398,-3.0398,-3.0398,-3.0398,-3.0398,-3.0398,-3.0398,0.0,-3.0398,-3.1102,-3.1737,-3.1891,-3.1795,-3.2064,-3.3179,-3.3103,-3.3256,-3.4276,-3.5045,-3.5493,-3.5493,-3.5493,-3.5493,-3.5493,-3.6238,-3.7065,-3.793,-3.8815,-3.9642,-4.045,-4.0489,-4.0489,-4.0489,-4.0489,-4.0489,-4.0489,-4.0489,-4.0389,-4.0158,-4.0158,-4.0023,-3.9757,-3.9712,-3.9552,-3.9264,-3.9212,-3.9054,-3.8862,-3.8862,-3.8803,-3.8762,-3.8762,-3.875,-3.8707,-3.8707,-3.8707,-3.8707,0.0,0.0,0.0,0.0,0.0,0.0,0.0,-1.4936,-1.4989,-1.5088,-1.5095,-1.5127,-1.5189,-1.558,0.0,0.0,0.0,0.0,0.0,0.0,0.0,0.0,0.0,0.0,0.0,0.0,-2.1081,-2.1504,0.0,0.0,0.0,-2.3206,-2.387,0.0,0.0,0.0,0.0,0.0,0.0,0.0,0.0,0.0,0.0,0.0,0.0,0.0,0.0,0.0,0.0,0.0,-3.0398,-3.0398,-3.0398,-3.0398,-3.0398,-3.0398,-3.0398,-3.0398,-3.0398,-3.0398,-3.0398,-3.0398,-3.0398,-3.0398,-3.0398,0.0,0.0,-3.0398,-3.0737,-3.116,-3.1621,-3.1333,0.0,-3.2699,-3.2545,-3.2564,-3.341,-3.4276,-3.4814,-3.4814,-3.5218,-3.5493,-3.5493,-3.5853,-3.6622,-3.7892,-3.8392,-3.9161,-4.0431,-4.0489,-4.0489,-4.0489,-4.0489,-4.0489,-4.0489,-4.0356,-4.0213,-4.0101,-3.9922,-3.9754,-3.9599,-3.9414,-3.9238,-3.9099,-3.8961,-3.8833,-3.8707,-3.8707,-3.8707,-3.8707,-3.8707,-3.8707,-3.8707,-3.8707,-3.8707,-3.8707,0.0,0.0,0.0,0.0,0.0,0.0,0.0,-1.4886,-1.4963,-1.512,-1.5075,-1.5082,-1.5183,-1.5189,-1.5484,0.0,0.0,0.0,0.0,0.0,0.0,0.0,0.0,0.0,0.0,0.0,0.0,-2.0312,-2.0927,0.0,0.0,0.0,0.0,0.0,-2.3821,-2.4187,0.0,0.0,0.0,0.0,0.0,-2.5945,0.0,0.0,0.0,0.0,0.0,0.0,0.0,0.0,-3.0398,-3.0398,-3.0398,-3.0398,-3.0398,-3.0398,-3.0398,-3.0398,-3.0398,-3.0398,-3.0398,-3.0398,-3.0398,-3.0398,-3.0398,-3.0398,0.0,-3.0398,-3.0398,-3.0609,-3.1295,-3.0871,-3.0833,0.0,-3.1987,-3.1929,-3.2545,-3.3372,-3.3987,-3.418,-3.4795,-3.5295,-3.5488,-3.5493,-3.6122,-3.7603,-3.8065,-3.8931,-4.0412,-4.0489,-4.0489,-4.0489,-4.0438,-4.0406,-4.0406,-4.012,-3.9962,-3.988,-3.9622,-3.9457,-3.9402,-3.9144,-3.9008,-3.8999,-3.8773,-3.8707,-3.8707,-3.8707,-3.8707,-3.8707,-3.8707,-3.8707,-3.8707,-3.8707,-3.8707,-3.8707,0.0,0.0,0.0,0.0,0.0,0.0,0.0,-1.4813,-1.4913,-1.493,-1.5085,-1.5183,-1.5189,-1.5189,-1.5228,0.0,0.0,0.0,0.0,0.0,0.0,0.0,0.0,0.0,0.0,0.0,0.0,-2.0312,-2.0369,0.0,0.0,0.0,0.0,0.0,0.0,-2.3389,-2.4188,0.0,0.0,0.0,0.0,0.0,0.0,0.0,0.0,0.0,0.0,0.0,0.0,0.0,0.0,-3.0398,-3.0398,-3.0398,-3.0398,-3.0398,0.0,0.0,-3.0398,-3.0398,-3.0398,-3.0398,-3.0398,-3.0398,-3.0398,0.0,-3.0398,-3.0398,-3.0398,-3.0417,-3.0494,-3.0436,-3.0436,-3.059,0.0,-3.1737,-3.1795,-3.2506,-3.3314,-3.4103,-3.4257,-3.4622,-3.543,-3.5493,-3.5872,-3.6757,-3.8296,-3.9565,-4.045,-4.0489,-4.0489,-4.0489,-4.025,-4.0139,-4.0139,-3.9819,-3.9486,-3.9186,-3.916,-3.9027,-3.8792,-3.875,-3.875,-3.875,-3.8689,-3.8707,-3.8707,-3.8707,-3.8707,-3.8707,-3.8707,-3.8707,-3.8707,-3.8707,-3.8707,-3.8707,0.0,0.0,0.0,0.0,0.0,0.0,-1.4847,-1.4757,-1.4766,-1.5038,-1.5038,-1.5078,-1.5183,-1.5189,-1.5189,0.0,0.0,0.0,0.0,0.0,0.0,0.0,0.0,0.0,0.0,0.0,-2.0312,-2.0312,-2.0312,0.0,0.0,0.0,0.0,0.0,0.0,-2.2421,-2.3167,-2.3694,0.0,0.0,0.0,0.0,0.0,0.0,0.0,0.0,0.0,0.0,-2.9698,0.0,0.0,0.0,-3.0398,-3.0398,0.0,0.0,-3.0398,-3.0398,-3.0398,-3.0398,-3.0398,-3.0398,-3.0398,-3.0398,-3.0398,0.0,-3.0398,-3.0398,-3.0398,-3.0398,-3.0398,-3.0398,-3.0398,0.0,0.0,0.0,-3.0929,-3.1641,-3.2314,-3.2641,-3.3583,-3.4334,-3.468,-3.5199,-3.6065,-3.7373,-3.8604,-3.9576,-4.0229,-4.025,-4.0157,-3.9945,-3.9861,-3.9797,-3.9797,-3.9481,-3.9238,-3.9099,-3.8952,-3.8803,-3.8707,-3.8707,-3.8707,-3.8707,-3.8707,-3.8707,-3.8707,-3.8707,-3.8707,-3.8707,-3.8707,-3.8707,-3.8707,-3.8707,-3.8707,-3.8707,0.0,0.0,0.0,0.0,0.0,-1.4581,-1.4811,-1.4728,-1.4747,-1.5066,-1.503,-1.5038,-1.5177,-1.5189,-1.5189,-1.5189,0.0,0.0,0.0,0.0,0.0,0.0,0.0,0.0,0.0,0.0,-2.0312,-2.0312,-2.0312,-2.0312,0.0,0.0,-2.06,-2.1158,0.0,0.0,0.0,0.0,0.0,0.0,0.0,0.0,0.0,0.0,0.0,0.0,0.0,0.0,0.0,0.0,0.0,0.0,0.0,0.0,0.0,0.0,-3.0398,-3.0398,-3.0398,-3.0398,-3.0398,-3.0398,-3.0398,-3.0398,0.0,0.0,-3.0398,-3.0398,-3.0398,-3.0398,-3.0398,-3.0398,-3.0398,0.0,0.0,-3.0398,-3.0398,-3.0929,-3.141,-3.1679,-3.2949,-3.391,-3.416,-3.4988,-3.6103,-3.7507,-3.8331,-3.9006,-3.9524,-3.9707,-3.9754,-3.9599,-3.9486,-3.9438,-3.9438,-3.9144,-3.8971,-3.8971,-3.8773,-3.8707,-3.8707,-3.8707,-3.8707,-3.8707,-3.8707,-3.8707,-3.8707,-3.8707,-3.8707,-3.8707,-3.8707,-3.8707,-3.8707,-3.8707,-3.8707,-3.8707,0.0,0.0,0.0,0.0,0.0,0.0,-1.4499,-1.4717,-1.4904,-1.4904,-1.5066,-1.5209,-1.5189,-1.5189,-1.5189,-1.5189,0.0,0.0,0.0,0.0,0.0,0.0,0.0,0.0,0.0,0.0,-2.0312,-2.0312,-2.0312,-2.0312,-2.0312,-2.0312,-2.0312,-2.0312,0.0,0.0,0.0,0.0,0.0,0.0,0.0,0.0,0.0,0.0,0.0,0.0,0.0,0.0,0.0,0.0,0.0,0.0,0.0,0.0,0.0,0.0,-3.0398,-3.0398,-3.0398,-3.0398,-3.0398,-3.0398,-3.0398,-3.0398,-3.0398,-3.0398,-3.0398,-3.0398,-3.0398,-3.0398,-3.0398,-3.0398,-3.0398,-3.0398,0.0,0.0,-3.0398,-3.0398,-3.0737,-3.1602,-3.2429,-3.3256,-3.4122,-3.4988,-3.5853,-3.6661,-3.7209,-3.7756,-3.8275,-3.8814,-3.9264,-3.9599,-3.9264,-3.9125,-3.9125,-3.8844,-3.8707,-3.8707,-3.8707,-3.8707,-3.8707,-3.8707,-3.8707,-3.8707,-3.8707,-3.8707,-3.8707,-3.8707,-3.8707,-3.8707,-3.8707,-3.8707,-3.8707,-3.8707,-3.8707,-3.8707,0.0,0.0,0.0,0.0,0.0,0.0,0.0,-1.4804,-1.4859,-1.5085,-1.5075,-1.5095,-1.5183,-1.5189,-1.5189,-1.5189,0.0,0.0,0.0,0.0,0.0,0.0,0.0,0.0,0.0,0.0,-2.0312,-2.0312,-2.0312,-2.0312,-2.0312,-2.0312,-2.0312,-2.0312,-2.0312,-2.0446,0.0,0.0,0.0,0.0,0.0,0.0,-2.5303,0.0,0.0,0.0,0.0,0.0,0.0,0.0,0.0,0.0,0.0,0.0,0.0,0.0,0.0,0.0,-3.0467,-3.0417,-3.0398,-3.0398,-3.0398,-3.0398,-3.0398,-3.0398,-3.0398,-3.0398,-3.0398,-3.0398,-3.0398,-3.0398,-3.0398,-3.0398,-3.0398,0.0,0.0,-3.0398,-3.0494,-3.0794,-3.1889,-3.2966,-3.3827,-3.4556,-3.5286,-3.6084,-3.6311,-3.6885,-3.7972,-3.8208,-3.8505,-3.898,-3.8902,-3.8815,-3.8815,-3.8732,-3.8707,-3.8707,-3.8707,-3.8707,-3.8707,-3.8707,-3.8707,-3.8707,-3.8707,-3.8707,-3.8707,-3.8707,-3.8707,-3.8707,-3.8707,-3.8707,-3.8707,-3.8707,-3.8707,-3.8707,0.0,0.0,0.0,0.0,0.0,0.0,0.0,-1.4847,-1.489,-1.5107,-1.5095,-1.5121,-1.5189,-1.5189,-1.5189,-1.5189,0.0,0.0,0.0,0.0,0.0,0.0,0.0,0.0,0.0,-1.935,-1.9965,-2.0312,-2.0312,-2.0312,-2.0312,-2.0312,-2.0312,-2.0312,-2.0312,-2.0312,0.0,0.0,0.0,0.0,0.0,0.0,-2.539,0.0,0.0,0.0,0.0,0.0,0.0,0.0,0.0,0.0,0.0,0.0,0.0,0.0,-3.0604,-3.0482,0.0,-3.0467,-3.0417,-3.0398,-3.0398,0.0,-3.0398,-3.0398,-3.0398,-3.0398,-3.0398,-3.0398,-3.0398,-3.0398,-3.0398,-3.0398,-3.0398,-3.0398,-3.0398,-3.0398,-3.0482,-3.0708,-3.1503,-3.248,-3.3555,-3.3999,-3.4563,-3.5375,-3.5628,-3.611,-3.6963,-3.7206,-3.7461,-3.7771,-3.8377,-3.8707,-3.8707,-3.8707,-3.8707,-3.8707,-3.8707,-3.8707,-3.8707,-3.8707,-3.8707,-3.8707,-3.8707,-3.8707,0.0,-3.8707,-3.8707,-3.8707,-3.8707,-3.8707,-3.8707,-3.8707,-3.8707,-3.8707,0.0,0.0,0.0,0.0,0.0,0.0,0.0,0.0,-1.4988,-1.4995,-1.5127,-1.5189,-1.5189,-1.5189,-1.5189,-1.5189,0.0,0.0,0.0,0.0,0.0,0.0,0.0,0.0,0.0,-1.8568,-1.9427,-2.0312,-2.0312,-2.0312,-2.0312,-2.0312,-2.0312,-2.0312,-2.0312,-2.0312,-2.0408,-2.2098,-2.2887,-2.3129,-2.4754,-2.5438,0.0,0.0,0.0,0.0,0.0,0.0,0.0,0.0,0.0,0.0,0.0,0.0,0.0,0.0,0.0,0.0,0.0,-3.0498,-3.0487,-3.0417,-3.0398,-3.0398,-3.0398,-3.0398,0.0,-3.0398,-3.0398,-3.0398,-3.0398,-3.0398,-3.0398,-3.0398,-3.0398,-3.0398,-3.0398,-3.0379,-3.0586,-3.1149,-3.1238,-3.1789,-3.3147,-3.3316,-3.3692,-3.4557,-3.5082,-3.538,-3.5454,-3.5947,-3.6229,-3.6303,-3.7753,-3.856,-3.8615,-3.867,-3.8707,-3.8707,-3.8707,-3.8707,-3.8707,-3.8707,-3.8707,-3.8707,-3.8707,-3.8707,-3.8707,-3.8707,-3.8707,-3.8707,-3.8707,-3.8707,-3.8707,-3.8707,-3.8707,-3.8707,0.0,0.0,0.0,0.0,0.0,0.0,0.0,0.0,0.0,0.0,-1.5127,-1.5189,-1.5189,-1.5189,-1.5189,0.0,0.0,0.0,0.0,0.0,0.0,0.0,0.0,0.0,0.0,-1.8624,-1.9481,-2.0312,-2.0312,-2.0312,-2.0312,-2.0312,-2.0312,-2.0312,-2.0312,-2.0312,-2.0369,-2.1438,-2.2293,-2.302,-2.4083,-2.491,0.0,0.0,0.0,0.0,-2.5498,-2.6095,0.0,0.0,0.0,0.0,0.0,0.0,0.0,0.0,-3.0876,-3.0794,-3.0613,0.0,-3.0506,-3.0487,-3.0448,-3.0398,0.0,-3.0398,-3.0398,-3.0398,0.0,-3.0398,-3.0398,-3.0398,-3.0398,-3.0398,-3.0398,-3.0398,-3.0398,-3.0222,-3.0152,-3.0299,-3.058,-3.1143,-3.2091,-3.2539,-3.3118,-3.3931,-3.4138,-3.4473,-3.5073,-3.523,-3.5624,-3.6266,-3.667,-3.7147,-3.7771,-3.8395,-3.8707,-3.8707,-3.8707,-3.8707,-3.8707,-3.8707,-3.8707,-3.8707,-3.8707,-3.8707,-3.8707,-3.8707,-3.8707,-3.8707,-3.8707,-3.8707,-3.8707,-3.8707,-3.8707,-3.8707,0.0,0.0,0.0,0.0,0.0,0.0,0.0,0.0,0.0,0.0,0.0,0.0,0.0,0.0,0.0,0.0,0.0,0.0,0.0,0.0,0.0,0.0,0.0,-1.6546,-1.7811,-1.8313,-1.914,-2.0359,-2.0318,-2.0331,-2.035,-2.0312,-2.0312,-2.0312,-2.0312,-2.0312,-2.0369,-2.1243,-2.2146,-2.3071,-2.394,0.0,0.0,0.0,0.0,0.0,-2.5598,-2.5921,0.0,-2.6801,-2.7858,-2.9062,0.0,0.0,0.0,0.0,-3.086,-3.0787,-3.0681,-3.0595,-3.053,-3.0483,-3.0417,-3.0398,-3.0398,0.0,0.0,0.0,0.0,0.0,-3.0398,-3.0398,-3.0398,-3.0398,-3.0398,-3.0398,-3.0398,-3.0163,-2.9969,-2.9877,-2.9983,-3.0318,-3.1001,-3.1667,-3.2375,-3.3201,-3.3587,-3.399,-3.4431,-3.4468,-3.4669,-3.5128,-3.5514,-3.6101,-3.6927,-3.7386,-3.7606,-3.7606,-3.7606,-3.7606,-3.7606,-3.7606,-3.779,-3.8138,-3.8138,-3.8358,-3.8707,-3.8707,-3.8707,-3.8707,-3.8707,-3.8707,-3.8658,-3.8415,-3.8496,-3.8627,0.0,0.0,0.0,0.0,0.0,0.0,0.0,0.0,0.0,0.0,0.0,0.0,0.0,0.0,0.0,0.0,0.0,0.0,0.0,0.0,0.0,0.0,0.0,-1.612,-1.7865,-1.7905,-1.8749,-2.0412,-2.036,-2.035,-2.0408,-2.0342,-2.0315,-2.0331,-2.0331,-2.0331,-2.0369,-2.1105,-2.2075,-2.3158,-2.3906,0.0,0.0,0.0,0.0,0.0,0.0,0.0,0.0,-2.6543,-2.7383,-2.8242,-2.9121,0.0,0.0,0.0,0.0,0.0,-3.0679,-3.0636,-3.0564,-3.0447,-3.0398,-3.0398,-3.0398,0.0,0.0,0.0,0.0,0.0,0.0,-3.0398,-3.0398,-3.0398,-3.0367,-3.0343,-3.0343,-3.0095,-2.9845,-2.9678,-2.9474,-2.9561,-3.0142,-3.0815,-3.1604,-3.254,-3.3238,-3.3678,-3.3788,-3.3807,-3.3807,-3.3807,-3.4468,-3.5183,-3.5899,-3.6156,-3.6303,-3.6303,-3.6303,-3.6303,-3.6303,-3.6303,-3.667,-3.7312,-3.7312,-3.7698,-3.834,-3.834,-3.834,-3.834,-3.834,-3.8414,-3.8475,-3.8002,-3.8158,-3.8465,0.0,0.0,0.0,0.0,0.0,0.0,0.0,0.0,0.0,0.0,0.0,0.0,0.0,0.0,0.0,0.0,0.0,0.0,0.0,0.0,0.0,0.0,-1.5381,-1.6174,-1.7857,-1.7961,-1.8807,-2.0486,-2.0471,-2.0446,-2.0389,-2.0388,-2.0377,-2.0389,-2.0389,-2.0389,-2.0408,-2.0589,-2.1613,-2.3101,-2.3247,0.0,0.0,0.0,0.0,0.0,0.0,0.0,0.0,-2.5859,-2.6484,-2.7344,-2.8223,0.0,0.0,0.0,0.0,0.0,-3.0621,-3.0579,-3.0505,-3.0498,-3.0448,-3.0398,-3.0398,0.0,0.0,0.0,0.0,0.0,0.0,-3.0398,-3.0398,-3.0398,-3.0209,-3.0061,-3.0061,-2.9731,-2.9474,-2.9454,-2.9225,-2.9375,-3.0136,-3.032,-3.0999,-3.2504,-3.2724,-3.3091,-3.3752,-3.3807,-3.3807,-3.3807,-3.3917,-3.4045,-3.4174,-3.5587,-3.6303,-3.6303,-3.6303,-3.6303,-3.6303,-3.6303,-3.6358,-3.6468,-3.6468,-3.6541,-3.667,-3.667,-3.667,-3.667,-3.667,-3.7074,-3.7661,-3.7583,-3.7749,-3.798,0.0,0.0,0.0,0.0,0.0,0.0,0.0,0.0,0.0,0.0,0.0,0.0,0.0,0.0,0.0,0.0,0.0,0.0,0.0,0.0,0.0,-1.5398,-1.5397,-1.6203,-1.7925,-1.7983,-1.8848,-2.0547,-2.0516,-2.0511,-2.0518,-2.0461,-2.0435,-2.0396,-2.0396,-2.0396,-2.0396,-2.0435,-2.1469,-2.3095,0.0,0.0,0.0,0.0,0.0,0.0,0.0,0.0,0.0,0.0,-2.6289,-2.707,-2.7461,0.0,0.0,0.0,0.0,0.0,-3.0609,-3.0525,-3.0448,-3.0448,-3.0417,-3.0398,-3.0398,-3.0398,0.0,0.0,0.0,0.0,0.0,-3.0267,-3.0155,-3.0037,-2.9927,-2.9845,-2.9845,-2.9589,-2.9412,-2.9412,-2.9178,-2.914,-2.9531,-2.9953,-3.0522,-3.1256,-3.1715,-3.2302,-3.3109,-3.3146,-3.3348,-3.3788,-3.3807,-3.3807,-3.3807,-3.4559,-3.4945,-3.4945,-3.4945,-3.4945,-3.4945,-3.4945,-3.5183,-3.5605,-3.5605,-3.5862,-3.6303,-3.6303,-3.6303,-3.6303,-3.6303,-3.6523,-3.6835,-3.6835,-3.6425,-3.5952,0.0,0.0,0.0,0.0,0.0,0.0,0.0,0.0,0.0,0.0,0.0,0.0,0.0,0.0,0.0,0.0,0.0,0.0,0.0,0.0,-1.5391,-1.5391,-1.5391,-1.6211,-1.7969,-1.8008,-1.8848,-2.0605,-2.0547,-2.0541,-2.06,-2.0542,-2.0502,-2.0441,-2.0441,-2.0441,-2.0461,-2.0656,-2.1656,-2.312,0.0,0.0,0.0,0.0,0.0,0.0,0.0,0.0,0.0,0.0,0.0,0.0,0.0,0.0,0.0,-2.9531,-3.0069,-3.0607,-3.0604,-3.0506,-3.0398,-3.0398,-3.0398,-3.0398,-3.0398,-3.0398,0.0,0.0,0.0,0.0,0.0,-3.0182,-2.9939,-2.9729,-2.9661,-2.9644,-2.9644,-2.9435,-2.931,-2.931,-2.9134,-2.8994,-2.8994,-2.9567,-3.0008,-3.0191,-3.076,-3.1476,-3.2284,-3.232,-3.2596,-3.322,-3.3421,-3.3532,-3.3532,-3.3715,-3.3807,-3.3807,-3.3807,-3.3807,-3.3807,-3.3807,-3.4137,-3.4715,-3.4715,-3.511,-3.5716,-3.5716,-3.5716,-3.5716,-3.5611,-3.5692,-3.5893,-3.6047,-3.5468,-3.4764,0.0,0.0,0.0,0.0,0.0,0.0,0.0,0.0,0.0,0.0,0.0,0.0,0.0,0.0,0.0,0.0,0.0,0.0,0.0,0.0,-1.5391,-1.5391,-1.5391,-1.6211,-1.7969,-1.8008,-1.8848,-2.0605,-2.0605,-2.0605,-2.0605,-2.0605,-2.0586,-2.0585,-2.0585,-2.0585,-2.0644,-2.1445,-2.2304,-2.3163,-2.3983,0.0,0.0,0.0,0.0,0.0,0.0,0.0,0.0,0.0,0.0,0.0,0.0,0.0,-2.8555,-2.9355,-3.0069,-3.0607,-3.0604,-3.0506,-3.0398,-3.0398,-3.0398,-3.0398,-3.0398,-3.0398,0.0,-3.0398,0.0,0.0,-3.0355,-3.0182,-2.9939,-2.9729,-2.9533,-2.9414,-2.9414,-2.9181,-2.904,-2.904,-2.9017,-2.8994,-2.8994,-2.9049,-2.9402,-3.0136,-3.0246,-3.0632,-3.1439,-3.1476,-3.1494,-3.1568,-3.2302,-3.2706,-3.2706,-3.344,-3.3807,-3.3807,-3.3807,-3.3807,-3.3807,-3.3807,-3.3825,-3.3899,-3.3899,-3.3917,-3.3972,-3.3972,-3.3972,-3.3945,-3.3571,-3.3876,-3.4617,-3.5309,-3.5805,-3.609,0.0,0.0,0.0,0.0,0.0,0.0,0.0,0.0,0.0,0.0,0.0,0.0,0.0,0.0,0.0,0.0,0.0,0.0,0.0,0.0,-1.5391,-1.5391,-1.5918,-1.6777,-1.7969,-1.8008,-1.8848,-2.0605,-2.0605,-2.0605,-2.0605,-2.0605,-2.0605,-2.0605,-2.0605,-2.0605,-2.0664,-2.1523,-2.2363,-2.3184,-2.4043,-2.4922,0.0,0.0,0.0,0.0,0.0,0.0,0.0,0.0,-2.5703,-2.5762,0.0,-2.7168,-2.8356,-2.8643,-2.9629,-3.0587,-3.0546,-3.0467,-3.0398,-3.0398,-3.0398,0.0,0.0,-3.0398,-3.0398,-3.0398,-3.0196,-2.9954,-2.9801,-2.9697,-2.9551,-2.9314,-2.9203,-2.9156,-2.9156,-2.9067,-2.8994,-2.8994,-2.8994,-2.8994,-2.8994,-2.8994,-2.9122,-2.9439,-2.9211,-2.9532,-3.0613,-3.0421,-3.0615,-3.1384,-3.1472,-3.1636,-3.1843,-3.1701,-3.1733,-3.201,-3.3204,-3.3807,-3.3807,-3.3807,-3.3807,-3.3807,-3.3807,-3.3807,-3.3807,-3.3807,-3.3634,-3.339,-3.2952,-3.276,-3.2842,-3.3413,-3.3586,-3.3519,0.0,0.0,0.0,0.0,0.0,0.0,0.0,0.0,0.0,0.0,0.0,0.0,0.0,0.0,0.0,0.0,0.0,0.0,-1.5391,-1.5391,-1.5391,-1.5391,-1.623,-1.7105,-1.7972,-1.8267,-1.9126,-2.0605,-2.0605,-2.0605,-2.0605,-2.0605,-2.0605,-2.0605,-2.0605,-2.0742,-2.1074,-2.1934,-2.2773,-2.3594,-2.4453,-2.5176,0.0,0.0,0.0,0.0,0.0,0.0,0.0,0.0,-2.5703,0.0,0.0,0.0,0.0,0.0,-2.9342,-3.0582,-3.0524,-3.0448,-3.0367,-3.0279,0.0,0.0,-3.0202,-3.0228,-3.0254,-3.0202,-3.0018,-2.978,-2.9353,-2.9351,-2.931,-2.9044,-2.8994,-2.8994,-2.8994,-2.8994,-2.8994,-2.8994,-2.8994,-2.8994,-2.8994,-2.8994,-2.8994,-2.8994,-2.8633,-2.8775,-2.9582,-2.9258,-2.944,-3.0275,-3.0333,-3.0441,-3.0683,-3.0449,-3.0428,-3.0743,-3.2063,-3.2702,-3.2702,-3.3058,-3.3168,-3.3055,-3.331,-3.339,-3.339,-3.339,-3.3118,-3.2727,-3.2583,-3.2196,-3.1861,-3.235,-3.2316,-3.2074,0.0,0.0,0.0,0.0,0.0,0.0,0.0,0.0,0.0,0.0,0.0,0.0,0.0,0.0,0.0,0.0,0.0,0.0,-1.541,-1.5391,-1.5391,-1.5391,-1.623,-1.7112,-1.7976,-1.8862,-1.9735,-2.0605,-2.0605,-2.0605,-2.0605,-2.0605,-2.0605,-2.0605,-2.0605,-2.1074,-2.1953,-2.2832,-2.3652,-2.4473,-2.5352,-2.5703,-2.5703,0.0,0.0,0.0,0.0,0.0,0.0,0.0,-2.5703,0.0,0.0,0.0,0.0,0.0,-2.9337,-3.0564,-3.0506,-3.0436,-3.0323,0.0,0.0,0.0,-2.9729,-2.9861,-2.9939,-2.9748,-2.9696,-2.9551,-2.9089,-2.9222,-2.931,-2.9044,-2.8994,-2.8994,-2.8994,-2.8994,-2.8994,-2.8994,-2.8994,-2.8994,-2.8994,-2.8994,-2.8994,-2.8994,-2.8633,-2.8394,-2.8394,-2.8075,-2.7897,-2.7897,-2.867,-2.9071,-2.9089,-2.9852,-3.029,-3.0272,-3.0272,-3.029,-3.0325,-3.1458,-3.1769,-3.1448,-3.2163,-3.2466,-3.2466,-3.2466,-3.2178,-3.1844,-3.2298,-3.2196,-3.1844,-3.2298,-3.2484,-3.2484,0.0,0.0,0.0,0.0,0.0,0.0,0.0,0.0,0.0,0.0,0.0,0.0,0.0,0.0,0.0,0.0,0.0,0.0,-1.5391,-1.5391,-1.5391,-1.5391,-1.6816,-1.7718,-1.793,-1.9377,-2.0268,-2.0529,-2.0529,-2.0538,-2.0527,-2.0527,-2.0547,-2.0605,-2.0605,-2.1074,-2.1953,-2.2773,-2.3613,-2.4473,-2.5352,-2.5703,-2.5703,0.0,0.0,0.0,0.0,0.0,0.0,0.0,0.0,0.0,0.0,0.0,0.0,-2.7911,-2.8791,-2.9717,-3.0275,-3.0286,0.0,-3.0013,0.0,0.0,0.0,-2.9643,0.0,0.0,-2.9474,-2.9394,-2.9067,-2.9085,-2.9089,-2.9017,-2.8994,-2.8994,-2.8994,-2.8994,-2.8994,-2.8994,-2.8994,-2.8994,-2.8994,-2.8994,-2.8994,-2.8994,-2.8633,-2.8394,-2.8394,-2.8075,-2.7897,-2.7897,-2.7847,-2.7952,-2.8262,-2.7935,-2.7898,-2.8181,-2.8181,-2.8925,-3.0308,-3.0647,-3.0736,-3.0632,-3.0863,-3.0951,-3.0938,-3.06,-3.0401,-3.0283,-3.0659,-3.0717,-3.0674,-3.1336,-3.16,-3.16,0.0,0.0,0.0,0.0,0.0,0.0,0.0,0.0,0.0,0.0,0.0,0.0,0.0,0.0,0.0,0.0,0.0,0.0,0.0,-1.5391,-1.5391,-1.5391,-1.7064,-1.8314,-1.8966,-1.9997,-2.0532,-2.0504,-2.0504,-2.0508,-2.05,-2.0503,-2.0547,-2.0625,-2.0957,-2.1582,-2.2422,-2.3262,-2.4121,-2.4961,-2.5488,-2.5703,-2.5703,0.0,0.0,0.0,0.0,0.0,0.0,0.0,0.0,0.0,0.0,0.0,0.0,-2.7783,-2.8514,-2.9251,-3.003,-3.0061,0.0,-2.978,-2.9661,-2.9514,-2.9291,0.0,0.0,-2.9267,-2.9246,-2.9181,-2.904,-2.8994,-2.8994,-2.8994,-2.8994,-2.8994,-2.8994,-2.8994,-2.8994,-2.8994,-2.8994,-2.8994,-2.8994,-2.8994,-2.8994,-2.8994,-2.8633,-2.8342,-2.821,-2.7851,-2.7589,-2.7409,-2.7178,-2.7178,-2.7409,-2.6939,-2.6808,-2.7051,-2.7051,-2.7708,-2.8896,-2.932,-2.946,-2.9318,-2.9632,-2.9772,-2.9756,-2.9489,-2.9369,-2.9368,-2.9559,-2.9651,-2.9719,-3.0142,-3.0311,-3.0311,0.0,0.0,0.0,0.0,0.0,0.0,0.0,0.0,0.0,0.0,0.0,0.0,0.0,0.0,0.0,0.0,0.0,0.0,0.0,0.0,-1.5449,-1.5508,-1.7176,-1.8881,-2.057,-2.0594,-2.0564,-2.0499,-2.0508,-2.0504,-2.0493,-2.0503,-2.0546,-2.0644,-2.1504,-2.2344,-2.3164,-2.4023,-2.4902,-2.5703,-2.5703,-2.5703,-2.5703,-2.5703,0.0,0.0,0.0,0.0,0.0,0.0,0.0,0.0,0.0,0.0,-2.6862,-2.7725,-2.8358,-2.895,-2.9775,0.0,0.0,-2.9454,-2.9392,0.0,-2.9062,-2.8994,-2.8994,-2.8994,-2.8994,-2.8994,-2.8994,-2.8994,-2.8994,-2.8994,-2.8994,-2.8994,-2.8952,-2.8952,-2.8929,-2.8905,-2.8905,-2.8905,-2.8905,-2.8905,-2.8905,-2.8905,-2.8565,-2.821,-2.7869,-2.75,-2.7115,-2.6725,-2.6691,-2.6691,-2.6691,-2.6691,-2.6691,-2.6691,-2.6691,-2.6691,-2.6759,-2.7772,-2.8065,-2.7722,-2.8467,-2.8808,-2.8808,-2.8808,-2.8808,-2.8789,-2.8839,-2.8873,-2.889,-2.8958,-2.9011,-2.9011,0.0,0.0,0.0,0.0,0.0,0.0,0.0,0.0,0.0,0.0,0.0,0.0,0.0,0.0,0.0,0.0,0.0,0.0,0.0,0.0,-1.5703,-1.6387,-1.804,-1.9461,-2.0577,-2.0553,-2.0512,-2.0494,-2.0493,-2.0504,-2.0512,-2.0495,-2.0546,-2.0644,-2.1504,-2.2344,-2.3164,-2.4023,-2.4902,-2.5703,-2.5703,-2.5703,-2.5703,-2.5703,-2.5703,0.0,0.0,0.0,0.0,0.0,0.0,0.0,-2.5446,-2.5563,-2.5986,-2.7486,-2.786,-2.8117,-2.9599,-2.9748,0.0,0.0,-2.9246,-2.9067,-2.9017,-2.8994,-2.8994,-2.8994,-2.8994,-2.8994,-2.8994,-2.8994,-2.8994,-2.8994,-2.8994,-2.8905,-2.8565,-2.854,-2.8438,-2.8174,-2.8147,-2.8147,-2.8147,-2.8147,-2.8147,-2.8147,-2.8065,-2.7851,-2.7439,-2.7365,-2.7115,-2.6725,-2.6691,-2.6691,-2.6691,-2.6691,-2.6691,-2.6691,-2.6691,-2.6691,-2.6708,-2.6944,-2.7029,-2.6945,-2.7114,-2.7182,-2.7182,-2.7182,-2.7182,-2.7249,-2.7841,-2.8078,-2.8146,-2.8755,-2.9011,-2.9011,0.0,0.0,0.0,0.0,0.0,0.0,0.0,0.0,0.0,0.0,0.0,0.0,0.0,0.0,0.0,0.0,0.0,0.0,0.0,0.0,-1.5977,-1.7266,-1.8555,-1.9678,-2.0581,-2.056,-2.054,-2.0547,-2.0547,-2.0535,0.0,-2.0504,-2.0515,-2.0616,-2.1927,-2.2734,-2.3184,-2.4473,-2.5273,-2.5703,-2.5703,-2.5703,-2.5703,-2.5652,-2.5654,-2.5644,-2.5576,0.0,0.0,0.0,0.0,0.0,0.0,0.0,-2.5697,-2.739,-2.7638,-2.7725,-2.939,0.0,0.0,-2.9203,0.0,-2.8994,-2.8994,-2.8994,-2.8994,-2.8994,-2.8994,-2.8994,-2.8994,-2.8994,-2.8994,-2.8994,-2.8994,-2.8863,-2.8446,-2.8394,-2.829,-2.7954,-2.7897,-2.7897,-2.7897,-2.7897,-2.7897,-2.7897,-2.7897,-2.7707,-2.7334,-2.7303,-2.7115,-2.6725,-2.6691,-2.6691,-2.6691,-2.6691,-2.6691,-2.6691,-2.6691,-2.6691,-2.6691,-2.6691,-2.6691,-2.6691,-2.6691,-2.6691,-2.6691,-2.6691,-2.6691,-2.6725,-2.7131,-2.7283,-2.7334,-2.774,-2.7892,-2.7892,0.0,0.0,0.0,0.0,0.0,0.0,0.0,0.0,0.0,0.0,0.0,0.0,0.0,0.0,0.0,0.0,0.0,0.0,0.0,0.0,0.0,-1.8144,-1.9062,-1.9863,-2.0586,-2.0593,-2.0585,-2.0576,-2.0576,0.0,0.0,0.0,0.0,-2.0792,-2.2445,-2.3217,0.0,-2.4991,-2.5676,-2.5661,-2.5661,-2.5661,-2.5655,-2.5608,-2.5582,-2.5572,-2.5499,-2.5476,-2.5486,-2.5466,0.0,0.0,0.0,0.0,-2.5561,-2.7166,-2.7404,-2.7483,-2.9022,0.0,-2.8994,-2.8994,-2.8994,0.0,-2.8994,-2.8994,-2.8994,-2.8994,-2.8994,-2.8994,-2.8994,-2.8994,-2.8994,-2.8994,-2.8929,-2.8749,-2.8368,-2.8246,-2.8084,-2.7736,-2.7678,-2.7678,-2.7678,-2.7678,-2.7678,-2.7678,-2.7678,-2.753,-2.7192,-2.721,-2.7051,-2.6725,-2.6691,-2.6691,-2.6691,-2.6691,-2.6691,-2.6691,-2.6691,-2.6691,-2.6691,-2.6691,-2.6691,-2.6691,-2.6691,-2.6691,-2.6691,-2.6691,-2.6691,-2.6691,-2.6691,-2.6691,-2.6691,-2.6691,-2.6691,-2.6691,0.0,0.0,0.0,0.0,0.0,0.0,0.0,0.0,0.0,0.0,0.0,0.0,0.0,0.0,0.0,0.0,0.0,0.0,-1.5399,0.0,0.0,-1.9082,-1.9961,-2.0488,-2.0605,-2.0603,-2.0573,-2.0508,0.0,0.0,0.0,0.0,0.0,-2.1675,0.0,0.0,0.0,-2.5173,-2.557,-2.5535,-2.5535,-2.5535,-2.5531,-2.5517,-2.5503,-2.5505,-2.5447,-2.5418,-2.5409,-2.5341,-2.5322,0.0,0.0,0.0,-2.5225,-2.6218,-2.6722,-2.714,0.0,0.0,-2.8994,0.0,-2.8994,-2.8994,0.0,-2.8994,-2.8994,-2.8994,-2.8994,-2.8994,-2.8994,-2.8994,-2.8994,-2.8994,-2.8707,-2.8368,-2.8037,-2.7678,-2.7286,-2.6906,-2.6873,-2.6873,-2.6873,-2.6873,-2.6873,-2.6873,-2.6873,-2.6858,-2.6774,-2.6791,-2.6758,-2.6691,-2.6691,-2.6691,-2.6691,-2.6691,-2.6691,-2.6691,-2.6691,-2.6691,-2.6691,-2.6691,-2.6691,-2.6691,-2.6691,-2.6691,-2.6691,-2.6691,-2.6691,-2.6691,-2.6691,-2.6691,-2.6691,-2.6691,-2.6691,-2.6691,0.0,0.0,0.0,0.0,0.0,0.0,0.0,0.0,0.0,0.0,0.0,0.0,0.0,0.0,0.0,-1.5308,-1.571,-1.6203,-1.6762,-1.7989,-1.8861,-1.9277,-2.0137,-2.0576,-2.0549,-2.0575,-2.0549,-2.0441,0.0,0.0,0.0,-2.0388,-2.0845,0.0,0.0,0.0,0.0,-2.5164,-2.5532,-2.5507,-2.5507,-2.5434,-2.5331,-2.5421,-2.537,-2.5291,-2.533,-2.5341,-2.5312,-2.5182,-2.5122,-2.513,-2.5037,0.0,0.0,0.0,-2.6486,0.0,-2.8278,-2.8795,-2.8994,0.0,-2.8994,-2.8994,-2.8994,-2.8994,-2.8994,-2.8994,-2.8815,-2.8658,-2.8658,-2.8507,-2.836,-2.836,-2.8255,-2.7992,-2.7619,-2.7409,-2.7147,-2.6758,-2.6691,-2.6691,-2.6691,-2.6691,-2.6691,-2.6691,-2.6691,-2.6691,-2.6691,-2.6691,-2.6691,-2.6691,-2.6691,-2.6691,-2.6691,-2.6691,-2.6691,-2.6691,-2.6691,-2.6691,-2.6691,-2.6691,-2.6691,-2.6691,-2.6691,-2.6691,-2.6691,-2.6691,-2.6691,-2.6691,-2.6691,-2.6691,-2.6691,-2.6691,-2.6691,-2.6691,0.0,0.0,0.0,0.0,0.0,0.0,0.0,0.0,0.0,0.0,0.0,0.0,0.0,0.0,0.0,0.0,-1.6375,-1.725,-1.8162,-1.8846,-1.9344,-1.9629,-2.0254,-2.0575,-2.0493,-2.0542,-2.0503,0.0,0.0,0.0,-2.0389,-2.0523,-2.1037,0.0,-2.2633,0.0,0.0,0.0,0.0,0.0,-2.5388,-2.5275,-2.5162,-2.5218,-2.5156,-2.505,-2.5371,-2.5351,-2.5187,-2.5241,-2.5127,-2.4924,-2.4828,-2.476,0.0,0.0,0.0,0.0,0.0,0.0,-2.8994,-2.8994,-2.8994,-2.8994,0.0,-2.8994,-2.8994,-2.8994,-2.8608,-2.8272,-2.8272,-2.8075,-2.7897,-2.7897,-2.7794,-2.7648,-2.7317,-2.721,-2.7036,-2.6725,-2.6691,-2.6691,-2.6691,-2.6691,-2.6691,-2.6691,-2.6691,-2.6691,-2.6691,-2.6691,-2.6691,-2.6691,-2.6691,-2.6691,-2.6691,-2.6691,-2.6691,-2.6691,-2.6691,-2.6691,-2.6691,-2.6691,-2.6691,-2.6691,-2.6691,-2.6691,-2.6691,-2.6691,-2.6691,-2.6691,-2.6691,-2.6691,-2.6691,-2.6691,-2.6691,-2.6691,0.0,0.0,0.0,0.0,0.0,0.0,0.0,0.0,0.0,0.0,0.0,0.0,-1.5403,-1.6085,-1.654,-1.654,-1.7329,-1.8202,-1.9076,-1.9231,-1.9668,-2.0508,-2.0586,0.0,-2.0493,-2.0508,-2.0438,0.0,0.0,0.0,-2.0331,-2.1081,-2.1799,-2.2471,-2.2767,-2.3775,-2.5245,0.0,0.0,0.0,0.0,-2.503,-2.5005,-2.4869,-2.4818,-2.4917,-2.5695,-2.5465,-2.4932,-2.5695,-2.5431,-2.4818,-2.4804,-2.467,-2.4512,0.0,0.0,0.0,0.0,-2.8994,0.0,-2.8994,-2.8994,-2.8994,-2.8994,-2.8994,-2.8994,-2.8994,-2.843,-2.7926,-2.7926,-2.7926,-2.7897,-2.7897,-2.756,-2.7317,-2.7286,-2.6971,-2.6725,-2.6691,-2.6691,-2.6691,-2.6691,-2.6691,-2.6691,-2.6691,-2.6691,-2.6691,-2.6691,-2.6691,-2.6691,-2.6691,-2.6691,-2.6691,-2.6691,-2.6691,-2.6691,-2.6691,-2.6691,-2.6691,-2.6691,-2.6691,-2.6691,-2.6691,-2.6691,-2.6691,-2.6691,-2.6691,-2.6691,-2.6691,-2.6691,-2.6691,-2.6691,-2.6691,-2.6691,-2.6691,0.0,0.0,0.0,0.0,0.0,0.0,0.0,0.0,0.0,0.0,0.0,0.0,0.0,-1.6445,-1.6837,-1.7389,-1.8232,-1.9098,-1.9916,-2.0037,-2.0194,-2.046,-2.0519,-2.0487,-2.0369,-2.0408,0.0,0.0,0.0,-2.0312,-2.0331,-2.1119,-2.1856,-2.2517,-2.3323,-2.4207,-2.513,-2.5273,0.0,0.0,0.0,0.0,-2.4678,-2.4775,-2.4716,-2.4735,-2.5656,-2.5816,-2.5668,-2.6349,-2.6391,-2.613,-2.6005,-2.5911,-2.5964,-2.648,-2.699,0.0,0.0,0.0,0.0,-2.8994,-2.8815,-2.8615,-2.8615,-2.8438,-2.8281,-2.8281,-2.788,-2.75,-2.75,-2.7286,-2.7115,-2.7115,-2.6987,-2.6906,-2.6906,-2.6791,-2.6691,-2.6691,-2.6691,-2.6691,-2.6691,-2.6691,-2.6691,-2.6691,-2.6691,-2.6691,-2.6691,-2.6691,-2.6691,-2.6691,-2.6691,-2.6691,-2.6691,-2.6691,-2.6691,-2.6691,-2.6691,-2.6691,-2.6691,-2.6691,-2.6691,-2.6691,-2.6691,-2.6691,-2.6691,-2.6691,-2.6691,-2.6691,-2.6691,-2.6691,-2.6691,-2.6691,-2.6691,-2.6691,0.0,0.0,0.0,0.0,0.0,0.0,0.0,0.0,0.0,-1.5751,0.0,0.0,0.0,0.0,-1.7791,-1.8651,-1.9276,-1.9824,-2.0363,-2.0442,-2.0447,-2.0398,-2.0431,-2.0408,-2.0312,-2.035,0.0,0.0,0.0,0.0,0.0,-2.1454,-2.2159,-2.2785,-2.3854,-2.4564,0.0,0.0,0.0,-2.4943,0.0,-2.4862,-2.4905,-2.497,-2.5089,-2.5301,-2.6117,-2.6228,-2.608,-2.6654,-2.664,-2.642,-2.641,-2.649,-2.6759,-2.7548,-2.7787,0.0,-2.8796,0.0,0.0,0.0,-2.8682,-2.8394,-2.8394,-2.8129,-2.7897,-2.7897,-2.756,-2.7303,-2.7303,-2.6971,-2.6691,-2.6691,-2.6691,-2.6691,-2.6691,-2.6691,-2.6691,-2.6691,-2.6691,-2.6691,-2.6691,-2.6691,-2.6691,-2.6691,-2.6691,-2.6691,-2.6691,-2.6691,-2.6691,-2.6691,-2.6691,-2.6691,-2.6691,-2.6691,-2.6691,-2.6691,-2.6691,-2.6691,-2.6691,-2.6691,-2.6691,-2.6691,-2.6691,-2.6691,-2.6691,-2.6691,-2.6691,-2.6691,-2.6691,-2.6691,-2.6691,-2.6691,-2.6691,-2.6691,0.0,0.0,0.0,0.0,0.0,0.0,0.0,0.0,0.0,-1.6522,0.0,0.0,0.0,0.0,0.0,-2.0324,-2.0402,-2.0402,-2.0402,-2.0392,-2.0392,-2.0398,-2.0386,-2.0361,-2.0296,-2.0296,0.0,0.0,0.0,0.0,0.0,0.0,-2.276,-2.3236,-2.4309,-2.479,-2.479,0.0,-2.4804,-2.4775,-2.4613,-2.4981,-2.5652,-2.5481,-2.5894,-2.6622,-2.7031,-2.6675,-2.6081,-2.657,-2.6233,-2.5623,-2.5942,-2.6327,-2.6793,-2.7581,0.0,0.0,0.0,0.0,0.0,-2.8994,-2.8682,-2.8394,-2.8394,-2.8129,-2.7869,-2.7869,-2.756,-2.7272,-2.7272,-2.6954,-2.6691,-2.6691,-2.6691,-2.6691,-2.6691,-2.6691,-2.6691,-2.6691,-2.6691,-2.6691,-2.6691,-2.6691,-2.6691,-2.6691,-2.6691,-2.6674,-2.6657,-2.664,-2.6623,-2.6623,-2.6623,-2.6623,-2.6623,-2.6623,-2.6623,-2.6623,-2.6623,-2.6623,-2.6623,-2.6657,-2.6657,-2.6657,-2.6674,-2.6691,-2.6691,-2.6691,-2.6691,-2.6691,-2.6691,-2.6691,-2.6691,-2.6691,-2.6691,-2.6691,0.0,0.0,0.0,0.0,0.0,0.0,0.0,0.0,-1.648,0.0,0.0,0.0,-1.8647,-1.9522,-2.0134,-2.0372,-2.0392,-2.0372,-2.0334,-2.0361,-2.0304,-2.0115,-2.0164,-2.0097,-1.9931,-1.9931,0.0,0.0,0.0,0.0,0.0,0.0,0.0,0.0,-2.4172,-2.4512,-2.4393,-2.467,0.0,-2.4631,-2.5164,-2.5225,-2.5114,-2.5629,-2.5829,-2.589,-2.6596,-2.6712,-2.6615,-2.7313,-2.7409,-2.726,-2.7352,-2.7433,0.0,-2.7808,-2.7879,0.0,-2.8148,0.0,0.0,0.0,0.0,0.0,-2.802,-2.7736,-2.7378,-2.7083,-2.6922,-2.6873,-2.6873,-2.6791,-2.6691,-2.6691,-2.6691,-2.6691,-2.6691,-2.6691,-2.6691,-2.6691,-2.6691,-2.6691,-2.6691,-2.6691,-2.6691,-2.6691,-2.6691,-2.6471,-2.593,-2.5389,-2.5133,-2.5133,-2.5133,-2.5133,-2.5133,-2.5133,-2.5133,-2.5133,-2.5133,-2.5133,-2.515,-2.5659,-2.5913,-2.593,-2.6471,-2.6691,-2.6691,-2.6691,-2.6691,-2.6691,-2.6691,-2.6691,-2.6691,-2.6691,-2.6691,-2.6691,0.0,0.0,0.0,0.0,0.0,0.0,0.0,-1.6869,-1.7233,0.0,0.0,0.0,-1.9519,-2.0054,-2.0315,-2.0227,-2.0227,-2.0182,-2.0098,-2.0127,-2.0079,-1.9922,-2.027,-2.0414,-2.0299,-2.0634,0.0,0.0,0.0,0.0,0.0,0.0,0.0,0.0,0.0,0.0,0.0,0.0,0.0,-2.4894,-2.5205,-2.5506,-2.5841,-2.6186,-2.6383,-2.6551,-2.6841,-2.6941,-2.6982,-2.7082,-2.7203,-2.7339,-2.7572,-2.7765,-2.7897,-2.7897,-2.7897,0.0,0.0,0.0,0.0,-2.8129,0.0,0.0,-2.7648,-2.7317,-2.6987,-2.6758,-2.6691,-2.6691,-2.6691,-2.6691,-2.6691,-2.6691,-2.6691,-2.6691,-2.6691,-2.6691,-2.6691,-2.6691,-2.6691,-2.6573,-2.6268,-2.6234,-2.6116,-2.5795,-2.5778,-2.5592,-2.5152,-2.4712,-2.4506,-2.4506,-2.4506,-2.4506,-2.4506,-2.4506,-2.4506,-2.4506,-2.4506,-2.4506,-2.4523,-2.4932,-2.5135,-2.5169,-2.5592,-2.5947,-2.6234,-2.6234,-2.642,-2.6691,-2.6691,-2.6691,-2.6691,-2.6691,-2.6691,-2.6691,0.0,0.0,0.0,0.0,0.0,0.0,0.0,-1.7539,-1.7945,0.0,-1.9049,-1.9431,-2.0291,-2.0387,-2.0344,-2.026,-2.025,-2.0188,-2.0073,-2.0073,-2.0061,-2.0037,-2.0722,-2.1104,-2.1091,-2.1779,0.0,0.0,0.0,0.0,0.0,0.0,0.0,0.0,0.0,0.0,0.0,0.0,-2.5143,-2.5515,-2.5199,-2.5871,-2.7054,-2.6862,-2.7183,-2.7707,-2.7317,-2.7161,-2.7034,-2.6193,-2.6108,-2.6455,-2.7,-2.7391,-2.7707,-2.7736,-2.7783,0.0,0.0,0.0,0.0,-2.7811,-2.756,0.0,-2.7303,-2.7019,-2.6758,-2.6725,-2.6691,-2.6691,-2.6691,-2.6623,-2.6573,-2.6573,-2.6505,-2.6471,-2.6573,-2.6573,-2.6539,-2.6454,-2.6454,-2.6201,-2.5541,-2.549,-2.5203,-2.4557,-2.4438,-2.4388,-2.4388,-2.432,-2.4269,-2.4269,-2.4269,-2.4269,-2.4269,-2.4269,-2.4269,-2.4269,-2.4269,-2.4269,-2.4269,-2.4354,-2.4388,-2.4388,-2.4472,-2.4864,-2.549,-2.549,-2.5964,-2.6691,-2.6691,-2.6691,-2.6691,-2.6691,-2.6691,-2.6691,-1.5119,0.0,0.0,0.0,0.0,0.0,0.0,0.0,-1.883,-1.9659,-1.9783,-2.0079,-2.0778,-2.0861,-2.1103,-2.1714,-2.1771,-2.1758,-2.1719,-2.1738,-2.1685,-2.1566,-2.1716,-2.1748,-2.1643,-2.1793,0.0,0.0,0.0,0.0,0.0,0.0,0.0,0.0,0.0,0.0,0.0,0.0,-2.5458,-2.6445,-2.6637,-2.6543,-2.6377,-2.6956,-2.7072,-2.6856,-2.6419,-2.6229,-2.6158,-2.5561,-2.5395,-2.5566,-2.6071,-2.6298,-2.642,-2.6824,-2.6939,-2.6939,-2.6939,-2.6939,-2.6987,-2.7334,-2.7348,0.0,-2.7303,-2.7241,-2.7083,-2.6758,-2.6691,-2.6691,-2.6691,-2.6218,-2.5812,-2.5812,-2.5304,-2.5135,-2.5727,-2.5812,-2.5592,-2.4983,-2.4946,-2.4879,-2.4743,-2.4695,-2.4644,-2.4523,-2.3934,-2.3613,-2.3613,-2.3054,-2.2733,-2.2733,-2.2733,-2.2733,-2.2733,-2.2733,-2.2733,-2.2733,-2.2733,-2.2733,-2.275,-2.3342,-2.3613,-2.3646,-2.4222,-2.4591,-2.4695,-2.4695,-2.549,-2.6691,-2.6691,-2.6691,-2.6691,-2.6691,-2.6691,-2.6691,-1.5854,0.0,0.0,0.0,0.0,0.0,0.0,0.0,-1.9345,-1.9752,-2.0218,-2.0785,-2.1519,-2.1601,-2.173,-2.2083,-2.1946,-2.1816,-2.1756,-2.1584,-2.1461,-2.1407,-2.1788,-2.1966,-2.1904,-2.2283,-2.2718,0.0,0.0,0.0,0.0,0.0,0.0,0.0,0.0,0.0,0.0,0.0,-2.586,-2.6411,-2.6574,-2.6661,-2.6692,-2.6653,-2.6522,-2.6297,-2.5799,-2.5411,-2.5221,-2.5221,-2.5012,-2.4894,-2.5411,-2.5615,-2.5689,-2.621,-2.6367,-2.6401,-2.6624,-2.6691,-2.6758,-2.6971,-2.6987,0.0,0.0,-2.6987,-2.6922,-2.6758,-2.6404,-2.615,-2.615,-2.5541,-2.505,-2.505,-2.4729,-2.4492,-2.4509,-2.4814,-2.4898,-2.4557,-2.4506,-2.4371,-2.3985,-2.3934,-2.3799,-2.3427,-2.3054,-2.2852,-2.2852,-2.2513,-2.231,-2.231,-2.231,-2.231,-2.231,-2.231,-2.231,-2.231,-2.231,-2.231,-2.2327,-2.2682,-2.2852,-2.2868,-2.3241,-2.3613,-2.3934,-2.3934,-2.4594,-2.5625,-2.6015,-2.637,-2.6691,-2.6691,-2.6691,-2.6691,-1.6645,0.0,0.0,0.0,0.0,0.0,0.0,0.0,-1.9787,-1.994,-2.0639,-2.1386,-2.2171,-2.22,-2.2179,-2.2238,-2.1917,-2.1691,-2.1662,-2.1334,-2.1163,-2.1264,-2.1887,-2.2223,-2.2223,-2.2888,-2.3189,0.0,0.0,0.0,0.0,0.0,0.0,0.0,0.0,0.0,0.0,0.0,-2.6065,-2.6079,-2.6079,-2.6533,-2.7083,-2.6193,-2.5924,-2.5924,-2.5259,-2.4712,-2.4307,-2.4752,-2.4576,-2.4348,-2.4855,-2.5067,-2.5144,-2.5689,-2.5852,-2.5924,-2.6315,-2.6419,-2.6436,-2.6556,-2.6505,-2.647,0.0,0.0,0.0,-2.6505,-2.6015,-2.5558,-2.5423,-2.478,-2.4303,-2.4303,-2.4154,-2.3866,-2.3274,-2.3697,-2.4069,-2.4069,-2.4069,-2.3833,-2.3241,-2.319,-2.2936,-2.2344,-2.231,-2.231,-2.231,-2.231,-2.231,-2.231,-2.231,-2.231,-2.231,-2.231,-2.231,-2.231,-2.231,-2.231,-2.231,-2.231,-2.231,-2.231,-2.231,-2.2649,-2.319,-2.319,-2.3613,-2.4388,-2.527,-2.5964,-2.6505,-2.664,-2.6691,-2.6691,-1.7293,-1.7481,0.0,0.0,0.0,0.0,0.0,0.0,-2.0486,-2.1184,-2.1383,-2.1715,-2.2404,-2.2195,-2.2295,-2.299,-2.2693,-2.2621,-2.2946,-2.2614,-2.2548,-2.29,-2.3012,-2.3065,-2.3065,-2.3136,-2.3189,0.0,0.0,0.0,0.0,0.0,0.0,0.0,-2.3211,0.0,0.0,0.0,-2.5631,-2.6023,-2.6023,-2.6318,-2.6674,-2.5672,-2.5577,-2.5888,-2.4855,-2.4158,-2.3724,-2.3752,-2.3767,-2.3794,-2.4307,-2.4511,-2.4592,-2.5128,-2.5297,-2.5297,-2.5373,-2.5373,-2.5486,-2.5961,-2.5726,-2.5598,-2.6505,0.0,-2.6009,-2.5764,0.0,-2.5406,-2.4729,0.0,0.0,-2.3511,-2.2987,-2.253,-2.2446,-2.2513,-2.2564,-2.2564,-2.2564,-2.253,-2.2446,-2.2429,-2.2395,-2.231,-2.231,-2.231,-2.231,-2.231,-2.231,-2.231,-2.231,-2.231,-2.231,-2.231,-2.231,-2.231,-2.231,-2.231,-2.231,-2.231,-2.231,-2.231,-2.231,-2.2361,-2.2429,-2.2429,-2.2868,-2.3663,-2.5067,-2.5659,-2.5812,-2.6454,-2.6691,-2.6691,-1.7517,-1.7656,0.0,0.0,0.0,0.0,0.0,0.0,-2.0963,-2.1948,-2.192,-2.2064,-2.2821,-2.278,-2.2723,-2.2842,-2.2505,-2.2561,-2.316,-2.2601,-2.2441,-2.2881,-2.2664,-2.23,-2.1938,-2.1922,-2.1922,-2.1922,-2.2169,0.0,0.0,0.0,0.0,0.0,-2.3401,0.0,-2.4362,0.0,-2.5379,-2.5503,-2.5221,-2.5357,-2.5746,-2.5012,-2.4657,-2.4552,-2.4116,-2.3794,-2.3595,-2.3595,-2.3595,-2.3638,-2.3879,-2.3964,-2.4032,-2.4592,-2.4752,-2.4816,-2.5105,-2.5221,-2.5335,-2.5888,-2.5615,-2.547,-2.647,-2.6332,-2.5851,-2.5363,0.0,0.0,0.0,0.0,0.0,0.0,-2.2513,-2.231,-2.231,-2.231,-2.231,-2.231,-2.231,-2.231,-2.231,-2.231,-2.231,-2.231,-2.231,-2.231,-2.231,-2.231,-2.231,-2.231,-2.231,-2.231,-2.231,-2.231,-2.231,-2.231,-2.231,-2.231,-2.231,-2.231,-2.231,-2.231,-2.231,-2.231,-2.231,-2.231,-2.2496,-2.2868,-2.3917,-2.4847,-2.5642,-2.5947,-2.6336,-2.6691,-1.7732,0.0,0.0,0.0,0.0,0.0,0.0,-2.0662,-2.1401,-2.242,-2.2334,-2.2494,-2.3291,-2.302,-2.273,-2.262,-2.1994,-2.1893,-2.2545,-2.2118,-2.1947,-2.2232,-2.2274,-2.1943,-2.1302,-2.1467,-2.155,-2.155,0.0,0.0,0.0,0.0,0.0,0.0,0.0,-2.3878,-2.3951,0.0,-2.4973,-2.495,-2.4552,-2.4552,-2.4736,-2.4511,-2.4074,-2.3595,-2.3595,-2.3595,-2.3595,-2.3595,-2.3595,-2.3595,-2.3595,-2.3595,-2.3681,-2.4074,-2.4184,-2.4266,-2.4672,-2.4736,-2.491,-2.5411,-2.5144,-2.5012,-2.6052,-2.5908,-2.5354,-2.4636,-2.4046,0.0,0.0,0.0,-2.1718,-2.2032,0.0,-2.231,-2.231,-2.231,-2.231,-2.231,-2.231,-2.231,-2.231,-2.231,-2.231,-2.231,-2.231,-2.231,-2.231,-2.231,-2.231,-2.231,-2.231,-2.231,-2.231,-2.231,-2.231,-2.231,-2.231,-2.231,-2.231,-2.231,-2.231,-2.231,-2.231,-2.231,-2.231,-2.231,-2.231,-2.2361,-2.2885,-2.3883,-2.505,-2.5456,-2.5947,-2.642,-1.8115,-1.8491,0.0,0.0,0.0,0.0,-2.1371,-2.1534,-2.1836,-2.2607,-2.2686,-2.2998,-2.3786,-2.2546,-2.1953,-2.263,-2.1277,-2.055,-2.1023,-2.1242,-2.1255,-2.1055,-2.2267,-2.2665,-2.1993,-2.2598,-2.2929,-2.2929,0.0,0.0,0.0,0.0,0.0,0.0,-2.3538,-2.3991,-2.5112,-2.4617,-2.443,-2.443,-2.4389,-2.4116,-2.3724,-2.4184,-2.4074,-2.3595,-2.3595,-2.3595,-2.3595,-2.3595,-2.3595,-2.3595,-2.3595,-2.3595,-2.3595,-2.3638,-2.3638,-2.3638,-2.3638,-2.3638,-2.3794,-2.4307,-2.4032,-2.3906,-2.5012,-2.4816,-2.4217,-2.3351,-2.3119,-2.2687,-2.1311,-2.1354,-2.1612,-2.1612,-2.2003,0.0,0.0,-2.231,-2.231,-2.231,-2.231,-2.231,-2.231,-2.231,-2.231,-2.231,-2.231,-2.231,-2.231,-2.231,-2.231,-2.231,-2.231,-2.231,-2.231,-2.231,-2.231,-2.231,-2.231,-2.231,-2.231,-2.231,-2.231,-2.231,-2.231,-2.231,-2.231,-2.231,-2.231,-2.231,-2.2344,-2.2801,-2.363,-2.5084,-2.5625,-2.5744,-1.8419,0.0,0.0,0.0,0.0,-2.0583,-2.1732,-2.1501,-2.1458,-2.2201,-2.1869,-2.1842,-2.2552,-2.2183,-2.2034,-2.239,-2.1572,-2.1281,-2.195,-2.1715,-2.148,-2.1322,-2.2299,-2.2079,-2.0597,-2.159,-2.1933,-2.1481,-2.2388,0.0,0.0,0.0,0.0,0.0,0.0,-2.3751,0.0,0.0,-2.3879,-2.3837,-2.3435,-2.3172,-2.3054,-2.3666,-2.3752,-2.3595,-2.3595,-2.3595,-2.3595,-2.3595,-2.3595,-2.3595,-2.3595,-2.3595,-2.3508,-2.3098,-2.329,-2.3508,-2.3098,-2.329,-2.3709,-2.4266,-2.3991,-2.3879,-2.495,-2.4792,-2.4166,-2.3459,-2.2948,-2.2337,-2.1362,-2.0949,-2.0927,-2.1521,-2.1718,-2.1945,0.0,-2.231,-2.231,-2.231,-2.231,-2.231,-2.231,-2.231,-2.231,-2.231,-2.231,-2.231,-2.231,-2.231,-2.231,-2.231,-2.231,-2.231,-2.231,-2.231,-2.231,-2.231,-2.231,-2.231,-2.231,-2.231,-2.231,-2.231,-2.231,-2.231,-2.231,-2.231,-2.231,-2.231,-2.231,-2.2462,-2.2801,-2.3782,-2.4441,-2.4966,-1.8972,0.0,0.0,-1.9711,-2.0031,-2.0684,-2.1886,-2.1467,-2.1343,-2.2302,-2.1794,-2.1693,-2.2668,-2.2366,-2.2243,-2.2647,-2.1734,-2.1348,-2.1816,-2.1542,-2.1217,-2.091,-2.1829,-2.1668,-2.0197,-2.1167,-2.1513,-2.1081,-2.2149,-2.2598,0.0,0.0,0.0,0.0,0.0,-2.329,-2.329,-2.329,-2.3128,-2.2891,-2.2483,-2.2346,-2.2392,-2.2801,-2.3084,-2.3231,-2.3024,-2.2935,-2.2935,-2.2935,-2.3084,-2.3231,-2.298,-2.3084,-2.3143,-2.2529,-2.277,-2.3143,-2.2529,-2.2815,-2.3319,-2.3419,-2.3172,-2.3187,-2.4096,-2.4028,-2.361,-2.2944,-2.2452,-2.1873,-2.0895,-2.0482,-2.055,-2.1275,-2.1491,-2.1764,0.0,-2.2163,-2.2106,-2.2282,-2.231,-2.231,-2.231,-2.231,-2.231,-2.231,-2.231,-2.231,-2.231,-2.231,-2.231,-2.231,-2.231,-2.2209,-2.2032,-2.2032,-2.1974,-2.1857,-2.1857,-2.1857,-2.1857,-2.1857,-2.1857,-2.1857,-2.1857,-2.1857,-2.1857,-2.1857,-2.1857,-2.1857,-2.1857,-2.1857,-2.1969,-2.3017,-2.3849,-2.4625,-1.9743,-1.9779,-1.9908,-2.0285,-2.0728,-2.1246,-2.1915,-2.142,-2.145,-2.273,-2.2302,-2.2397,-2.3777,-2.2923,-2.2509,-2.3233,-2.1724,-2.0684,-2.0684,-2.0773,-2.0481,-1.9847,-2.0996,-2.1328,-2.0696,-2.1328,-2.1649,-2.1602,-2.23,0.0,0.0,0.0,0.0,0.0,-2.2649,0.0,-2.2649,-2.2649,-2.2253,-2.1663,-2.1663,-2.1663,-2.1649,-2.1602,-2.2007,-2.2558,-2.1899,-2.1697,-2.1697,-2.1697,-2.21,-2.2543,-2.1899,-2.2146,-2.2498,-2.1852,-2.2146,-2.2498,-2.1852,-2.2146,-2.2498,-2.1852,-2.1697,-2.1852,-2.2498,-2.2649,-2.2476,-2.1829,-2.1635,-2.1232,-1.9987,-2.0012,-2.0382,-2.0894,-2.1306,-2.1718,-2.2209,-2.1899,-2.1764,-2.2237,-2.231,-2.231,-2.231,-2.231,-2.231,-2.231,-2.231,-2.231,-2.231,-2.231,-2.231,-2.231,-2.231,-2.2077,-2.1658,-2.1628,-2.1399,-2.1039,-2.1007,-2.0991,-2.0991,-2.0991,-2.0991,-2.0991,-2.0991,-2.0991,-2.0991,-2.0991,-2.0991,-2.0991,-2.0991,-2.0991,-2.1183,-2.2712,-2.3769,-2.4478,-2.0385,-2.0853,-2.121,-2.131,-2.1301,-2.1448,-2.2129,-2.1402,-2.1039,-2.1734,-2.0984,-2.0668,-2.1542,-2.1369,-2.1439,-2.2081,-2.1291,-2.0765,-2.0765,-2.077,-2.0522,-1.9838,-2.0526,-2.0367,-1.9282,-2.0317,-2.065,-2.0205,-2.1397,0.0,-2.1697,0.0,0.0,0.0,0.0,-2.1946,-2.1946,-2.1946,-2.1582,-2.1028,-2.1028,-2.1028,-2.0979,-2.0471,-2.067,-2.1321,-2.1615,-2.1697,-2.1697,-2.1697,-2.1805,-2.1946,-2.1744,-2.1805,-2.1805,-2.121,-2.1486,-2.1805,-2.121,-2.1486,-2.1899,-2.1744,-2.1697,-2.1758,-2.1899,-2.1946,-2.1904,-2.175,-2.1004,-2.0387,-2.0425,-1.9769,-1.9528,-2.0348,-2.0846,-2.1306,-2.1718,-2.1688,-2.1764,-2.2237,-2.231,-2.231,-2.231,-2.231,-2.231,-2.231,-2.231,-2.231,-2.231,-2.231,-2.231,-2.231,-2.231,-2.2237,-2.2106,-2.1764,-2.1552,-2.143,-2.115,-2.0991,-2.0991,-2.0991,-2.0991,-2.0991,-2.0991,-2.0991,-2.0991,-2.0991,-2.0991,-2.0991,-2.0991,-2.0991,-2.1055,-2.1455,-2.2069,-2.2753,-2.0231,-2.0626,-2.095,-2.1281,-2.1184,-2.1321,-2.1924,-2.1517,-2.1231,-2.1513,-2.0996,-2.0787,-2.1158,-2.1167,-2.1351,-2.1669,-2.1161,-2.0795,-2.0795,-2.0232,-1.9709,-1.9359,-1.9325,-1.8936,-1.8221,-1.8948,-1.93,-1.9258,-2.0306,0.0,-2.089,0.0,0.0,0.0,0.0,-2.1568,-2.1293,-2.0988,-2.067,-2.0346,-2.0346,-2.0346,0.0,-1.9952,-2.0055,-2.0396,-2.0769,-2.0841,-2.0841,-2.0841,-2.1051,-2.1245,-2.0953,-2.1051,-2.1197,-2.0547,-2.0818,-2.1161,-2.0534,-2.0818,-2.1245,-2.0939,-2.0841,-2.0953,-2.1245,-2.1293,-2.1293,-2.1293,-2.0575,-1.9901,-1.9958,-1.9383,-1.9214,-2.0143,-2.0516,-2.0846,-2.1275,-2.1165,-2.1197,-2.1691,-2.1721,-2.1721,-2.1721,-2.2077,-2.231,-2.231,-2.231,-2.231,-2.231,-2.231,-2.231,-2.231,-2.231,-2.2209,-2.2003,-2.1568,-2.1228,-2.1023,-2.0632,-2.0447,-2.0447,-2.0447,-2.0447,-2.0447,-2.0447,-2.0447,-2.0447,-2.0447,-2.0447,-2.0447,-2.0632,-2.0682,-2.0715,-2.0926,-2.136,-2.194,-1.9925,-2.0001,-2.021,-2.0822,-2.0919,-2.1056,-2.152,-2.1598,-2.1584,-2.1572,-2.1513,-2.1479,-2.1452,-2.1349,-2.1301,-2.1301,-2.0743,-2.0383,-2.0383,-1.923,-1.8555,-1.8555,-1.7852,-1.7468,-1.7468,-1.7468,-1.7852,-1.8555,-1.9258,0.0,0.0,0.0,0.0,0.0,0.0,0.0,0.0,-1.9888,-1.9643,-1.9643,-1.9527,-1.9579,-1.9643,-1.9527,-1.9527,-1.9527,-1.9527,-1.9643,-1.9798,-1.9798,-2.0207,-2.0547,-2.0003,-2.0207,-2.0547,-1.9952,-2.0194,-2.0547,-1.9952,-2.0258,-2.0547,-1.9952,-1.9798,-1.9952,-2.056,-2.0646,-2.0646,-2.0646,-2.0127,-1.952,-1.908,-1.8893,-1.9103,-1.9954,-2.0128,-2.0265,-2.0667,-2.0434,-2.0366,-2.0846,-2.091,0.0,-2.0991,-2.1691,-2.2152,-2.2209,-2.2209,-2.2237,-2.231,-2.231,-2.231,-2.231,-2.2237,-2.2032,-2.1688,-2.1181,-2.0715,-2.0382,-1.9909,-1.969,-1.969,-1.969,-1.969,-1.969,-1.969,-1.969,-1.969,-1.969,-1.969,-1.9711,-2.0089,-2.0212,-2.028,-2.0731,-2.1181,-2.1603,-2.0541,-2.1043,-2.1374,-2.1531,-2.1545,-2.1417,-2.1027,-2.0946,-2.0946,-2.0953,-2.0492,-2.0129,-2.0131,-1.9594,-1.9218,-1.9218,-1.8584,-1.8155,-1.8155,-1.795,-1.7797,-1.7797,-1.709,-1.6708,-1.6708,-1.6708,-1.7034,-1.7797,-1.8543,-1.919,0.0,0.0,0.0,0.0,0.0,0.0,-1.9085,-1.8927,-1.8874,-1.8821,-1.8221,-1.8328,-1.8821,-1.8232,-1.8015,-1.8015,-1.8015,-1.8768,-1.9798,-1.9798,-1.9901,-1.9952,-1.985,-1.9901,-1.9952,-1.985,-1.9901,-1.9952,-1.985,-1.9901,-1.9952,-1.985,-1.9798,-1.985,-1.9952,-2.0003,-2.0003,-2.0003,-1.9177,-1.8588,-1.8943,-1.8559,-1.8444,-1.9066,-1.914,-1.9148,-1.92,-1.9519,-1.9889,-2.0289,-2.0356,-2.052,-2.0959,-2.1134,-2.1354,-2.1688,-2.1718,-2.1899,-2.2282,-2.231,-2.231,-2.231,-2.1928,-2.1869,-2.2163,-2.1007,-2.0583,-2.0862,-2.0085,-1.969,-1.969,-1.969,-1.969,-1.969,-1.969,-1.969,-1.969,-1.969,-1.969,-1.9726,-1.9782,-1.9818,-1.9839,-2.0246,-2.0715,-2.1103,-2.0194,-2.0534,-2.0594,-2.0218,-2.0155,-1.9915,-1.9258,-1.9165,-1.927,-1.9645,-1.9414,-1.9036,-1.8715,-1.8328,-1.8112,-1.8112,-1.7786,-1.7578,-1.7578,-1.7246,-1.7034,-1.7034,-1.6312,-1.5921,-1.5921,-1.5921,-1.6312,-1.7034,-1.7797,-1.8501,-1.9254,-1.9631,0.0,0.0,0.0,-1.9242,0.0,-1.8424,-1.8112,-1.8124,-1.7743,-1.7797,-1.8112,-1.7743,-1.7578,-1.7578,-1.7578,-1.807,-1.8661,-1.8661,-1.8661,-1.8715,-1.9097,-1.8992,-1.8821,-1.9579,-1.9527,-1.9307,-1.9695,-1.9798,-1.9798,-1.9798,-1.9798,-1.9798,-1.9798,-1.9798,-1.9798,-1.9798,-1.8957,-1.8202,-1.8157,-1.7891,-1.7773,-1.7972,-1.8011,-1.7997,-1.7956,-1.819,-1.8551,-1.9038,-1.9112,-1.9324,-1.9869,-1.9904,-2.0283,-2.1213,-2.1491,-2.1598,-2.1615,-2.1811,-2.184,-2.1615,-2.1415,-2.1415,-2.1615,-2.0748,-2.0416,-2.0616,-2.0015,-1.969,-1.969,-1.969,-1.969,-1.969,-1.969,-1.969,-1.969,-1.969,-1.969,-1.9711,-1.9945,-2.0,-2.0054,-2.0499,-2.0797,-2.1039,-1.9307,-1.9307,-1.915,-1.8555,-1.8447,-1.8274,-1.7688,-1.7468,-1.7633,-1.8394,-1.8442,-1.8205,-1.7677,-1.7468,-1.7357,-1.7357,-1.7246,-1.7135,-1.7135,-1.6585,-1.6265,-1.6265,-1.569,-1.541,-1.541,-1.541,-1.5748,-1.6492,-1.709,-1.7743,-1.8501,-1.9044,0.0,-1.9319,-1.8715,-1.8691,-1.8972,-1.7829,-1.7357,-1.7357,-1.7191,-1.7246,-1.7357,-1.7191,-1.7135,-1.7135,-1.7135,-1.7135,-1.7135,-1.7135,-1.7357,-1.7688,-1.8274,-1.807,-1.7841,-1.8992,-1.8927,-1.8608,-1.9371,-1.9579,-1.9579,-1.9579,-1.9579,-1.9527,-1.9371,-1.9307,-1.9307,-1.9307,-1.8573,-1.7781,-1.7216,-1.7008,-1.6954,-1.7027,-1.6918,-1.6834,-1.6847,-1.7055,-1.7315,-1.7679,-1.8052,-1.838,-1.8688,-1.893,-1.9471,-2.0467,-2.1023,-2.1228,-2.0991,-2.1306,-2.1337,-2.0991,-2.0894,-2.0894,-2.0991,-2.0465,-2.0227,-2.0314,-1.9909,-1.969,-1.969,-1.969,-1.969,-1.969,-1.969,-1.969,-1.969,-1.969,-1.969,-1.9711,-2.007,-2.0193,-2.0227,-2.0682,-2.0862,-2.0926,-1.7797,-1.7797,-1.7797,-1.7743,-1.7688,-1.7688,-1.7633,-1.7034,-1.6866,-1.7633,-1.7677,-1.7677,-1.7633,-1.6978,-1.6595,-1.6595,-1.5968,-1.5633,-1.5633,-1.5526,-1.5526,-1.5526,-1.541,-1.541,-1.541,-1.541,-1.5748,-1.6492,-1.6539,-1.6978,-1.7677,-1.7786,-1.7797,-1.7786,-1.7731,-1.7357,-1.681,-1.6652,-1.6595,-1.6539,-1.5864,-1.6026,-1.6539,-1.5864,-1.5633,-1.5633,-1.5633,-1.5633,-1.5633,-1.5633,-1.6461,-1.7633,-1.7688,-1.7688,-1.7633,-1.7797,-1.7743,-1.7841,-1.8608,-1.8821,-1.8821,-1.8821,-1.8821,-1.8608,-1.7961,-1.7797,-1.7797,-1.7797,-1.7473,-1.7074,-1.6548,-1.6089,-1.5928,-1.6378,-1.5997,-1.5692,-1.574,-1.6608,-1.7055,-1.6591,-1.7906,-1.865,-1.8224,-1.9043,-1.9479,-1.9103,-1.9919,-2.0583,-2.0959,-2.1039,-2.1023,-2.0991,-2.0583,-2.0583,-2.1007,-2.0174,-1.9929,-2.0314,-1.9909,-1.969,-1.969,-1.969,-1.969,-1.969,-1.969,-1.969,-1.969,-1.969,-1.969,-1.9711,-1.9747,-1.9747,-1.9818,-2.0227,-2.0382,-2.0449,-1.7578,-1.7578,-1.7468,-1.7034,-1.6922,-1.681,-1.6358,-1.6026,-1.5979,-1.6244,-1.6301,-1.6301,-1.6301,-1.6026,-1.5864,-1.5864,-1.5584,-1.541,-1.541,-1.541,-1.541,-1.541,-1.541,-1.541,-1.541,-1.541,-1.5526,-1.5864,-1.6265,-1.6652,-1.6922,-1.7413,-1.7578,-1.7578,-1.7146,-1.6765,-1.6492,-1.6036,-1.5864,-1.5806,-1.5526,-1.5584,-1.5806,-1.5526,-1.541,-1.541,-1.541,-1.541,-1.541,-1.541,-1.5796,-1.6358,-1.681,-1.6641,-1.6461,-1.7357,-1.7302,-1.709,-1.7852,-1.8058,-1.8058,-1.8058,-1.8058,-1.7961,-1.7688,-1.7578,-1.7578,-1.7578,-1.7058,-1.6305,-1.5541,-1.5174,-1.5005,-1.4835,-1.4653,-1.447,-1.4503,-1.4914,-1.5217,-1.5342,-1.5966,-1.6413,-1.6541,-1.7531,-1.8232,-1.8349,-1.9555,-2.0296,-2.0208,-2.0162,-2.0162,-2.0208,-1.9722,-1.9687,-2.0208,-1.9889,-1.9782,-1.9929,-1.9782,-1.969,-1.969,-1.969,-1.969,-1.969,-1.969,-1.969,-1.969,-1.969,-1.969,-1.969,-1.969,-1.969,-1.9711,-1.9874,-1.9929,-1.998,-1.6968,-1.6968,-1.68,-1.6255,-1.6208,-1.5979,-1.5468,-1.541,-1.5294,-1.505,-1.5225,-1.541,-1.541,-1.541,-1.541,-1.541,-1.541,-1.541,-1.541,-1.541,-1.541,-1.541,-1.541,-1.541,-1.541,-1.541,-1.541,-1.541,-1.5921,-1.6208,-1.6208,-1.6698,-1.6968,-1.6912,-1.6425,-1.6208,-1.6151,-1.5642,-1.541,-1.541,-1.541,-1.541,-1.541,-1.541,-1.541,-1.541,-1.541,-1.541,-1.541,-1.541,-1.541,-1.5468,-1.6036,-1.5806,-1.5575,-1.6631,-1.6585,-1.6312,-1.709,-1.7257,-1.7257,-1.7257,-1.7257,-1.7191,-1.7024,-1.6968,-1.6948,-1.6885,-1.6356,-1.5587,-1.4598,-1.4422,-1.4283,-1.3862,-1.3637,-1.36,-1.3779,-1.3935,-1.4204,-1.4652,-1.5129,-1.5452,-1.5528,-1.6541,-1.7206,-1.7248,-1.8403,-1.9221,-1.9442,-1.9434,-1.9346,-1.9244,-1.9006,-1.908,-1.9442,-1.9603,-1.9603,-1.9442,-1.9442,-1.9442,-1.9479,-1.9639,-1.969,-1.969,-1.969,-1.969,-1.969,-1.969,-1.969,-1.969,-1.969,-1.969,-1.969,-1.969,-1.969,-1.969,-1.541,-1.541,-1.541,-1.541,-1.541,-1.541,-1.541,-1.541,-1.5108,-1.4332,-1.4932,-1.541,-1.541,-1.541,-1.541,-1.541,-1.541,-1.541,-1.541,-1.541,-1.541,-1.541,-1.541,-1.541,-1.541,-1.541,-1.541,-1.541,-1.541,-1.541,-1.541,-1.541,-1.541,-1.541,-1.541,-1.541,-1.541,-1.541,-1.541,-1.541,-1.541,-1.541,-1.541,-1.541,-1.541,-1.541,-1.541,-1.541,-1.541,-1.541,-1.541,-1.541,-1.541,-1.541,-1.541,-1.541,-1.541,-1.5584,-1.6322,-1.6482,-1.6482,-1.6482,-1.6482,-1.6312,-1.5584,-1.541,-1.5338,-1.5183,-1.5143,-1.4851,-1.3947,-1.3815,-1.3815,-1.3815,-1.3286,-1.3104,-1.3732,-1.4264,-1.4608,-1.4687,-1.617,-1.6764,-1.5708,-1.6566,-1.6738,-1.5624,-1.6052,-1.71,-1.8803,-1.8893,-1.865,-1.8145,-1.8612,-1.8893,-1.8893,-1.9442,-1.9442,-1.8893,-1.8893,-1.8893,-1.893,-1.9442,-1.969,-1.969,-1.969,-1.969,-1.969,-1.969,-1.969,-1.969,-1.969,-1.969,-1.969,-1.969,-1.969,-1.969,-1.541,-1.4932,-1.4569,-1.4569,-1.4154,-1.3786,-1.3786,-1.3786,-1.3666,-1.3425,-1.3606,-1.3786,-1.3786,-1.4746,-1.5167,-1.4628,-1.4569,-1.4569,-1.4569,-1.4094,-1.4034,-1.4569,-1.4085,-1.3786,-1.3786,-1.3786,-1.3786,-1.3786,-1.3786,-1.3786,-1.3786,-1.3786,-1.4085,-1.4569,-1.4569,-1.4874,-1.541,-1.541,-1.541,-1.541,-1.541,-1.541,-1.541,-1.541,-1.541,-1.541,-1.541,-1.541,-1.541,-1.541,-1.541,-1.541,-1.541,-1.541,-1.541,-1.541,-1.541,-1.5468,-1.57,-1.5748,-1.5748,-1.5748,-1.5748,-1.57,-1.5468,-1.541,-1.5311,-1.4974,-1.466,-1.428,-1.3691,-1.3352,-1.32,-1.32,-1.3017,-1.2978,-1.3152,-1.3314,-1.3447,-1.3478,-1.3946,-1.4111,-1.3779,-1.479,-1.5469,-1.5504,-1.6388,-1.6974,-1.7113,-1.7165,-1.7287,-1.7477,-1.7679,-1.7987,-1.8341,-1.8535,-1.8688,-1.8893,-1.8535,-1.8341,-1.838,-1.8535,-1.8612,-1.8612,-1.8612,-1.8612,-1.8612,-1.8612,-1.8612,-1.8612,-1.8612,-1.8612,-1.865,-1.9006,-1.9169,-1.9207,-1.451,-1.4085,-1.3734,-1.3734,-1.3304,-1.3009,-1.3009,-1.3009,-1.2887,-1.2573,-1.2826,-1.2887,-1.2573,-1.3726,-1.4332,-1.3786,-1.3734,-1.3734,-1.3734,-1.3312,-1.3252,-1.3734,-1.3252,-1.3009,-1.3009,-1.3009,-1.3009,-1.3009,-1.3009,-1.3009,-1.3009,-1.3009,-1.3252,-1.3734,-1.3734,-1.4034,-1.451,-1.451,-1.451,-1.451,-1.451,-1.4688,-1.4932,-1.4932,-1.5108,-1.541,-1.541,-1.541,-1.541,-1.541,-1.541,-1.541,-1.541,-1.541,-1.541,-1.541,-1.541,-1.541,-1.541,-1.541,-1.541,-1.541,-1.541,-1.541,-1.541,-1.541,-1.5293,-1.4873,-1.4434,-1.4004,-1.3584,-1.3164,-1.2881,-1.2881,-1.2666,-1.2559,-1.2871,-1.2666,-1.2647,-1.319,-1.3238,-1.3238,-1.3238,-1.3878,-1.4356,-1.4494,-1.5194,-1.5437,-1.5025,-1.591,-1.6464,-1.6608,-1.6857,-1.7244,-1.7787,-1.7987,-1.8185,-1.8302,-1.7947,-1.7787,-1.7827,-1.8027,-1.8106,-1.8106,-1.8106,-1.8106,-1.8106,-1.8106,-1.8106,-1.8106,-1.8106,-1.8106,-1.8145,-1.8496,-1.8612,-1.865,-1.3009,-1.2948,-1.2948,-1.2948,-1.2887,-1.2826,-1.2826,-1.2826,-1.2573,-1.1834,-1.2389,-1.2581,-1.1772,-1.2389,-1.2826,-1.2826,-1.2887,-1.2948,-1.2948,-1.2887,-1.2887,-1.2887,-1.2887,-1.2826,-1.2826,-1.2826,-1.2826,-1.2826,-1.2826,-1.2826,-1.2826,-1.2826,-1.2887,-1.2948,-1.2948,-1.2948,-1.3009,-1.3009,-1.3009,-1.3009,-1.3009,-1.3433,-1.4145,-1.4145,-1.4569,-1.5225,-1.5225,-1.5225,-1.5225,-1.5225,-1.5225,-1.5225,-1.5225,-1.5225,-1.5235,-1.5352,-1.541,-1.541,-1.5352,-1.5294,-1.5294,-1.5235,-1.5294,-1.5294,-1.5294,-1.5352,-1.5303,-1.4912,-1.4463,-1.4014,-1.3623,-1.3134,-1.2822,-1.2822,-1.2187,-1.1981,-1.2666,-1.2187,-1.2258,-1.3521,-1.3721,-1.3732,-1.3732,-1.3732,-1.3505,-1.3017,-1.2968,-1.2968,-1.2968,-1.5016,-1.6003,-1.5499,-1.6003,-1.6562,-1.7092,-1.7653,-1.7706,-1.7229,-1.7271,-1.7271,-1.7271,-1.7747,-1.7987,-1.7987,-1.7987,-1.7987,-1.7987,-1.7987,-1.7987,-1.7987,-1.7987,-1.7987,-1.7987,-1.8027,-1.8027,-1.8066,-1.3009,-1.2512,-1.2081,-1.2081,-1.16,-1.1178,-1.1178,-1.1178,-1.1115,-1.0926,-1.1052,-1.1115,-1.0926,-1.1052,-1.1178,-1.1178,-1.1717,-1.2081,-1.2081,-1.1538,-1.1413,-1.2081,-1.1476,-1.1178,-1.1178,-1.1178,-1.1178,-1.1178,-1.1178,-1.1178,-1.1178,-1.1178,-1.1476,-1.2081,-1.2081,-1.2451,-1.3009,-1.3009,-1.3009,-1.3009,-1.3009,-1.313,-1.3312,-1.3312,-1.3425,-1.3554,-1.3554,-1.3554,-1.3554,-1.3554,-1.3554,-1.3554,-1.3554,-1.3554,-1.3795,-1.505,-1.541,-1.5294,-1.4628,-1.451,-1.4332,-1.3726,-1.4034,-1.451,-1.451,-1.4932,-1.5381,-1.5283,-1.4658,-1.4048,-1.4004,-1.2935,-1.208,-1.208,-1.1466,-1.1116,-1.1275,-1.1566,-1.1913,-1.2258,-1.2783,-1.3104,-1.3104,-1.3104,-1.3238,-1.3552,-1.36,-1.36,-1.36,-1.4133,-1.4354,-1.4226,-1.4824,-1.5186,-1.5309,-1.5915,-1.6373,-1.668,-1.7118,-1.7076,-1.668,-1.6837,-1.6879,-1.6879,-1.6879,-1.6879,-1.6879,-1.6879,-1.6879,-1.6879,-1.6879,-1.6879,-1.6909,-1.7353,-1.7504,-1.7544,-1.1911,-1.1538,-1.1226,-1.1226,-1.0863,-1.0624,-1.0624,-1.0624,-1.0624,-1.0624,-1.0624,-1.0624,-1.0624,-1.0624,-1.0624,-1.0624,-1.0982,-1.1226,-1.1226,-1.0863,-1.08,-1.1226,-1.08,-1.0624,-1.0624,-1.0624,-1.0624,-1.0624,-1.0624,-1.0624,-1.0624,-1.0624,-1.08,-1.1226,-1.1226,-1.1476,-1.1911,-1.1911,-1.1911,-1.1911,-1.1911,-1.2151,-1.2451,-1.2451,-1.2696,-1.3009,-1.3009,-1.3009,-1.3009,-1.3009,-1.3009,-1.3009,-1.3009,-1.3009,-1.3183,-1.4034,-1.4332,-1.4213,-1.3786,-1.3666,-1.3554,-1.313,-1.3312,-1.3734,-1.4145,-1.4569,-1.4864,-1.4864,-1.4213,-1.353,-1.3177,-1.2148,-1.1366,-1.1366,-1.0762,-1.0466,-1.0762,-1.1116,-1.1366,-1.1366,-1.2255,-1.2774,-1.2452,-1.2715,-1.3065,-1.3372,-1.3372,-1.3372,-1.3372,-1.3372,-1.3505,-1.3779,-1.4097,-1.4422,-1.4698,-1.5017,-1.5332,-1.57,-1.5971,-1.5971,-1.57,-1.57,-1.57,-1.57,-1.57,-1.5832,-1.6095,-1.6095,-1.6238,-1.6522,-1.6522,-1.6522,-1.6552,-1.6837,-1.6909,-1.6993,-1.0624,-1.0624,-1.0624,-1.0624,-1.0624,-1.0624,-1.0624,-1.0624,-1.0624,-1.0624,-1.0624,-1.0624,-1.0624,-1.0624,-1.0624,-1.0624,-1.0624,-1.0624,-1.0624,-1.0624,-1.0624,-1.0624,-1.0624,-1.0624,-1.0624,-1.0624,-1.0624,-1.0624,-1.0624,-1.0624,-1.0624,-1.0624,-1.0624,-1.0624,-1.0624,-1.0624,-1.0624,-1.0624,-1.0624,-1.0624,-1.0624,-1.0989,-1.1648,-1.1648,-1.202,-1.2642,-1.2642,-1.2642,-1.2642,-1.2642,-1.2642,-1.2642,-1.2642,-1.2642,-1.2642,-1.2642,-1.2642,-1.2642,-1.2765,-1.2704,-1.2642,-1.2642,-1.2704,-1.3,-1.3657,-1.3906,-1.4025,-1.4025,-1.3411,-1.2685,-1.2006,-1.1194,-1.0661,-1.0762,-1.0167,-0.9865,-1.0559,-1.0669,-1.0669,-1.0669,-1.1792,-1.2353,-1.1715,-1.2197,-1.2569,-1.2569,-1.2569,-1.2618,-1.2715,-1.2715,-1.2997,-1.3637,-1.3637,-1.3967,-1.456,-1.456,-1.4606,-1.4698,-1.4698,-1.4698,-1.4698,-1.4698,-1.4698,-1.4698,-1.4698,-1.5005,-1.5454,-1.5454,-1.5776,-1.625,-1.625,-1.625,-1.625,-1.625,-1.625,-1.625,-1.0624,-1.0624,-1.0624,-1.0624,-1.0624,-1.0624,-1.0624,-1.0624,-1.0624,-1.0624,-1.0624,-1.0624,-1.0624,-1.0624,-1.0624,-1.0624,-1.0624,-1.0624,-1.0624,-1.0624,-1.0624,-1.0624,-1.0624,-1.0624,-1.0624,-1.0624,-1.0624,-1.0624,-1.0624,-1.0624,-1.0624,-1.0624,-1.0624,-1.0624,-1.0624,-1.0624,-1.0624,-1.0624,-1.0624,-1.0624,-1.0624,-1.0681,-1.0807,-1.0807,-1.0863,-1.0989,-1.0989,-1.0989,-1.0989,-1.0989,-1.0989,-1.0989,-1.0989,-1.0989,-1.0989,-1.0989,-1.0989,-1.1115,-1.1772,-1.1476,-1.0989,-1.0989,-1.1469,-1.202,-1.2135,-1.2696,-1.3191,-1.3191,-1.2588,-1.2061,-1.1894,-1.083,-1.0167,-1.072,-0.9762,-0.9211,-0.9865,-0.9961,-0.9961,-0.9961,-1.0669,-1.1074,-1.0965,-1.1065,-1.1124,-1.1124,-1.1124,-1.1375,-1.1922,-1.1972,-1.2286,-1.3017,-1.3065,-1.3334,-1.3909,-1.3956,-1.419,-1.4698,-1.4698,-1.4698,-1.4698,-1.4698,-1.4698,-1.4698,-1.4698,-1.4744,-1.4835,-1.4835,-1.488,-1.4971,-1.4971,-1.4971,-1.4971,-1.4971,-1.4971,-1.5062,-1.0624,-1.0624,-1.0624,-1.0624,-1.0624,-1.0624,-1.0624,-1.0624,-1.0428,-0.9983,-0.9919,-0.9722,-0.9262,-0.9192,-0.9192,-0.9192,-0.9192,-0.9192,-0.9192,-1.0104,-1.0624,-1.0624,-1.0624,-1.0624,-1.0624,-1.0624,-1.0364,-0.9919,-0.9919,-0.9652,-0.9192,-0.9652,-0.9919,-0.9913,-1.0364,-1.0624,-1.0624,-1.0624,-1.0624,-1.0561,-1.011,-1.0174,-1.0561,-1.011,-1.0174,-1.0624,-1.0624,-1.0624,-1.0624,-1.0624,-1.0624,-1.0624,-1.0624,-1.0624,-1.0624,-1.0624,-1.0624,-1.0681,-1.1045,-1.0863,-1.0624,-1.0624,-1.0863,-1.1288,-1.171,-1.2081,-1.2328,-1.2328,-1.1831,-1.1238,-1.0793,-0.9944,-0.9361,-0.9658,-0.9211,-0.891,-0.9211,-0.9562,-0.9666,-0.9316,-1.0167,-1.0661,-1.0312,-1.0568,-1.0813,-1.0813,-1.0813,-1.0965,-1.1266,-1.1266,-1.1425,-1.1742,-1.251,-1.3017,-1.3334,-1.3334,-1.3467,-1.3752,-1.3752,-1.3752,-1.3752,-1.3752,-1.3752,-1.3752,-1.3752,-1.3931,-1.4236,-1.4236,-1.4422,-1.4698,-1.4698,-1.4698,-1.4698,-1.4698,-1.4698,-1.4744,-0.997,-0.997,-0.997,-0.997,-0.997,-0.997,-0.997,-0.997,-0.9779,-0.9069,-0.9011,-0.8748,-0.8091,-0.8027,-0.8027,-0.8027,-0.8027,-0.8027,-0.8027,-0.9256,-0.997,-0.997,-0.997,-0.997,-0.997,-0.997,-0.9652,-0.9011,-0.9011,-0.8683,-0.8027,-0.8678,-0.9011,-0.9011,-0.9716,-0.997,-0.997,-0.997,-0.997,-0.9907,-0.9268,-0.9396,-0.9913,-0.9268,-0.9524,-1.0301,-1.0301,-1.0428,-1.0624,-1.0624,-1.0624,-1.0624,-1.0624,-1.0624,-1.0624,-1.0624,-1.0624,-1.0624,-1.0624,-1.0624,-1.0624,-1.0624,-1.0624,-1.0744,-1.1406,-1.1531,-1.1531,-1.1531,-1.1019,-1.0401,-0.9795,-0.9205,-0.8857,-0.9008,-0.891,-0.8857,-0.9008,-0.9361,-0.9361,-0.8857,-0.9718,-1.0115,-0.9614,-1.0012,-1.0364,-1.0364,-1.0364,-1.0415,-1.0568,-1.0568,-1.0669,-1.0813,-1.1841,-1.251,-1.2657,-1.2657,-1.2715,-1.2881,-1.2881,-1.2881,-1.2881,-1.2881,-1.2881,-1.2881,-1.2881,-1.3152,-1.36,-1.36,-1.3873,-1.4294,-1.4294,-1.4294,-1.4294,-1.4294,-1.4294,-1.4294,-0.8221,-0.8221,-0.8221,-0.8221,-0.8221,-0.8221,-0.8221,-0.8221,-0.8156,-0.8091,-0.8091,-0.8091,-0.8027,-0.8027,-0.8027,-0.8027,-0.8027,-0.8027,-0.8027,-0.8091,-0.8221,-0.8221,-0.8221,-0.8221,-0.8221,-0.8221,-0.8156,-0.8091,-0.8091,-0.8091,-0.8027,-0.8091,-0.8091,-0.8091,-0.8156,-0.8221,-0.8221,-0.8221,-0.8221,-0.8156,-0.8091,-0.8156,-0.8156,-0.8091,-0.8613,-0.9402,-0.9402,-0.9913,-1.0624,-1.0624,-1.0624,-1.0624,-1.0624,-1.0624,-1.0624,-1.0624,-1.0624,-1.0624,-1.0624,-1.0624,-1.0624,-1.0624,-1.0624,-1.0624,-1.0681,-1.0688,-1.0688,-1.0688,-1.0214,-0.9795,-0.9737,-0.9205,-0.9008,-0.9614,-0.9211,-0.9008,-0.9666,-0.9211,-0.8857,-0.8811,-0.891,-0.891,-0.8857,-0.891,-0.8962,-0.8962,-0.8962,-0.9211,-0.9865,-0.9865,-1.0167,-1.0762,-1.0922,-1.1266,-1.1864,-1.1864,-1.2236,-1.2881,-1.2881,-1.2881,-1.2881,-1.2881,-1.2881,-1.2881,-1.2881,-1.2929,-1.2978,-1.2978,-1.2968,-1.3017,-1.3017,-1.3017,-1.3017,-1.3017,-1.3017,-1.3104,-0.8027,-0.8027,-0.8027,-0.8027,-0.8027,-0.8027,-0.8027,-0.8027,-0.7827,-0.7242,-0.7177,-0.6985,-0.647,-0.6404,-0.6404,-0.6404,-0.6404,-0.6404,-0.6404,-0.6404,-0.6859,-0.7962,-0.8027,-0.8027,-0.8027,-0.8027,-0.7762,-0.7177,-0.7177,-0.692,-0.6404,-0.692,-0.7177,-0.7242,-0.7767,-0.8027,-0.8027,-0.8027,-0.8027,-0.7962,-0.7437,-0.7502,-0.7962,-0.7372,-0.8091,-0.921,-0.8683,-0.939,-1.0498,-0.9977,-1.0174,-1.0624,-1.0624,-1.0624,-1.0624,-1.0624,-1.0624,-1.0624,-1.0624,-1.0624,-1.0624,-1.0624,-1.0624,-1.0624,-1.0624,-1.0624,-1.0624,-1.0624,-1.0234,-0.9893,-0.9719,-0.9352,-0.9065,-0.9194,-0.8962,-0.891,-0.9159,-0.8956,-0.8804,-0.8804,-0.8804,-0.8804,-0.8804,-0.8804,-0.8804,-0.8804,-0.8804,-0.8903,-0.9159,-0.9159,-0.9309,-0.9562,-0.9562,-1.0064,-1.1166,-1.1166,-1.1325,-1.1584,-1.1584,-1.1584,-1.1584,-1.1584,-1.1584,-1.1584,-1.1584,-1.1584,-1.1584,-1.1584,-1.1841,-1.2236,-1.2236,-1.251,-1.2881,-1.2881,-1.2881,-1.292,-0.7181,-0.7181,-0.7181,-0.7181,-0.7181,-0.7181,-0.7181,-0.7181,-0.6985,-0.64,-0.6268,-0.6075,-0.5491,-0.5428,-0.5428,-0.5428,-0.5428,-0.5428,-0.5428,-0.5428,-0.5951,-0.7116,-0.7181,-0.7181,-0.7181,-0.7181,-0.6924,-0.6268,-0.6268,-0.6009,-0.5428,-0.6009,-0.6268,-0.6334,-0.692,-0.7181,-0.7181,-0.7181,-0.7181,-0.7116,-0.6531,-0.6658,-0.7116,-0.6527,-0.7181,-0.842,-0.7827,-0.8544,-0.9716,-0.9069,-0.9262,-0.9779,-0.9779,-0.9779,-0.9779,-0.9779,-0.9779,-0.9779,-0.9779,-0.9779,-0.9843,-1.0104,-0.9977,-0.9779,-0.9779,-0.9779,-0.9779,-0.9779,-0.9494,-0.9284,-0.9311,-0.9029,-0.8802,-0.8798,-0.8804,-0.8804,-0.8804,-0.8804,-0.8804,-0.8804,-0.8804,-0.8699,-0.848,-0.848,-0.8374,-0.8103,-0.8103,-0.8209,-0.8427,-0.8699,-0.8804,-0.8804,-0.8804,-0.9263,-1.0167,-1.0364,-1.061,-1.0813,-1.0813,-1.0813,-1.0813,-1.0813,-1.0813,-1.0813,-1.0813,-1.0813,-1.0813,-1.0813,-1.1216,-1.1765,-1.1566,-1.1931,-1.251,-1.2304,-1.2255,-1.2255,-0.5428,-0.5428,-0.5428,-0.5428,-0.5428,-0.5428,-0.5428,-0.5428,-0.5428,-0.5428,-0.5428,-0.5428,-0.5428,-0.5428,-0.5428,-0.5428,-0.5428,-0.5428,-0.5428,-0.5428,-0.5428,-0.5428,-0.5428,-0.5428,-0.5428,-0.5428,-0.5428,-0.5428,-0.5428,-0.5428,-0.5428,-0.5428,-0.5428,-0.5428,-0.5428,-0.5428,-0.5428,-0.5428,-0.5428,-0.5428,-0.5428,-0.5428,-0.5428,-0.5428,-0.5943,-0.6719,-0.6719,-0.7242,-0.8027,-0.7962,-0.8027,-0.8027,-0.8027,-0.8027,-0.8027,-0.8027,-0.8027,-0.8027,-0.8027,-0.8027,-0.8221,-0.9075,-0.8613,-0.8027,-0.8027,-0.8027,-0.8027,-0.8027,-0.7721,-0.7685,-0.8286,-0.8149,-0.8122,-0.8692,-0.8804,-0.8804,-0.8804,-0.8804,-0.8804,-0.8804,-0.8804,-0.848,-0.7777,-0.767,-0.7402,-0.6642,-0.6588,-0.6912,-0.767,-0.8374,-0.8804,-0.8804,-0.8804,-0.8804,-0.8804,-0.9465,-1.0115,-1.0762,-1.0762,-1.0762,-1.0762,-1.0762,-1.0762,-1.0762,-1.0762,-1.0762,-1.0762,-1.0762,-1.1166,-1.1715,-1.1065,-1.1216,-1.1715,-1.1065,-1.0813,-1.0813,-0.5428,-0.5428,-0.5428,-0.5428,-0.5428,-0.5428,-0.5428,-0.5428,-0.5428,-0.5428,-0.5428,-0.5428,-0.5428,-0.5428,-0.5428,-0.5428,-0.5428,-0.5428,-0.5428,-0.5428,-0.5428,-0.5428,-0.5428,-0.5428,-0.5428,-0.5428,-0.5428,-0.5428,-0.5428,-0.5428,-0.5428,-0.5428,-0.5428,-0.5428,-0.5428,-0.5428,-0.5428,-0.5428,-0.5428,-0.5428,-0.5428,-0.5428,-0.5428,-0.5428,-0.5943,-0.6588,-0.6009,-0.6728,-0.7897,-0.7307,-0.7502,-0.8027,-0.8027,-0.8027,-0.8027,-0.8027,-0.8027,-0.8027,-0.8027,-0.7567,-0.7307,-0.8156,-0.8221,-0.8027,-0.8027,-0.8027,-0.8027,-0.8027,-0.7906,-0.7807,-0.7659,-0.7944,-0.8217,-0.8063,-0.848,-0.8804,-0.8804,-0.8374,-0.8049,-0.8049,-0.7563,-0.7182,-0.6966,-0.6912,-0.6858,-0.6642,-0.6588,-0.6696,-0.6912,-0.7128,-0.7235,-0.7235,-0.7235,-0.7503,-0.8049,-0.8738,-0.9211,-0.9413,-0.9413,-0.9413,-0.9413,-0.9413,-0.9413,-0.9413,-0.9413,-0.9413,-0.9413,-0.9413,-0.9814,-1.0364,-1.0167,-1.0517,-1.1065,-1.0864,-1.0813,-1.0813,-0.5428,-0.5428,-0.5428,-0.5428,-0.5428,-0.5428,-0.5428,-0.5428,-0.5428,-0.5428,-0.5428,-0.5428,-0.5428,-0.5428,-0.5428,-0.5428,-0.5428,-0.5428,-0.5428,-0.5428,-0.5428,-0.5428,-0.5428,-0.5428,-0.5428,-0.5428,-0.5428,-0.5428,-0.5428,-0.5428,-0.5428,-0.5428,-0.5428,-0.5428,-0.5428,-0.5428,-0.5428,-0.5428,-0.5428,-0.5428,-0.5428,-0.5428,-0.5428,-0.5428,-0.5752,-0.6141,-0.5624,-0.6079,-0.6859,-0.6334,-0.6531,-0.699,-0.699,-0.699,-0.699,-0.699,-0.699,-0.699,-0.699,-0.6597,-0.6334,-0.6859,-0.699,-0.699,-0.699,-0.699,-0.699,-0.699,-0.699,-0.6957,-0.6875,-0.717,-0.7412,-0.7378,-0.768,-0.7943,-0.7943,-0.7563,-0.7289,-0.7289,-0.6858,-0.6475,-0.6199,-0.6145,-0.6041,-0.5769,-0.6041,-0.6145,-0.6145,-0.6421,-0.6588,-0.6588,-0.6588,-0.6804,-0.7235,-0.7723,-0.8209,-0.8804,-0.8804,-0.8804,-0.8804,-0.8804,-0.8804,-0.8804,-0.8804,-0.8804,-0.8804,-0.8804,-0.9211,-0.9762,-0.9517,-0.9814,-1.0364,-0.9791,-0.974,-0.9909,-0.5428,-0.5428,-0.5428,-0.5428,-0.5428,-0.5428,-0.5428,-0.5428,-0.5428,-0.5428,-0.5428,-0.5428,-0.5428,-0.5428,-0.5428,-0.5428,-0.5428,-0.5428,-0.5428,-0.5428,-0.5428,-0.5428,-0.5428,-0.5428,-0.5428,-0.5428,-0.5428,-0.5428,-0.5428,-0.5428,-0.5428,-0.5428,-0.5428,-0.5428,-0.5428,-0.5428,-0.5428,-0.5428,-0.5428,-0.5428,-0.5428,-0.5428,-0.5428,-0.5428,-0.5428,-0.5428,-0.5428,-0.5428,-0.5428,-0.5428,-0.5428,-0.5428,-0.5428,-0.5428,-0.5428,-0.5428,-0.5428,-0.5428,-0.5428,-0.5428,-0.5428,-0.5428,-0.5428,-0.5428,-0.5428,-0.5428,-0.5428,-0.5428,-0.5428,-0.5574,-0.6034,-0.6047,-0.6168,-0.6716,-0.6673,-0.6588,-0.6588,-0.6534,-0.648,-0.648,-0.6421,-0.615,-0.5487,-0.5433,-0.5164,-0.4574,-0.5058,-0.5433,-0.5433,-0.6036,-0.6421,-0.6421,-0.6421,-0.6426,-0.648,-0.648,-0.7235,-0.8586,-0.8586,-0.8586,-0.8586,-0.8586,-0.8586,-0.8586,-0.8586,-0.8586,-0.8586,-0.8586,-0.8942,-0.9451,-0.8844,-0.8995,-0.934,-0.8084,-0.8049,-0.8427,-0.5428,-0.5428,-0.5428,-0.5428,-0.5428,-0.5428,-0.5428,-0.5428,-0.5428,-0.5428,-0.5428,-0.5428,-0.5428,-0.5428,-0.5428,-0.5428,-0.5428,-0.5428,-0.5428,-0.5428,-0.5428,-0.5428,-0.5428,-0.5428,-0.5428,-0.5428,-0.5428,-0.5428,-0.5428,-0.5428,-0.5428,-0.5428,-0.5428,-0.5428,-0.5428,-0.5428,-0.5428,-0.5428,-0.5428,-0.5428,-0.5428,-0.5428,-0.5428,-0.5428,-0.5428,-0.5428,-0.5428,-0.5428,-0.5428,-0.5428,-0.5428,-0.5428,-0.5428,-0.5428,-0.5428,-0.5428,-0.5428,-0.5428,-0.5428,-0.5428,-0.5428,-0.5428,-0.5428,-0.5428,-0.5428,-0.5428,-0.5428,-0.5428,-0.5428,-0.538,-0.5346,-0.5686,-0.599,-0.6032,-0.6341,-0.6588,-0.6588,-0.6091,-0.576,-0.576,-0.5277,-0.4897,-0.4732,-0.4732,-0.468,-0.4519,-0.4625,-0.4732,-0.4732,-0.4846,-0.4952,-0.4952,-0.4952,-0.5222,-0.5706,-0.576,-0.6199,-0.7074,-0.7074,-0.7074,-0.7074,-0.7074,-0.7074,-0.7074,-0.7074,-0.7074,-0.7074,-0.7074,-0.7176,-0.7278,-0.7122,-0.7176,-0.7278,-0.6961,-0.6966,-0.702,-0.4084,-0.4084,-0.4084,-0.4084,-0.4084,-0.4084,-0.4084,-0.4084,-0.4084,-0.4084,-0.4084,-0.4084,-0.4084,-0.4084,-0.4084,-0.4084,-0.4084,-0.4084,-0.4084,-0.4084,-0.4084,-0.4084,-0.4084,-0.4084,-0.4084,-0.4084,-0.4553,-0.5428,-0.5428,-0.5428,-0.5428,-0.5428,-0.5428,-0.5428,-0.5428,-0.5428,-0.5428,-0.5428,-0.5428,-0.5428,-0.5428,-0.5428,-0.5428,-0.5428,-0.5428,-0.5428,-0.5428,-0.509,-0.4686,-0.4284,-0.4084,-0.4084,-0.4084,-0.4084,-0.4084,-0.4084,-0.4084,-0.4084,-0.4084,-0.4084,-0.4084,-0.4084,-0.4084,-0.4217,-0.4619,-0.509,-0.5292,-0.4821,-0.509,-0.5338,-0.5254,-0.5431,-0.5513,-0.5411,-0.5526,-0.5656,-0.5622,-0.5277,-0.5003,-0.5003,-0.4736,-0.4349,-0.3956,-0.3901,-0.3959,-0.3959,-0.4294,-0.4519,-0.4519,-0.4519,-0.4519,-0.4519,-0.4519,-0.468,-0.5003,-0.5003,-0.5222,-0.5609,-0.6263,-0.6588,-0.6588,-0.6588,-0.6588,-0.6588,-0.6588,-0.6588,-0.6588,-0.6588,-0.6588,-0.6588,-0.6588,-0.6588,-0.6534,-0.6199,-0.5878,-0.566,-0.2678,-0.2678,-0.2678,-0.2678,-0.2678,-0.2678,-0.2678,-0.2678,-0.2678,-0.2678,-0.2678,-0.2678,-0.2678,-0.2678,-0.2678,-0.2678,-0.2678,-0.2678,-0.2678,-0.2678,-0.2678,-0.2678,-0.2678,-0.2678,-0.2678,-0.2678,-0.3413,-0.4954,-0.4954,-0.4954,-0.4954,-0.4954,-0.4954,-0.4954,-0.4954,-0.4954,-0.4954,-0.4954,-0.4954,-0.4954,-0.4954,-0.4954,-0.4954,-0.4954,-0.4954,-0.4954,-0.4954,-0.442,-0.368,-0.2945,-0.2678,-0.2678,-0.2678,-0.2678,-0.2678,-0.2678,-0.2678,-0.2678,-0.2678,-0.2678,-0.2678,-0.2678,-0.2678,-0.2878,-0.3411,-0.435,-0.4954,-0.4151,-0.4755,-0.5428,-0.5428,-0.5237,-0.5091,-0.4972,-0.4806,-0.4646,-0.4406,-0.4311,-0.4239,-0.4125,-0.4125,-0.3846,-0.3176,-0.3121,-0.3121,-0.3178,-0.3735,-0.4125,-0.4125,-0.4125,-0.4125,-0.4125,-0.4125,-0.4181,-0.4294,-0.4294,-0.4349,-0.4519,-0.5664,-0.6263,-0.6263,-0.6263,-0.6263,-0.6263,-0.6263,-0.6263,-0.6263,-0.6263,-0.6263,-0.6263,-0.6263,-0.6263,-0.615,-0.5546,-0.5003,-0.457,-0.2678,-0.2678,-0.2678,-0.2678,-0.2678,-0.2678,-0.2678,-0.2678,-0.2678,-0.2678,-0.2678,-0.2678,-0.2678,-0.2678,-0.2678,-0.2678,-0.2678,-0.2678,-0.2678,-0.2678,-0.2678,-0.2678,-0.2678,-0.2678,-0.2678,-0.2678,-0.2811,-0.3078,-0.3078,-0.3078,-0.3078,-0.3078,-0.3078,-0.3078,-0.3078,-0.3078,-0.3078,-0.3078,-0.3078,-0.3078,-0.3078,-0.3078,-0.3078,-0.3078,-0.3078,-0.3078,-0.3078,-0.3011,-0.2878,-0.2744,-0.2678,-0.2678,-0.2678,-0.2678,-0.2678,-0.2678,-0.2678,-0.2678,-0.2678,-0.2678,-0.2678,-0.2678,-0.2678,-0.2544,-0.1809,-0.2945,-0.4151,-0.4015,-0.4755,-0.5428,-0.5428,-0.5237,-0.5125,-0.5104,-0.487,-0.4449,-0.3787,-0.3578,-0.3231,-0.2565,-0.2508,-0.2454,-0.2343,-0.2343,-0.2343,-0.2343,-0.2454,-0.2508,-0.2508,-0.2508,-0.2508,-0.2508,-0.2508,-0.2843,-0.3569,-0.3569,-0.3846,-0.4519,-0.468,-0.4791,-0.4791,-0.4791,-0.4791,-0.4791,-0.4791,-0.4791,-0.4791,-0.4791,-0.4791,-0.4791,-0.4791,-0.4791,-0.4791,-0.468,-0.457,-0.4519,-0.1209,-0.1209,-0.1209,-0.1209,-0.1209,-0.1209,-0.1209,-0.1209,-0.1209,-0.1209,-0.1209,-0.1209,-0.1209,-0.1209,-0.1209,-0.1209,-0.1209,-0.1209,-0.1209,-0.1209,-0.1209,-0.1209,-0.1209,-0.1209,-0.1209,-0.1209,-0.1209,-0.1209,-0.2211,-0.2678,-0.2678,-0.2678,-0.2678,-0.2678,-0.2678,-0.2678,-0.2678,-0.2678,-0.2678,-0.2678,-0.2678,-0.2678,-0.2678,-0.2678,-0.2678,-0.2611,-0.2075,-0.1942,-0.1876,-0.1342,-0.1209,-0.1209,-0.1209,-0.1209,-0.1209,-0.1209,-0.1209,-0.1209,-0.1209,-0.1209,-0.1209,-0.1209,-0.1209,-0.1075,-0.0672,-0.1542,-0.2611,-0.3145,-0.4417,-0.5428,-0.5428,-0.5308,-0.5233,-0.5145,-0.4581,-0.4068,-0.3643,-0.3074,-0.2565,-0.2232,-0.1842,-0.1563,-0.1563,-0.1563,-0.1563,-0.1563,-0.1952,-0.2174,-0.2174,-0.2174,-0.2174,-0.2174,-0.2174,-0.2399,-0.2732,-0.2732,-0.2899,-0.3231,-0.3231,-0.3677,-0.4519,-0.4519,-0.4519,-0.4519,-0.4519,-0.4519,-0.4519,-0.4519,-0.4519,-0.4519,-0.4519,-0.4236,-0.379,-0.3345,-0.3231,-0.3231]}]]